     2              OBSERVATION DATA    GPS                 RINEX VERSION / TYPE
teqc 2000Feb29 20020409 20:39:04UTC                         PGM / RUN BY / DATE
                                                            COMMENT
L2: 1 -> 1; 150 -> 5; 250 -> 9                              COMMENT
L2: 1 -> 1; 150 -> 5; 250 -> 9                              COMMENT
L2: 1 -> 1; 150 -> 5; 250 -> 9                              COMMENT
L2: 1 -> 1; 150 -> 5; 250 -> 9                              COMMENT
L2: 1 -> 1; 150 -> 5; 250 -> 9                              COMMENT
Original Marker Name: GUAD                                  COMMENT
Campaign Name: Northern Baja                                COMMENT
4-Character Station Name: GUAD                              COMMENT
6-Character Antenna Code: DMRCHT                            COMMENT
Vertical Measurement Point: BCR                             COMMENT
Vertical Offset to Rinex Ref. Point: 0.0348                 COMMENT
Radial Measurement Point: ECF                               COMMENT
Radial Offset to Rinex Ref. Point: 0.1897                   COMMENT
Antenna Height from Field Measurement: 1.2417 m             COMMENT
Additional Antenna Identification Info.:                    COMMENT
Turborogue and Ashtech Choke Ring                           COMMENT
Original XYZ: -2648805.9540 -4921569.3516 3062817.5523      COMMENT
New XYZ position is based on association with SCEC monument COMMENT
D5S5Z3N7+0011. Position of that monument is believed to be  COMMENT
valid to within 1 m horizontally; vertical accuracy         COMMENT
should be no worse than 3-times this value.                 COMMENT
                                                            COMMENT
Revised Rinex header created by UCSD GPS archive for        COMMENT
GSAC on 27-Jun-2003 (2003:178) 15:32:26 GMT                 COMMENT
For assistance contact dagnew@ucsd.edu                      COMMENT
or anderson@python.ucsd.edu                                 COMMENT
                                                            COMMENT
CENTENAL                                                    MARKER NAME
JGG CICESE (ENSENADA)                                       OBSERVER / AGENCY
319 ASHTECH Z-XII3 CC00                                     REC # / TYPE / VERS
12738 DORNE-MARGOL. TYPE T                                  ANT # / TYPE
 -2648786.5996 -4921527.4371  3062786.3360                  APPROX POSITION XYZ
        1.1923        0.0000        0.0000                  ANTENNA: DELTA H/E/N
     1     1     0                                          WAVELENGTH FACT L1/2
     7    C1    L1    L2    P1    P2    S1    S2            # / TYPES OF OBSERV
     0                                                      INTERVAL
  2002     3    22     0     0   30.000000                  TIME OF FIRST OBS
  2002     3    22    23    59   30.000000                  TIME OF LAST OBS
                                                            END OF HEADER
 02  3 22  0  0 30.0000000  0  9G 6G23G26G21G15G17G29G22G18
  20829703.010   -23600199.68249 -18114963.06847  20829702.957    20829714.469
       243.000         207.000
  21765354.667   -14453310.39249 -11234271.08047  21765354.678    21765365.547
       239.000         198.000
  21973949.980   -17788747.59249 -12549105.71546  21973949.911    21973962.607
       232.000         185.000
  22790587.923   -14643185.81249 -11394804.09446  22790586.935    22790603.554
       228.000         177.000
  21204214.218   -21925213.43449 -17072427.69147  21204213.618    21204226.062
       241.000         200.000
  21045419.553   -24414978.48549 -19011944.99447  21045418.920    21045430.266
       241.000         206.000
  22497639.057   -13015828.08349 -10130535.52846  22497638.679    22497654.487
       225.000         173.000
  23698008.213    -6786438.69549  -5275768.16645  23698007.651    23698025.618
       218.000         158.000
  20582135.073   -24298459.93049 -18913745.35748  20582134.645    20582144.159
       243.000         213.000
 02  3 22  0  1  0.0000000  0  9G 6G23G26G21G15G17G29G22G18
  20839474.019   -23548852.95749 -18074952.70647  20839474.002    20839485.544
       242.000         207.000
  21778050.320   -14386594.60949 -11182284.81047  21778050.050    21778061.124
       238.000         197.000
  21978139.178   -17766732.88949 -12531951.38346  21978139.151    21978151.731
       231.000         185.000
  22778695.705   -14705679.02249 -11443499.88646  22778694.738    22778711.107
       228.000         177.000
  21198503.517   -21955223.94449 -17095812.44947  21198503.322    21198515.515
       241.000         202.000
  21042863.143   -24428412.35249 -19022412.92147  21042862.439    21042873.613
       240.000         205.000
  22480340.173   -13106733.05349 -10201370.27746  22480339.875    22480355.112
       225.000         173.000
  23699090.273    -6780752.57549  -5271337.44145  23699090.111    23699107.907
       215.000         157.000
  20577449.661   -24323081.70249 -18932931.08748  20577448.889    20577458.932
       243.000         213.000
 02  3 22  0  1 30.0000000  0  9G 6G23G26G21G15G17G29G22G18
  20849333.952   -23497039.08949 -18034578.33047  20849334.176    20849345.398
       242.000         207.000
  21790784.038   -14319678.70449 -11130142.60447  21790783.914    21790795.200
       239.000         197.000
  21982447.051   -17744094.15049 -12514310.80346  21982447.019    21982459.215
       231.000         185.000
  22766859.325   -14767878.63749 -11491966.88746  22766858.422    22766875.358
       229.000         178.000
  21192815.216   -21985116.34149 -17119105.16547  21192814.280    21192826.778
       239.000         201.000
  21040325.640   -24441746.95349 -19032803.49447  21040325.086    21040336.326
       241.000         205.000
  22463078.240   -13197444.02349 -10272053.85946  22463077.405    22463093.328
       225.000         173.000
  23700263.347    -6774587.03749  -5266533.10445  23700262.480    23700279.861
       214.000         155.000
  20572848.769   -24347259.25349 -18951770.66648  20572848.094    20572857.762
       243.000         213.000
 02  3 22  0  2  0.0000000  0  9G 6G23G26G21G15G17G29G22G18
  20859282.660   -23444758.58649 -17993840.35547  20859282.609    20859294.151
       241.000         207.000
  21803555.496   -14252564.57749 -11077845.93547  21803555.223    21803566.419
       237.000         197.000
  21986873.839   -17720831.47549 -12496184.02846  21986873.874    21986886.734
       231.000         185.000
  22755078.946   -14829784.27149 -11540204.81646  22755077.927    22755093.482
       227.000         178.000
  21187149.259   -22014890.01149 -17142305.36947  21187147.753    21187160.187
       237.000         200.000
  21037807.094   -24454981.85649 -19043116.38047  21037806.620    21037817.873
       240.000         205.000
  22445853.912   -13287957.38449 -10342583.46046  22445853.099    22445869.151
       224.000         174.000
  23701527.626    -6767942.75649  -5261355.76945  23701527.844    23701545.098
       217.000         156.000
  20568332.434   -24370992.51149 -18970264.04948  20568331.750    20568341.518
       242.000         213.000
 02  3 22  0  2 30.0000000  0  9G 6G23G26G21G15G17G29G22G18
  20869319.830   -23392013.25449 -17952740.18347  20869319.960    20869331.204
       241.000         207.000
  21816364.008   -14185255.55449 -11025397.40447  21816363.826    21816374.766
       237.000         197.000
  21991419.108   -17696946.29049 -12477572.19746  21991419.327    21991431.869
       230.000         185.000
  22743354.385   -14891396.47449 -11588214.11446  22743353.224    22743368.961
       227.000         178.000
  21181505.805   -22044545.81249 -17165413.73747  21181504.849    21181516.489
       239.000         200.000
  21035307.452   -24468117.65649 -19053352.05247  21035306.800    21035317.789
       240.000         205.000
  22428667.543   -13378271.44149 -10412957.76146  22428666.837    22428681.806
       225.000         174.000
  23702882.868    -6760822.00349  -5255807.15945  23702882.966    23702900.463
       216.000         159.000
  20563900.239   -24394283.43449 -18988412.76048  20563899.738    20563909.361
       241.000         214.000
 02  3 22  0  3  0.0000000  0  9G 6G23G26G21G15G17G29G22G18
  20879445.414   -23338803.18549 -17911277.86447  20879445.331    20879456.926
       240.000         206.000
  21829209.308   -14117753.22349 -10972798.24047  21829208.913    21829220.160
       237.000         197.000
  21996082.725   -17672438.55449 -12458475.24646  21996083.079    21996095.452
       230.000         185.000
  22731685.767   -14952714.26949 -11635993.99446  22731684.252    22731700.215
       227.000         178.000
  21175885.082   -22074083.15949 -17188429.79447  21175884.520    21175896.523
       239.000         201.000
  21032826.819   -24481153.36749 -19063509.72847  21032826.107    21032837.298
       240.000         205.000
  22411519.763   -13468382.58749 -10483173.94846  22411519.128    22411534.029
       224.000         174.000
  23704328.588    -6753225.28749  -5249887.65145  23704327.845    23704345.160
       218.000         159.000
  20559552.296   -24417131.78049 -19006216.60548  20559551.669    20559561.479
       241.000         214.000
 02  3 22  0  3 30.0000000  0  9G 6G23G26G21G15G17G29G22G18
  20889659.374   -23285128.86549 -17869453.79947  20889659.410    20889671.097
       241.000         206.000
  21842091.078   -14050059.60649 -10920050.02347  21842091.055    21842101.866
       237.000         196.000
  22000864.896   -17647308.48849 -12438893.37046  22000864.948    22000878.075
       230.000         185.000
  22720073.287   -15013737.00449 -11683543.95346  22720072.631    22720088.752
       228.000         178.000
  21170287.051   -22103501.40249 -17211353.05647  21170286.526    21170298.671
       239.000         201.000
  21030365.368   -24494088.39949 -19073588.95447  21030364.781    21030376.244
       240.000         205.000
  22394411.231   -13558287.46249 -10553229.41746  22394410.962    22394425.436
       225.000         174.000
  23705864.497    -6745153.60349  -5243598.03745  23705863.592    23705882.552
       216.000         159.000
  20555288.560   -24439537.62049 -19023675.64248  20555288.170    20555297.915
       242.000         214.000
 02  3 22  0  4  0.0000000  0  9G 6G23G26G21G15G17G29G22G18
  20899961.337   -23230991.95549 -17827269.26647  20899961.328    20899972.964
       241.000         206.000
  21855008.579   -13982177.42749 -10867154.87047  21855008.423    21855019.857
       236.000         196.000
  22005765.063   -17621557.28449 -12418827.50046  22005765.386    22005777.962
       230.000         185.000
  22708516.990   -15074465.42649 -11730864.58246  22708516.831    22708532.547
       228.000         178.000
  21164711.433   -22132800.94349 -17234183.80747  21164710.686    21164722.779
       239.000         201.000
  21027922.961   -24506923.14449 -19083590.03447  21027922.702    21027933.684
       239.000         206.000
  22377342.392   -13647983.98849 -10623122.52046  22377342.638    22377357.124
       225.000         175.000
  23707490.487    -6736608.77649  -5236939.73445  23707489.696    23707508.993
       216.000         159.000
  20551108.821   -24461502.16549 -19040790.80748  20551108.374    20551117.892
       241.000         214.000
 02  3 22  0  4 30.0000000  0  9G 6G23G26G21G15G17G29G22G18
  20910351.181   -23176393.08249 -17784724.76447  20910351.265    20910362.687
       240.000         206.000
  21867961.623   -13914108.86249 -10814114.47747  21867961.495    21867973.102
       236.000         195.000
  22010783.565   -17595185.48549 -12398278.04446  22010783.552    22010795.567
       230.000         185.000
  22697016.696   -15134898.97349 -11777955.42346  22697016.013    22697031.711
       228.000         178.000
  21159158.537   -22161981.46849 -17256921.82847  21159157.900    21159169.327
       240.000         201.000
  21025499.706   -24519657.16249 -19093512.62247  21025499.030    21025510.375
       240.000         206.000
  22360313.754   -13737468.93549 -10692850.77046  22360313.227    22360328.099
       225.000         175.000
  23709206.318    -6727591.89049  -5229913.60345  23709205.169    23709223.744
       214.000         158.000
  20547012.912   -24483025.91749 -19057562.50048  20547012.309    20547021.904
       241.000         214.000
 02  3 22  0  5  0.0000000  0  9G 6G23G26G21G15G17G29G22G18
  20920828.945   -23121332.40549 -17741820.41347  20920829.011    20920840.424
       241.000         205.000
  21880949.839   -13845855.47449 -10760930.07347  21880949.434    21880960.985
       236.000         195.000
  22015920.032   -17568192.93949 -12377244.89846  22015919.806    22015932.560
       230.000         184.000
  22685572.651   -15195036.57149 -11824815.67746  22685571.765    22685586.565
       229.000         179.000
  21153628.568   -22191042.17749 -17279566.48647  21153627.928    21153639.002
       240.000         201.000
  21023095.907   -24532289.42649 -19103355.92647  21023095.324    21023106.477
       240.000         206.000
  22343325.986   -13826738.71949 -10762411.34846  22343324.648    22343340.492
       224.000         176.000
  23711011.800    -6718103.62549  -5222520.17745  23711011.598    23711028.907
       214.000         157.000
  20543000.968   -24504108.66949 -19073990.55748  20543000.187    20543009.848
       241.000         214.000
 02  3 22  0  5 30.0000000  0  9G 6G23G26G21G15G17G29G22G18
  20931394.348   -23065811.01749 -17698557.07747  20931394.297    20931406.185
       242.000         205.000
  21893972.752   -13777419.63449 -10707603.50347  21893972.508    21893984.042
       237.000         195.000
  22021174.485   -17540580.36149 -12355728.62346  22021174.898    22021186.245
       231.000         184.000
  22674185.103   -15254877.84049 -11871445.02446  22674183.999    22674199.876
       230.000         179.000
  21148121.235   -22219983.19849 -17302117.88647  21148120.201    21148132.342
       240.000         202.000
  21020711.480   -24544819.65749 -19113119.73147  21020710.925    21020722.317
       241.000         206.000
  22326379.745   -13915790.74049 -10831802.24746  22326378.760    22326394.522
       226.000         177.000
  23712906.772    -6708145.39549  -5214760.53445  23712906.347    23712924.477
       216.000         157.000
  20539072.781   -24524751.07949 -19090075.50048  20539072.246    20539081.786
       243.000         214.000
 02  3 22  0  6  0.0000000  0  9G 6G23G26G21G15G17G29G22G18
  20942047.086   -23009830.70849 -17654936.13147  20942046.883    20942058.804
       242.000         205.000
  21907029.797   -13708804.32449 -10654137.07947  21907029.519    21907041.125
       237.000         195.000
  22026546.767   -17512349.32449 -12333730.41146  22026546.489    22026560.014
       231.000         184.000
  22662853.850   -15314423.52249 -11917844.04146  22662852.594    22662868.164
       230.000         179.000
  21142636.426   -22248804.91349 -17324576.29747  21142635.078    21142647.662
       240.000         201.000
  21018346.350   -24557248.31849 -19122804.38147  21018345.652    21018357.035
       242.000         206.000
  22309475.427   -14004622.76949 -10901021.72146  22309474.332    22309489.758
       227.000         177.000
  23714890.911    -6697719.19649  -5206636.25545  23714890.343    23714908.010
       216.000         158.000
  20535228.059   -24544954.97749 -19105818.73748  20535227.288    20535236.933
       243.000         214.000
 02  3 22  0  6 30.0000000  0  9G 6G23G26G21G15G17G29G22G18
  20952787.161   -22953391.58949 -17610957.68447  20952787.247    20952798.837
       240.000         205.000
  21920120.770   -13640010.99349 -10600531.94847  21920120.107    21920132.300
       235.000         194.000
  22032036.578   -17483499.69449 -12311250.21146  22032036.588    22032048.854
       230.000         184.000
  22651578.883   -15373672.96449 -11964012.23246  22651578.059    22651593.011
       229.000         180.000
  21137174.712   -22277506.25549 -17346940.93647  21137173.999    21137185.504
       240.000         202.000
  21016000.819   -24569574.22749 -19132408.97747  21015999.896    21016011.613
       240.000         206.000
  22292613.559   -14093231.08549 -10970066.89146  22292612.895    22292627.593
       225.000         177.000
  23716963.902    -6686825.54149  -5198147.70945  23716962.868    23716981.893
       214.000         159.000
  20531466.914   -24564719.67049 -19121219.75248  20531466.212    20531476.034
       241.000         214.000
 02  3 22  0  7  0.0000000  0  9G 6G23G26G21G15G17G29G22G18
  20963614.514   -22896493.66049 -17566621.71947  20963614.821    20963626.235
       239.000         205.000
  21933245.423   -13571040.83949 -10546789.03947  21933245.560    21933256.790
       235.000         194.000
  22037644.268   -17454031.27449 -12288287.82746  22037644.506    22037657.151
       229.000         183.000
  22640360.567   -15432624.61949 -12009948.38546  22640359.615    22640374.561
       230.000         180.000
  21131736.128   -22306086.22149 -17369210.99747  21131735.524    21131746.986
       239.000         202.000
  21013674.964   -24581796.27249 -19141932.63447  21013674.616    21013685.954
       239.000         206.000
  22275794.996   -14181611.69849 -11038934.62446  22275794.059    22275809.084
       226.000         178.000
  23719125.660    -6675465.05549  -5189295.41545  23719124.762    23719144.455
       216.000         158.000
  20527789.419   -24584044.80149 -19136278.24648  20527788.867    20527798.458
       240.000         214.000
 02  3 22  0  7 30.0000000  0  9G 6G23G26G21G15G17G29G22G18
  20974528.402   -22839141.01649 -17521931.41347  20974528.616    20974540.165
       240.000         205.000
  21946402.688   -13501899.31549 -10492912.58047  21946402.372    21946413.902
       234.000         194.000
  22043368.850   -17423947.83949 -12264846.21646  22043369.643    22043381.380
       230.000         184.000
  22629198.425   -15491281.45249 -12055654.79846  22629197.563    22629212.156
       230.000         180.000
  21126320.103   -22334547.56149 -17391388.61347  21126319.383    21126331.019
       239.000         202.000
  21011368.459   -24593916.91049 -19151377.26847  21011367.773    21011379.152
       240.000         206.000
  22259019.704   -14269765.09749 -11107625.29846  22259019.262    22259033.555
       225.000         178.000
  23721375.576    -6663642.06249  -5180082.73145  23721374.494    23721392.616
       216.000         158.000
  20524194.742   -24602934.54349 -19150997.47248  20524194.416    20524203.783
       241.000         213.000
 02  3 22  0  8  0.0000000  0  9G 6G23G26G21G15G17G29G22G18
  20985529.218   -22781331.62649 -17476885.21747  20985529.500    20985540.898
       241.000         204.000
  21959592.718   -13432585.51349 -10438901.89047  21959592.550    21959603.606
       236.000         194.000
  22049210.968   -17393247.19649 -12240923.66046  22049211.039    22049223.959
       229.000         183.000
  22618092.888   -15549640.34749 -12101129.06146  22618092.111    22618107.567
       231.000         180.000
  21120927.280   -22362886.92149 -17413471.17747  21120926.897    21120938.560
       241.000         203.000
  21009081.855   -24605932.85149 -19160740.32547  21009081.196    21009092.621
       241.000         205.000
  22242288.929   -14357685.12949 -11176134.13846  22242288.264    22242303.289
       227.000         178.000
  23723713.791    -6651354.83849  -5170508.29445  23723713.205    23723731.337
       217.000         158.000
  20520683.486   -24621386.23349 -19165375.36548  20520683.127    20520692.534
       242.000         214.000
 02  3 22  0  8 30.0000000  0  9G 6G23G26G21G15G17G29G22G18
  20996616.399   -22723068.45749 -17431485.42447  20996616.125    20996627.858
       241.000         204.000
  21972814.726   -13363103.55249 -10384760.16447  21972813.788    21972826.189
       235.000         194.000
  22055170.029   -17361932.09449 -12216522.30846  22055170.433    22055182.618
       228.000         183.000
  22607043.895   -15607702.42949 -12146372.03646  22607043.200    22607058.102
       230.000         180.000
  21115557.444   -22391105.94949 -17435459.96647  21115556.594    21115568.025
       240.000         203.000
  21006814.931   -24617845.56449 -19170022.93647  21006814.195    21006825.275
       241.000         205.000
  22225602.646   -14445370.99349 -11244460.50246  22225601.786    22225616.412
       227.000         179.000
  23726139.700    -6638606.77749  -5160574.77845  23726138.376    23726158.366
       213.000         158.000
  20517255.023   -24639402.65349 -19179414.08248  20517254.340    20517263.936
       241.000         213.000
 02  3 22  0  9  0.0000000  0  9G 6G23G26G21G15G17G29G22G18
  21007790.086   -22664350.80149 -17385731.49547  21007790.229    21007801.787
       240.000         204.000
  21986068.605   -13293454.07749 -10330487.91747  21986068.482    21986080.340
       235.000         193.000
  22061246.231   -17330001.69549 -12191641.50946  22061247.256    22061259.283
       231.000         183.000
  22596051.560   -15665466.50149 -12191382.81446  22596050.500    22596066.236
       230.000         180.000
  21110210.687   -22419202.93349 -17457353.66647  21110209.826    21110220.988
       240.000         202.000
  21004568.012   -24629653.08349 -19179223.58747  21004567.580    21004578.868
       240.000         206.000
  22208961.772   -14532818.02749 -11312600.77246  22208960.517    22208975.827
       227.000         179.000
  23728653.204    -6625397.72449  -5150282.02845  23728652.046    23728670.976
       216.000         157.000
  20513909.598   -24656982.65049 -19193112.73948  20513909.136    20513918.543
       241.000         213.000
 02  3 22  0  9 30.0000000  0  9G 6G23G26G21G15G17G29G22G18
  21019049.764   -22605181.05349 -17339625.27947  21019049.895    21019061.439
       240.000         204.000
  21999353.779   -13223640.23949 -10276087.58547  21999353.455    21999365.418
       235.000         193.000
  22067439.131   -17297458.17949 -12166282.95346  22067439.290    22067451.685
       229.000         182.000
  22585115.834   -15722933.29649 -12236161.93446  22585115.090    22585129.961
       231.000         181.000
  21104886.989   -22447178.69649 -17479152.90547  21104886.141    21104897.964
       241.000         202.000
  21002340.965   -24641356.08749 -19188342.78647  21002340.182    21002351.935
       240.000         206.000
  22192366.699   -14620024.50149 -11380553.59846  22192365.655    22192380.501
       228.000         179.000
  23731254.082    -6611730.21649  -5139632.06745  23731253.045    23731271.259
       217.000         158.000
  20510646.878   -24674128.13649 -19206472.80648  20510646.405    20510655.800
       241.000         213.000
 02  3 22  0 10  0.0000000  0  9G 6G23G26G21G15G17G29G22G18
  21030395.454   -22545559.33449 -17293166.88347  21030395.750    21030407.170
       239.000         204.000
  22012669.982   -13153663.32849 -10221560.19947  22012669.726    22012680.918
       235.000         192.000
  22073748.598   -17264301.62049 -12140446.70446  22073748.392    22073761.627
       227.000         183.000
  22574236.854   -15780102.16049 -12280708.91146  22574236.072    22574249.940
       231.000         181.000
  21099586.615   -22475032.11649 -17500856.82047  21099585.661    21099597.649
       239.000         202.000
  21000134.015   -24652953.29749 -19197379.56647  21000133.530    21000144.842
       239.000         206.000
  22175818.162   -14706986.61649 -11448316.02446  22175817.411    22175832.034
       226.000         180.000
  23733942.170    -6597604.96749  -5128625.42645  23733942.454    23733959.435
       217.000         158.000
  20507466.815   -24690839.14149 -19219494.32748  20507466.326    20507476.003
       240.000         213.000
 02  3 22  0 10 30.0000000  0  9G 6G23G26G21G15G17G29G22G18
  21041826.595   -22485488.46049 -17246358.48947  21041826.537    21041838.273
       240.000         203.000
  22026016.530   -13083527.21049 -10166908.73747  22026016.336    22026028.189
       235.000         193.000
  22080174.239   -17230534.41249 -12114134.62046  22080175.103    22080186.531
       230.000         183.000
  22563414.243   -15836974.52149 -12325024.84346  22563413.174    22563428.676
       231.000         181.000
  21094309.170   -22502764.59949 -17522466.48147  21094308.024    21094319.786
       240.000         202.000
  20997947.022   -24664445.99549 -19206334.88347  20997946.574    20997957.752
       240.000         206.000
  22159316.301   -14793703.34349 -11515887.22646  22159315.185    22159330.102
       228.000         180.000
  23736716.657    -6583025.08149  -5117264.50445  23736716.493    23736734.033
       217.000         160.000
  20504369.016   -24707118.04849 -19232179.13748  20504368.511    20504377.986
       241.000         213.000
 02  3 22  0 11  0.0000000  0  9G 6G23G26G21G15G17G29G22G18
  21053343.569   -22424966.96349 -17199198.95847  21053343.454    21053355.446
       240.000         203.000
  22039393.293   -13013231.73049 -10112133.12047  22039393.016    22039405.132
       234.000         192.000
  22086716.412   -17196155.09949 -12087345.58446  22086716.334    22086729.065
       228.000         182.000
  22552648.641   -15893547.62849 -12369107.59946  22552647.567    22552662.460
       231.000         182.000
  21089055.302   -22530373.41149 -17543979.78347  21089054.581    21089066.056
       240.000         202.000
  20995780.469   -24675831.35849 -19215206.57747  20995779.794    20995791.226
       240.000         206.000
  22142862.089   -14880169.22049 -11583262.96946  22142861.196    22142876.224
       226.000         180.000
  23739577.911    -6567989.53849  -5105548.52945  23739577.952    23739595.844
       216.000         160.000
  20501353.742   -24722963.36049 -19244526.09148  20501353.169    20501362.746
       241.000         214.000
 02  3 22  0 11 30.0000000  0  9G 6G23G26G21G15G17G29G22G18
  21064945.811   -22363997.02649 -17151689.98747  21064945.722    21064957.640
       240.000         203.000
  22052799.852   -12942780.00049 -10057235.74147  22052799.644    22052811.536
       236.000         192.000
  22093374.655   -17161165.89249 -12060081.28346  22093375.295    22093387.456
       231.000         183.000
  22541939.729   -15949822.52949 -12412957.98446  22541938.651    22541953.698
       231.000         182.000
  21083824.886   -22557859.44549 -17565397.42247  21083824.012    21083836.036
       241.000         202.000
  20993634.162   -24687110.01749 -19223995.11947  20993633.490    20993645.039
       241.000         205.000
  22126456.074   -14966382.49349 -11650441.88046  22126455.504    22126470.429
       228.000         180.000
  23742525.328    -6552501.12949  -5093479.68645  23742523.953    23742543.027
       217.000         160.000
  20498420.663   -24738376.62349 -19256536.37948  20498420.029    20498429.531
       242.000         214.000
 02  3 22  0 12  0.0000000  0  9G 6G23G26G21G15G17G29G22G18
  21076633.130   -22302579.94849 -17103832.60047  21076633.280    21076645.234
       238.000         203.000
  22066235.755   -12872174.34749 -10002218.42947  22066234.873    22066246.980
       233.000         192.000
  22100148.873   -17125567.85049 -12032342.57846  22100149.195    22100161.855
       230.000         183.000
  22531287.519   -16005799.30449 -12456576.07446  22531286.845    22531301.579
       230.000         182.000
  21078617.802   -22585222.52549 -17586719.25547  21078617.157    21078629.115
       240.000         203.000
  20991508.244   -24698281.61949 -19232700.24647  20991507.722    20991519.048
       239.000         205.000
  22110098.700   -15052340.41449 -11717421.81346  22110096.938    22110113.164
       226.000         181.000
  23745558.617    -6536561.37649  -5081059.13245  23745557.613    23745576.323
       216.000         160.000
  20495569.613   -24753358.68949 -19268210.67048  20495569.123    20495578.727
       240.000         213.000
 02  3 22  0 12 30.0000000  0  9G 6G23G26G21G15G17G29G22G18
  21088405.106   -22240717.95249 -17055628.51747  21088405.291    21088417.133
       240.000         202.000
  22079700.248   -12801417.82549  -9947083.55347  22079700.112    22079711.813
       234.000         191.000
  22107038.570   -17089362.94249 -12004130.97846  22107039.145    22107051.216
       230.000         183.000
  22520691.867   -16061478.98549 -12499962.64346  22520690.680    22520706.130
       232.000         183.000
  21073434.048   -22612463.18349 -17607945.68147  21073433.566    21073444.937
       241.000         202.000
  20989402.643   -24709346.65449 -19241322.32347  20989402.219    20989413.642
       240.000         206.000
  22093790.266   -15138041.07149 -11784201.28946  22093789.908    22093803.995
       229.000         181.000
  23748677.273    -6520172.78149  -5068288.85345  23748677.073    23748695.123
       217.000         160.000
  20492800.266   -24767911.48949 -19279550.46548  20492799.820    20492809.368
       241.000         214.000
 02  3 22  0 13  0.0000000  0  9G 6G23G26G21G15G17G29G22G18
  21100261.925   -22178410.18549 -17007077.08847  21100262.262    21100273.811
       239.000         202.000
  22093193.527   -12730510.69349  -9891831.31347  22093192.961    22093205.415
       234.000         191.000
  22114043.771   -17052550.32949 -11975445.85346  22114043.886    22114056.373
       229.000         182.000
  22510153.283   -16116858.99449 -12543115.72946  22510152.526    22510167.499
       230.000         183.000
  21068274.028   -22639579.23349 -17629075.02947  21068273.268    21068284.950
       240.000         202.000
  20987317.850   -24720302.66849 -19249859.45947  20987317.313    20987328.837
       240.000         206.000
  22077531.677   -15223479.60549 -11850776.51946  22077531.593    22077545.473
       227.000         181.000
  23751881.364    -6503335.02649  -5055168.55945  23751880.445    23751899.661
       214.000         158.000
  20490112.845   -24782033.73449 -19290554.77448  20490112.570    20490121.914
       240.000         214.000
 02  3 22  0 13 30.0000000  0  9G 6G23G26G21G15G17G29G22G18
  21112203.177   -22115658.78649 -16958179.96847  21112203.146    21112215.111
       241.000         202.000
  22106714.861   -12659455.92049  -9836464.02847  22106713.930    22106726.140
       235.000         191.000
  22121164.247   -17015132.02249 -11946288.74646  22121164.467    22121177.386
       230.000         183.000
  22499671.474   -16171940.37149 -12586036.09946  22499670.372    22499685.579
       232.000         183.000
  21063137.509   -22666571.42049 -17650107.84147  21063136.654    21063148.365
       241.000         203.000
  20985253.729   -24731150.01849 -19258311.90947  20985253.271    20985264.439
       242.000         206.000
  22061323.294   -15308654.02349 -11917145.94646  22061322.954    22061336.937
       230.000         181.000
  23755170.346    -6486050.61349  -5041700.22145  23755168.419    23755186.994
       213.000         155.000
  20487507.060   -24795727.18749 -19301224.94348  20487506.594    20487516.270
       242.000         214.000
 02  3 22  0 14  0.0000000  0  9G 6G23G26G21G15G17G29G22G18
  21124228.852   -22052463.76649 -16908937.18747  21124229.260    21124240.922
       240.000         202.000
  22120264.075   -12588254.44549  -9780982.44247  22120264.190    22120275.896
       234.000         191.000
  22128400.016   -16977107.79449 -11916659.50146  22128400.077    22128412.580
       229.000         182.000
  22489246.723   -16226722.14649 -12628723.02046  22489245.899    22489260.991
       230.000         183.000
  21058024.902   -22693437.97949 -17671042.78347  21058024.233    21058035.818
       240.000         203.000
  20983210.517   -24741887.26149 -19266678.57947  20983210.156    20983220.833
       241.000         206.000
  22045165.914   -15393560.47749 -11983306.57746  22045164.800    22045179.240
       228.000         181.000
  23758544.202    -6468319.98249  -5027884.21445  23758544.292    23758562.586
       217.000         154.000
  20484982.872   -24808991.54749 -19311560.77348  20484982.342    20484991.886
       241.000         213.000
 02  3 22  0 14 30.0000000  0  9G 6G23G26G21G15G17G29G22G18
  21136338.136   -21988829.34149 -16859351.99847  21136338.238    21136349.983
       240.000         202.000
  22133840.311   -12516911.35349  -9725390.49147  22133840.201    22133851.950
       235.000         191.000
  22135750.256   -16938481.86249 -11886561.38846  22135750.329    22135762.910
       229.000         182.000
  22478878.439   -16281207.01849 -12671178.58146  22478877.877    22478892.045
       233.000         184.000
  21052935.748   -22720181.54149 -17691881.86047  21052935.046    21052946.418
       242.000         203.000
  20981187.813   -24752516.66449 -19274961.20147  20981187.186    20981198.344
       241.000         206.000
  22029059.596   -15478198.80149 -12049258.26046  22029058.900    22029073.475
       230.000         182.000
  23762002.532    -6450147.61449  -5013724.00145  23762001.978    23762020.653
       216.000         157.000
  20482539.596   -24821830.76649 -19321565.30548  20482539.003    20482548.475
       242.000         213.000
 02  3 22  0 15  0.0000000  0  9G 6G23G26G21G15G17G29G22G18
  21148531.239   -21924754.22749 -16809423.43247  21148531.157    21148543.021
       239.000         201.000
  22147443.573   -12445426.10049  -9669687.76047  22147443.494    22147454.896
       233.000         191.000
  22143215.341   -16899252.85849 -11855993.35946  22143214.861    22143228.149
       229.000         181.000
  22468567.142   -16335392.52049 -12713400.87146  22468565.766    22468580.852
       231.000         184.000
  21047870.544   -22746799.18049 -17712622.84147  21047869.723    21047881.394
       240.000         203.000
  20979186.141   -24763035.22249 -19283157.46147  20979185.472    20979196.396
       241.000         206.000
  22013005.240   -15562563.73349 -12114996.92346  22013004.234    22013018.455
       228.000         182.000
  23765544.846    -6431532.59949  -4999218.82345  23765543.726    23765563.237
       213.000         158.000
  20480177.576   -24834242.94849 -19331237.08948  20480176.939    20480186.497
       241.000         213.000
 02  3 22  0 15 30.0000000  0  9G 6G23G26G21G15G17G29G22G18
  21160807.973   -21860239.83149 -16759152.55947  21160808.137    21160820.229
       238.000         201.000
  22161073.432   -12373801.01649  -9613876.08947  22161072.839    22161085.133
       233.000         191.000
  22150794.938   -16859422.21749 -11824956.51146  22150794.844    22150807.372
       229.000         181.000
  22458312.756   -16389278.91249 -12755390.10046  22458312.234    22458326.672
       231.000         184.000
  21042829.272   -22773290.89049 -17733265.68847  21042828.473    21042840.589
       240.000         203.000
  20977205.707   -24773442.60649 -19291267.09347  20977205.223    20977216.159
       240.000         206.000
  21997003.439   -15646652.52149 -12180520.41646  21997002.452    21997016.838
       228.000         183.000
  23769170.865    -6412477.00149  -4984370.34145  23769169.596    23769188.987
       215.000         157.000
  20477896.727   -24846228.72149 -19340576.60648  20477896.297    20477905.670
       241.000         214.000
 02  3 22  0 16  0.0000000  0  9G 6G23G26G21G15G17G29G22G18
  21173167.926   -21795288.01649 -16708540.83647  21173168.041    21173179.923
       238.000         201.000
  22174729.363   -12302038.95249  -9557957.65747  22174728.685    22174741.342
       233.000         190.000
  22158488.487   -16818991.62049 -11793452.16446  22158488.658    22158501.027
       228.000         180.000
  22448115.201   -16442866.69649 -12797146.63446  22448114.194    22448129.138
       231.000         184.000
  21037811.944   -22799656.78649 -17753810.49347  21037811.056    21037822.764
       240.000         203.000
  20975246.399   -24783738.83149 -19299290.09947  20975245.869    20975257.075
       241.000         206.000
  21981054.681   -15730462.93949 -12245826.98946  21981053.433    21981068.104
       229.000         183.000
  23772880.654    -6392982.92249  -4969180.24545  23772881.237    23772897.966
       217.000         157.000
  20475696.627   -24857790.05349 -19349585.38248  20475696.151    20475705.539
       241.000         214.000
 02  3 22  0 16 30.0000000  0  9G 6G23G26G21G15G17G29G22G18
  21185610.952   -21729900.06849 -16657589.27947  21185611.167    21185623.360
       239.000         201.000
  22188410.958   -12230141.98649  -9501934.11847  22188410.403    22188422.243
       234.000         190.000
  22166296.059   -16777962.48449 -11761481.43946  22166296.182    22166308.648
       228.000         181.000
  22437974.331   -16496156.25349 -12838670.79346  22437972.965    22437988.242
       231.000         184.000
  21032818.590   -22825896.71649 -17774257.15247  21032817.983    21032829.588
       241.000         203.000
  20973308.301   -24793923.46249 -19307226.15247  20973307.831    20973319.082
       241.000         206.000
  21965159.400   -15813992.22649 -12310914.50046  21965158.557    21965172.615
       230.000         183.000
  23776673.598    -6373052.08349  -4953649.81245  23776674.031    23776691.198
       218.000         157.000
  20473577.144   -24868927.99549 -19358264.24748  20473576.918    20473586.253
       241.000         214.000
 02  3 22  0 17  0.0000000  0  9G 6G23G26G21G15G17G29G22G18
  21198136.815   -21664076.66349 -16606298.39947  21198136.945    21198149.290
       238.000         200.000
  22202117.933   -12158111.42249  -9445806.47647  22202117.814    22202129.597
       233.000         190.000
  22174217.487   -16736335.29549 -11729044.69646  22174218.318    22174230.146
       229.000         180.000
  22427890.479   -16549146.53049 -12879961.74846  22427890.195    22427904.396
       233.000         185.000
  21027849.480   -22852009.38049 -17794604.63247  21027848.803    21027860.414
       240.000         203.000
  20971391.656   -24803995.24849 -19315074.27647  20971390.898    20971402.293
       241.000         206.000
  21949318.247   -15897236.93449 -12375780.26946  21949317.793    21949330.977
       230.000         184.000
  23780549.253    -6352685.68249  -4937779.92145  23780548.369    23780567.444
       215.000         159.000
  20471538.168   -24879642.68349 -19366613.30448  20471537.759    20471546.967
       241.000         214.000
 02  3 22  0 17 30.0000000  0  9G 6G23G26G21G15G17G29G22G18
  21210745.164   -21597819.51949 -16554669.53947  21210745.407    21210757.597
       238.000         200.000
  22215849.869   -12085949.73549  -9389576.67147  22215850.227    22215862.061
       234.000         190.000
  22182252.276   -16694111.77649 -11696143.26746  22182252.666    22182264.913
       228.000         179.000
  22417863.549   -16601838.00049 -12921019.85746  22417862.437    22417877.055
       232.000         185.000
  21022904.602   -22877994.77049 -17814852.93547  21022904.206    21022915.472
       240.000         203.000
  20969496.580   -24813953.92349 -19322834.25947  20969495.940    20969506.886
       240.000         206.000
  21933531.732   -15980194.57149 -12440422.34146  21933531.202    21933545.093
       229.000         184.000
  23784507.199    -6331885.51449  -4921572.03545  23784506.559    23784526.252
       214.000         159.000
  20469579.516   -24889935.27849 -19374633.45448  20469579.275    20469588.568
       241.000         214.000
 02  3 22  0 18  0.0000000  0  9G 6G23G26G21G15G17G29G22G18
  21223435.788   -21531130.17549 -16502703.89747  21223435.831    21223448.179
       237.000         200.000
  22229606.376   -12013659.20249  -9333246.45547  22229605.904    22229618.011
       232.000         189.000
  22190400.463   -16651293.50949 -11662778.38946  22190400.455    22190413.786
       227.000         181.000
  22407893.425   -16654230.71749 -12961845.18246  22407892.599    22407907.079
       232.000         185.000
  21017983.966   -22903852.83149 -17835002.02447  21017983.263    21017994.884
       240.000         203.000
  20967622.962   -24823799.42249 -19330506.05447  20967622.357    20967633.547
       241.000         206.000
  21917800.268   -16062862.42449 -12504838.61746  21917799.503    21917813.185
       228.000         185.000
  23788547.456    -6310653.75649  -4905027.85445  23788546.022    23788565.321
       213.000         158.000
  20467700.920   -24899807.23649 -19382325.83948  20467700.386    20467709.755
       240.000         214.000
 02  3 22  0 18 30.0000000  0  9G 6G23G26G21G15G17G29G22G18
  21236208.469   -21464009.54849 -16450402.20347  21236208.609    21236220.644
       237.000         200.000
  22243387.119   -11941241.48849  -9276817.13947  22243386.494    22243398.753
       232.000         189.000
  22198661.384   -16607881.36649 -11628950.79446  22198661.776    22198673.926
       228.000         181.000
  22397980.206   -16706324.29849 -13002437.41346  22397979.631    22397993.481
       232.000         186.000
  21013087.744   -22929582.60149 -17855051.15247  21013087.053    21013098.467
       241.000         203.000
  20965771.166   -24833530.51549 -19338088.70047  20965770.839    20965781.642
       240.000         206.000
  21902124.686   -16145237.22649 -12569026.53746  21902124.165    21902137.512
       229.000         185.000
  23792669.668    -6288991.67449  -4888148.38745  23792669.997    23792687.714
       216.000         156.000
  20465902.315   -24909258.82149 -19389690.66048  20465901.901    20465911.063
       240.000         214.000
 02  3 22  0 19  0.0000000  0  9G 6G23G26G21G15G17G29G22G18
  21249062.797   -21396460.00849 -16397766.28547  21249062.870    21249074.887
       238.000         199.000
  22257191.527   -11868699.58949  -9220291.05747  22257190.827    22257203.386
       232.000         190.000
  22207035.080   -16563877.79549 -11594662.29946  22207035.669    22207047.970
       229.000         180.000
  22388123.730   -16758119.86549 -13042797.42746  22388122.695    22388137.618
       233.000         186.000
  21008215.767   -22955184.74349 -17875000.83047  21008214.975    21008226.232
       241.000         203.000
  20963941.089   -24843147.66149 -19345582.55347  20963940.516    20963951.685
       240.000         206.000
  21886505.143   -16227317.40749 -12632984.88146  21886504.438    21886518.222
       230.000         185.000
  23796873.296    -6266902.23249  -4870935.93045  23796873.837    23796889.814
       214.000         155.000
  20464183.300   -24918292.13849 -19396729.55748  20464182.861    20464192.046
       241.000         214.000
 02  3 22  0 19 30.0000000  0  9G 6G23G26G21G15G17G29G22G18
  21261998.612   -21328482.33549 -16344796.76147  21261998.854    21262010.790
       237.000         199.000
  22271019.152   -11796034.89049  -9163669.28247  22271019.114    22271030.431
       233.000         189.000
  22215521.088   -16519283.54649 -11559913.56046  22215520.245    22215534.090
       227.000         180.000
  22378324.045   -16809616.73549 -13082924.69546  22378323.529    22378337.152
       232.000         186.000
  21003368.256   -22980658.23749 -17894850.25447  21003367.631    21003379.094
       240.000         203.000
  20962132.828   -24852649.65949 -19352986.67547  20962132.228    20962143.659
       239.000         206.000
  21870942.386   -16309099.26149 -12696710.76646  21870941.852    21870955.283
       229.000         185.000
  23801157.800    -6244386.45649  -4853391.22745  23801157.392    23801175.927
       213.000         153.000
  20462543.810   -24926907.36949 -19403442.66948  20462543.236    20462552.579
       241.000         214.000
 02  3 22  0 20  0.0000000  0  9G 6G23G26G21G15G17G29G22G18
  21275015.684   -21260077.44549 -16291494.34347  21275015.603    21275027.913
       237.000         199.000
  22284869.987   -11723248.90249  -9106953.00147  22284870.605    22284881.616
       234.000         189.000
  22224119.356   -16474099.50449 -11524705.24246  22224119.252    22224132.319
       227.000         180.000
  22368581.232   -16860814.79149 -13122819.10946  22368580.514    22368594.765
       232.000         187.000
  20998545.490   -23006001.99449 -17914598.58647  20998544.660    20998556.079
       240.000         203.000
  20960346.674   -24862035.52249 -19360300.30147  20960346.214    20960357.333
       240.000         206.000
  21855436.975   -16390579.69949 -12760201.78346  21855436.706    21855450.259
       231.000         186.000
  23805523.219    -6221445.61549  -4835515.32145  23805521.560    23805541.825
       214.000         155.000
  20460983.796   -24935105.17749 -19409830.51548  20460983.236    20460992.552
       240.000         214.000
 02  3 22  0 20 30.0000000  0  9G 6G23G26G21G15G17G29G22G18
  21288113.736   -21191246.94549 -16237860.28247  21288114.015    21288126.071
       237.000         199.000
  22298743.366   -11650343.91549  -9050143.99847  22298743.171    22298755.310
       233.000         189.000
  22232829.509   -16428327.24849 -11489038.56546  22232829.872    22232842.282
       228.000         180.000
  22358895.209   -16911714.48449 -13162481.04946  22358894.669    22358908.857
       232.000         187.000
  20993747.380   -23031215.88649 -17934245.72947  20993746.692    20993758.103
       240.000         203.000
  20958582.825   -24871304.69049 -19367523.00147  20958582.325    20958593.422
       240.000         206.000
  21839989.546   -16471755.98849 -12823455.80246  21839988.880    21840002.741
       230.000         186.000
  23809969.312    -6198081.87549  -4817309.88545  23809970.091    23809988.926
       217.000         159.000
  20459502.949   -24942886.70849 -19415893.99748  20459502.651    20459511.717
       241.000         214.000
 02  3 22  0 21  0.0000000  0  9G 6G23G26G21G15G17G29G22G18
  21301292.351   -21121993.18049 -16183896.40247  21301292.472    21301304.922
       239.000         199.000
  22312638.809   -11577322.92449  -8993244.60147  22312638.372    22312650.576
       231.000         188.000
  22241651.064   -16381969.33249 -11452915.53446  22241652.344    22241664.328
       229.000         180.000
  22349265.805   -16962316.81049 -13201911.27546  22349265.036    22349278.970
       233.000         187.000
  20988973.863   -23056300.49549 -17953792.12647  20988973.036    20988984.590
       241.000         204.000
  20956841.019   -24880457.64849 -19374655.14947  20956840.441    20956851.570
       240.000         206.000
  21824600.240   -16552626.44349 -12886471.51146  21824599.694    21824612.942
       230.000         186.000
  23814495.597    -6174297.84049  -4798776.95345  23814495.788    23814514.446
       219.000         161.000
  20458100.985   -24950253.86849 -19421634.59248  20458100.522    20458109.768
       241.000         214.000
 02  3 22  0 21 30.0000000  0  9G 6G23G26G21G15G17G29G22G18
  21314551.399   -21052316.78249 -16129603.19647  21314551.483    21314563.918
       237.000         199.000
  22326556.185   -11504187.01349  -8936255.64747  22326555.547    22326567.626
       231.000         188.000
  22250584.057   -16335026.39449 -11416336.66246  22250584.271    22250596.246
       227.000         180.000
  22339693.134   -17012620.79549 -13241109.02646  22339692.153    22339706.438
       233.000         187.000
  20984225.260   -23081254.36349 -17973236.64547  20984224.564    20984236.389
       240.000         204.000
  20955121.644   -24889492.88349 -19381695.56147  20955121.191    20955132.329
       240.000         206.000
  21809269.835   -16633187.34649 -12949246.01446  21809269.267    21809282.498
       230.000         187.000
  23819101.563    -6150094.68349  -4779917.44445  23819101.709    23819119.531
       217.000         160.000
  20456777.821   -24957206.86549 -19427052.46348  20456777.328    20456786.813
       240.000         214.000
 02  3 22  0 22  0.0000000  0  9G 6G23G26G21G15G17G29G22G18
  21327890.627   -20982219.22149 -16074981.81247  21327890.868    21327902.938
       239.000         198.000
  22340494.986   -11430938.24149  -8879178.73946  22340494.098    22340507.167
       232.000         187.000
  22259628.110   -16287500.03249 -11379303.13546  22259628.110    22259641.577
       230.000         180.000
  22330177.165   -17062626.69949 -13280074.50046  22330176.051    22330190.404
       234.000         187.000
  20979501.588   -23106077.20249 -17992579.06847  20979500.734    20979512.405
       241.000         204.000
  20953424.792   -24898409.82049 -19388643.79347  20953424.366    20953435.408
       242.000         206.000
  21793998.900   -16713435.84749 -13011777.09146  21793998.079    21794011.224
       232.000         187.000
  23823786.729    -6125474.23649  -4760732.76245  23823785.846    23823803.774
       214.000         157.000
  20455533.248   -24963746.79549 -19432148.47148  20455532.739    20455541.991
       242.000         214.000
 02  3 22  0 22 30.0000000  0  9G 6G23G26G21G15G17G29G22G18
  21341309.846   -20911700.99949 -16020032.64347  21341309.849    21341322.287
       237.000         198.000
  22354454.980   -11357577.56349  -8822014.66146  22354455.403    22354466.959
       232.000         187.000
  22268782.963   -16239390.59049 -11341815.30746  22268784.281    22268796.108
       229.000         179.000
  22320718.150   -17112333.46649 -13318806.89046  22320717.329    22320731.550
       230.000         187.000
  20974803.198   -23130767.43649 -18011818.16747  20974802.416    20974813.881
       240.000         204.000
  20951750.786   -24907206.71349 -19395498.48547  20951750.085    20951761.351
       240.000         206.000
  21778788.112   -16793368.33849 -13074061.92647  21778787.509    21778800.227
       231.000         188.000
  23828550.929    -6100437.31249  -4741223.56345  23828550.208    23828568.826
       213.000         156.000
  20454367.281   -24969873.77449 -19436922.70248  20454366.787    20454376.117
       240.000         214.000
 02  3 22  0 23  0.0000000  0  9G 6G23G26G21G15G17G29G22G18
  21354808.575   -20840765.00249 -15964757.92547  21354808.604    21354820.927
       237.000         198.000
  22368435.774   -11284108.68549  -8764766.25346  22368435.624    22368447.916
       232.000         187.000
  22278048.317   -16190701.37949 -11303875.69046  22278047.778    22278060.764
       226.000         179.000
  22311315.715   -17161742.59149 -13357307.34146  22311315.058    22311328.842
       232.000         187.000
  20970129.782   -23155326.09249 -18030954.72947  20970129.282    20970140.273
       241.000         204.000
  20950099.434   -24915884.48949 -19402260.35647  20950098.828    20950109.973
       241.000         206.000
  21763637.698   -16872983.32049 -13136099.34447  21763637.227    21763649.642
       231.000         188.000
  23833393.779    -6074987.46949  -4721392.59245  23833392.905    23833411.666
       216.000         156.000
  20453279.455   -24975590.23449 -19441377.04148  20453278.960    20453288.323
       241.000         214.000
 02  3 22  0 23 30.0000000  0  9G 6G23G26G21G15G17G29G22G18
  21368386.583   -20769412.33249 -15909158.53947  21368386.714    21368398.982
       237.000         198.000
  22382436.841   -11210532.95349  -8707434.58146  22382436.142    22382448.802
       230.000         186.000
  22287423.713   -16141433.35449 -11265485.02646  22287424.057    22287436.581
       227.000         179.000
  22301970.034   -17210853.85349 -13395575.70246  22301969.298    22301983.385
       232.000         187.000
  20965481.662   -23179752.13249 -18049987.96147  20965480.700    20965492.281
       240.000         204.000
  20948471.048   -24924441.92949 -19408928.47047  20948470.476    20948481.566
       240.000         206.000
  21748548.272   -16952277.86549 -13197887.08947  21748547.474    21748560.904
       231.000         188.000
  23838315.180    -6049126.11249  -4701240.97045  23838314.868    23838333.351
       217.000         159.000
  20452269.579   -24980896.82449 -19445512.01648  20452269.139    20452278.334
       240.000         214.000
 02  3 22  0 24  0.0000000  0  9G 6G23G26G21G15G17G29G22G18
  21382043.616   -20697644.35249 -15853235.53347  21382043.579    21382055.840
       237.000         197.000
  22396457.819   -11136852.05049  -8650020.95746  22396457.615    22396469.135
       231.000         186.000
  22296909.003   -16091587.88249 -11226644.43346  22296909.131    22296922.579
       228.000         180.000
  22292681.037   -17259667.41949 -13433612.08846  22292679.989    22292694.358
       234.000         187.000
  20960858.888   -23204044.89249 -18068917.32947  20960858.170    20960869.617
       241.000         204.000
  20946865.625   -24932878.21549 -19415502.17047  20946864.847    20946876.125
       239.000         206.000
  21733520.391   -17031248.87149 -13259422.71547  21733519.478    21733532.970
       232.000         188.000
  23843314.630    -6022854.93449  -4680770.00745  23843315.196    23843333.984
       218.000         160.000
  20451337.549   -24985794.42049 -19449328.28548  20451337.024    20451346.457
       241.000         214.000
 02  3 22  0 24 30.0000000  0  9G 6G23G26G21G15G17G29G22G18
  21395779.229   -20625463.51249 -15796990.81847  21395779.290    21395791.910
       237.000         197.000
  22410498.396   -11063068.81049  -8592527.58346  22410498.575    22410511.494
       233.000         187.000
  22306503.742   -16041167.44749 -11187355.81746  22306504.588    22306515.654
       229.000         179.000
  22283448.485   -17308184.14249 -13471417.16047  22283447.340    22283462.008
       233.000         188.000
  20956261.445   -23228204.64549 -18087743.05647  20956260.583    20956272.061
       241.000         204.000
  20945283.214   -24941193.58049 -19421981.64547  20945282.633    20945293.733
       240.000         206.000
  21718554.479   -17109894.28849 -13320704.63447  21718553.868    21718566.805
       232.000         189.000
  23848391.495    -5996176.63149  -4659981.80845  23848391.192    23848410.321
       217.000         160.000
  20450483.040   -24990284.90949 -19452827.33148  20450482.645    20450491.893
       241.000         214.000
 02  3 22  0 25  0.0000000  0 10G 6G23G26G21G15G17G29G22G18G 3
  21409591.366   -20552880.63549 -15740432.83747  21409591.628    21409603.872
       237.000         197.000
  22424556.241   -10989194.40549  -8534963.19846  22424556.053    22424568.135
       231.000         186.000
  22316205.829   -15990183.16549 -11147627.84046  22316206.232    22316219.130
       229.000         180.000
  22274270.574   -17356413.57049 -13508998.37847  22274269.674    22274283.989
       232.000         188.000
  20951687.495   -23252240.26349 -18106472.05647  20951686.769    20951698.403
       241.000         204.000
  20943722.205   -24949396.64449 -19428373.62547  20943721.793    20943732.718
       240.000         206.000
  21703649.224   -17188220.89449 -13381738.14747  21703648.877    21703662.043
       231.000         189.000
  23853543.558    -5969102.56749  -4638885.21145  23853542.766    23853562.066
       214.000         159.000
  20449703.967   -24994378.77549 -19456017.32448  20449703.455    20449712.861
       240.000         214.000
  24625088.593    -3005237.68749  -2319345.99145  24625087.557    24625108.472
       205.000         145.000
 02  3 22  0 25 30.0000000  0 10G 6G23G26G21G15G17G29G22G18G 3
  21423482.246   -20479884.02349 -15683552.44847  21423481.972    21423494.519
       238.000         197.000
  22438633.573   -10915217.71349  -8477319.08046  22438633.078    22438645.303
       233.000         185.000
  22326017.286   -15938623.52849 -11107451.52346  22326017.210    22326030.217
       230.000         179.000
  22265149.790   -17404342.81149 -13546345.66447  22265148.698    22265162.601
       234.000         188.000
  20947139.814   -23276138.22249 -18125093.77947  20947138.528    20947150.469
       242.000         204.000
  20942185.211   -24957473.40049 -19434667.16847  20942184.188    20942195.767
       241.000         206.000
  21688807.697   -17266212.90049 -13442510.91147  21688807.291    21688819.772
       234.000         190.000
  23858772.974    -5941621.63249  -4617471.58245  23858772.466    23858790.731
       218.000         157.000
  20449002.671   -24998063.77649 -19458888.71048  20449001.641    20449011.218
       242.000         214.000
  24605965.790    -3105727.41249  -2397649.34145  24605965.235    24605985.837
       204.000         144.000
 02  3 22  0 26  0.0000000  0 10G 6G23G26G21G15G17G29G22G18G 3
  21437451.678   -20406474.39649 -15626350.24647  21437451.761    21437464.311
       237.000         196.000
  22452730.258   -10841139.70649  -8419596.00246  22452729.619    22452742.486
       232.000         185.000
  22335938.214   -15886489.13549 -11066827.37346  22335938.332    22335951.344
       228.000         179.000
  22256086.322   -17451970.99149 -13583458.36947  22256085.523    22256099.240
       234.000         189.000
  20942618.549   -23299896.95049 -18143607.01547  20942617.508    20942629.432
       241.000         204.000
  20940672.525   -24965422.32049 -19440861.11047  20940671.795    20940683.312
       240.000         206.000
  21674030.622   -17343866.16149 -13503019.73747  21674029.741    21674042.734
       233.000         190.000
  23864079.716    -5913734.67749  -4595741.58845  23864079.751    23864098.641
       215.000         156.000
  20448379.192   -25001340.06349 -19461441.62948  20448378.852    20448388.142
       241.000         214.000
  24586865.308    -3206099.80449  -2475861.24645  24586863.958    24586884.800
       203.000         142.000
 02  3 22  0 26 30.0000000  0 10G 6G23G26G21G15G17G29G22G18G 3
  21451498.766   -20332656.62049 -15568829.98847  21451499.076    21451511.423
       238.000         196.000
  22466845.138   -10766965.63649  -8361798.10646  22466844.387    22466857.333
       230.000         185.000
  22345967.421   -15833785.22949 -11025759.42846  22345966.869    22345980.667
       227.000         178.000
  22247079.536   -17499301.60449 -13620339.20647  22247078.948    22247092.603
       235.000         189.000
  20938123.275   -23323519.09249 -18162013.82247  20938122.180    20938134.214
       241.000         204.000
  20939183.662   -24973245.94349 -19446957.42247  20939183.085    20939194.430
       242.000         206.000
  21659317.778   -17421181.86149 -13563265.52247  21659317.157    21659329.934
       234.000         191.000
  23869462.740    -5885447.13049  -4573699.45045  23869463.125    23869480.490
       217.000         156.000
  20447832.574   -25004212.35049 -19463679.73648  20447832.090    20447841.423
       243.000         214.000
  24567787.015    -3306355.89049  -2553982.50545  24567786.485    24567806.585
       205.000         141.000
 02  3 22  0 27  0.0000000  0 10G 6G23G26G21G15G17G29G22G18G 3
  21465623.352   -20258431.89649 -15510992.65347  21465623.558    21465636.160
       237.000         196.000
  22480977.862   -10692697.07749  -8303926.59546  22480978.702    22480990.151
       231.000         185.000
  22356104.784   -15780513.11449 -10984248.75746  22356105.460    22356117.279
       227.000         179.000
  22238129.312   -17546334.65449 -13656988.17547  22238128.644    22238142.125
       234.000         189.000
  20933654.134   -23347003.93749 -18180313.65047  20933653.413    20933665.357
       240.000         204.000
  20937718.878   -24980943.37649 -19452955.40947  20937718.569    20937729.674
       241.000         206.000
  21644669.839   -17498156.63449 -13623245.66247  21644669.357    21644682.156
       233.000         191.000
  23874921.698    -5856760.81749  -4551346.57445  23874921.236    23874940.201
       215.000         157.000
  20447362.746   -25006681.32249 -19465603.57948  20447362.316    20447371.523
       241.000         214.000
  24548731.364    -3406492.79949  -2632010.91245  24548730.957    24548750.401
       207.000         139.000
 02  3 22  0 27 30.0000000  0 10G 6G23G26G21G15G17G29G22G18G 3
  21479824.867   -20183802.90549 -15452840.29047  21479824.997    21479837.722
       237.000         195.000
  22495128.380   -10618336.78549  -8245983.57046  22495128.067    22495139.926
       231.000         185.000
  22366349.737   -15726675.56249 -10942297.45946  22366349.878    22366362.767
       228.000         178.000
  22229235.473   -17593071.28649 -13693406.16747  22229234.491    22229248.499
       235.000         189.000
  20929211.224   -23370351.63449 -18198506.59247  20929210.759    20929222.237
       242.000         205.000
  20936278.153   -24988514.54449 -19458854.99747  20936277.647    20936288.790
       241.000         206.000
  21630087.063   -17574788.61249 -13682958.67647  21630086.133    21630099.542
       234.000         191.000
  23880455.993    -5827678.35349  -4528684.99445  23880454.685    23880475.529
       214.000         157.000
  20446969.219   -25008749.09149 -19467214.78948  20446968.928    20446978.016
       241.000         214.000
  24529698.686    -3506509.08349  -2709945.34145  24529698.063    24529717.655
       210.000         138.000
 02  3 22  0 28  0.0000000  0 10G 6G23G26G21G15G17G29G22G18G 3
  21494102.987   -20108771.06449 -15394374.02447  21494103.362    21494115.818
       236.000         195.000
  22509295.732   -10543886.46149  -8187970.39746  22509295.119    22509308.274
       228.000         184.000
  22376702.072   -15672274.00749 -10899906.68846  22376701.982    22376714.957
       226.000         178.000
  22220398.037   -17639511.56449 -13729593.22747  22220397.629    22220411.153
       235.000         190.000
  20924794.543   -23393561.52249 -18216592.15947  20924794.246    20924805.353
       242.000         205.000
  20934861.591   -24995958.86949 -19464655.75347  20934861.277    20934872.068
       241.000         207.000
  21615570.118   -17651075.03049 -13742402.43547  21615569.493    21615582.268
       234.000         192.000
  23886065.154    -5798201.88649  -4505716.40845  23886064.821    23886083.752
       214.000         157.000
  20446651.839   -25010416.70149 -19468514.18348  20446651.538    20446660.663
       241.000         214.000
  24510689.472    -3606402.40649  -2787783.98845  24510687.534    24510708.176
       211.000         137.000
 02  3 22  0 28 30.0000000  0 10G 6G23G26G21G15G17G29G22G18G 3
  21508457.513   -20033337.69649 -15335594.88147  21508457.545    21508470.122
       236.000         195.000
  22523479.992   -10469347.80149  -8129888.40146  22523480.219    22523491.356
       231.000         184.000
  22387161.389   -15617310.11049 -10857077.72646  22387161.351    22387174.360
       227.000         177.000
  22211617.038   -17685655.47449 -13765549.35947  22211616.438    22211629.948
       234.000         190.000
  20920404.266   -23416632.76149 -18234569.68747  20920403.336    20920414.675
       241.000         205.000
  20933469.304   -25003275.12449 -19470356.71447  20933468.741    20933480.106
       241.000         207.000
  21601119.364   -17727013.06949 -13801574.73247  21601118.747    21601131.417
       233.000         192.000
  23891749.113    -5768333.06849  -4482442.09445  23891748.497    23891768.322
       213.000         158.000
  20446410.450   -25011684.95349 -19469502.39348  20446409.965    20446419.210
       241.000         214.000
  24491704.128    -3706170.07249  -2865524.75745  24491703.776    24491721.616
       213.000         137.000
 02  3 22  0 29  0.0000000  0 10G 6G23G26G21G15G17G29G22G18G 3
  21522887.843   -19957506.32049 -15276505.59947  21522887.635    21522900.653
       236.000         194.000
  22537680.481   -10394724.50749  -8071740.44746  22537680.488    22537692.518
       231.000         185.000
  22397727.071   -15561787.64849 -10813813.51746  22397727.146    22397739.829
       228.000         178.000
  22202892.006   -17731504.99249 -13801276.08947  22202891.278    22202904.892
       235.000         190.000
  20916040.063   -23439566.36449 -18252439.96347  20916039.317    20916050.823
       242.000         205.000
  20932101.186   -25010464.54349 -19475958.83747  20932100.608    20932111.815
       241.000         207.000
  21586735.118   -17802601.82949 -13860474.87747  21586734.435    21586747.203
       234.000         192.000
  23897506.798    -5738075.94949  -4458865.21345  23897506.371    23897526.681
       216.000         156.000
  20446244.456   -25012557.00049 -19470181.86748  20446243.910    20446253.277
       242.000         214.000
  24472742.734    -3805811.59849  -2943167.19445  24472741.873    24472761.184
       213.000         140.000
 02  3 22  0 29 30.0000000  0 10G 6G23G26G21G15G17G29G22G18G 3
  21537393.941   -19881276.63949 -15217105.95947  21537394.052    21537406.894
       235.000         194.000
  22551896.966   -10320016.54549  -8013526.52146  22551896.107    22551908.337
       228.000         183.000
  22408398.975   -15505706.43549 -10770113.92446  22408399.608    22408412.723
       226.000         177.000
  22194223.399   -17777058.44749 -13836772.12547  22194222.899    22194236.302
       234.000         190.000
  20911702.603   -23462359.98849 -18270201.17147  20911701.980    20911713.135
       241.000         205.000
  20930757.716   -25017524.34749 -19481459.96247  20930756.998    20930768.712
       240.000         206.000
  21572418.266   -17877836.71949 -13919099.27547  21572417.576    21572430.144
       234.000         192.000
  23903338.552    -5707430.56549  -4434985.77945  23903337.154    23903357.847
       213.000         156.000
  20446153.981   -25013032.26249 -19470552.16348  20446153.552    20446162.908
       240.000         215.000
  24453806.210    -3905322.55849  -3020707.88045  24453805.453    24453825.593
       212.000         144.000
 02  3 22  0 30  0.0000000  0 10G 6G23G26G21G15G17G29G22G18G 3
  21551975.397   -19804650.89149 -15157397.68447  21551975.688    21551988.237
       236.000         194.000
  22566129.069   -10245226.23149  -7955248.42146  22566129.054    22566141.694
       230.000         183.000
  22419176.790   -15449068.72649 -10725980.68846  22419176.577    22419189.158
       226.000         177.000
  22185610.984   -17822316.34249 -13872037.84547  22185610.042    22185623.770
       235.000         191.000
  20907391.769   -23485013.35849 -18287853.09047  20907390.815    20907402.246
       241.000         205.000
  20929438.928   -25024454.06849 -19486859.72347  20929438.121    20929449.509
       240.000         206.000
  21558169.165   -17952715.47349 -13977446.17247  21558168.980    21558181.122
       235.000         193.000
  23909243.485    -5676399.49649  -4410805.81045  23909242.766    23909263.638
       213.000         156.000
  20446138.804   -25013111.89449 -19470614.17048  20446138.293    20446147.507
       241.000         215.000
  24434894.911    -4004700.90849  -3098145.21245  24434893.735    24434913.336
       208.000         147.000
 02  3 22  0 30 30.0000000  0 10G 6G23G26G21G15G17G29G22G18G 3
  21566631.882   -19727631.10949 -15097382.37547  21566632.151    21566644.759
       235.000         194.000
  22580376.537   -10170355.88549  -7896907.96046  22580376.930    22580388.638
       230.000         183.000
  22430060.045   -15391876.86549 -10681415.65746  22430060.902    22430073.479
       226.000         177.000
  22177054.588   -17867279.81449 -13907074.15447  22177053.695    22177067.515
       234.000         191.000
  20903107.606   -23507526.41449 -18305395.67247  20903106.750    20903118.191
       241.000         205.000
  20928144.992   -25031253.49249 -19492157.95447  20928144.547    20928155.674
       240.000         206.000
  21543988.276   -18027235.88649 -14035513.84147  21543987.508    21543999.961
       235.000         193.000
  23915221.358    -5644985.21949  -4386327.25545  23915220.477    23915241.401
       212.000         156.000
  20446198.558   -25012797.70649 -19470369.30448  20446198.042    20446207.384
       240.000         214.000
  24416009.087    -4103944.92749  -3175477.84745  24416007.410    24416027.191
       207.000         147.000
 02  3 22  0 31  0.0000000  0 10G 6G23G26G21G15G17G29G22G18G 3
  21581362.985   -19650219.31349 -15037061.60347  21581363.263    21581376.271
       234.000         194.000
  22594638.789   -10095407.48849  -7838506.69546  22594637.998    22594651.179
       228.000         183.000
  22441048.213   -15334133.11349 -10636420.59546  22441049.075    22441062.001
       225.000         176.000
  22168554.043   -17911949.66549 -13941881.66947  22168553.260    22168566.503
       234.000         191.000
  20898850.216   -23529899.00649 -18322828.81147  20898849.637    20898860.589
       241.000         205.000
  20926875.964   -25037922.22249 -19497354.35147  20926875.675    20926886.788
       239.000         206.000
  21529876.005   -18101395.62049 -14093300.47047  21529875.437    21529887.929
       234.000         193.000
  23921271.773    -5613190.31749  -4361552.09345  23921271.728    23921291.925
       215.000         156.000
  20446332.870   -25012091.60749 -19469819.05648  20446332.618    20446341.759
       240.000         214.000
  24397149.151    -4203052.21349  -3252703.93145  24397148.096    24397167.608
       204.000         147.000
 02  3 22  0 31 30.0000000  0 10G 6G23G26G21G15G17G29G22G18G 3
  21596168.500   -19572416.14949 -14976435.87647  21596168.634    21596181.763
       234.000         194.000
  22608915.754   -10020381.81149  -7780045.19246  22608915.493    22608927.791
       227.000         182.000
  22452141.499   -15275838.41249 -10590996.19846  22452140.946    22452154.950
       224.000         177.000
  22160109.612   -17956325.01849 -13976459.70847  22160109.036    22160122.091
       235.000         191.000
  20894619.891   -23552129.27749 -18340151.04547  20894619.386    20894630.589
       241.000         205.000
  20925632.189   -25044458.27449 -19502447.36347  20925632.016    20925643.040
       240.000         206.000
  21515833.029   -18175191.01149 -14150803.20147  21515832.829    21515844.970
       234.000         193.000
  23927394.686    -5581015.60449  -4336480.99645  23927395.529    23927413.513
       216.000         158.000
  20446541.823   -25010993.50749 -19468963.35348  20446541.484    20446550.539
       241.000         215.000
  24378315.988    -4302019.36149  -3329820.80745  24378315.523    24378334.631
       207.000         147.000
 02  3 22  0 32  0.0000000  0 10G 6G23G26G21G15G17G29G22G18G 3
  21611047.811   -19494225.26249 -14915508.01147  21611047.963    21611061.047
       235.000         193.000
  22623206.642    -9945282.62049  -7721526.40546  22623207.349    22623219.096
       230.000         181.000
  22463338.675   -15216996.49449 -10545145.39646  22463339.094    22463351.975
       226.000         176.000
  22151720.841   -18000407.65449 -14010809.65447  22151719.614    22151733.709
       235.000         191.000
  20890416.381   -23574218.54549 -18357363.40647  20890415.816    20890426.921
       242.000         206.000
  20924413.547   -25050862.82349 -19507437.89647  20924413.090    20924424.178
       241.000         206.000
  21501859.566   -18248621.13949 -14208021.30547  21501859.323    21501871.569
       236.000         193.000
  23933589.014    -5548465.43749  -4311117.33545  23933588.971    23933608.683
       217.000         158.000
  20446824.778   -25009506.40649 -19467804.52948  20446824.278    20446833.716
       241.000         215.000
  24359509.667    -4400845.71949  -3406828.00845  24359508.493    24359528.573
       210.000         148.000
 02  3 22  0 32 30.0000000  0 10G 6G23G26G21G15G17G29G22G18G 3
  21626000.693   -19415647.76549 -14854278.91347  21626000.711    21626013.869
       234.000         193.000
  22637511.441    -9870111.25249  -7662951.38046  22637510.987    22637524.378
       227.000         182.000
  22474639.808   -15157608.90049 -10498869.41946  22474639.681    22474653.466
       224.000         177.000
  22143387.742   -18044197.64149 -14044931.56447  22143386.942    22143400.314
       235.000         191.000
  20886239.945   -23596165.64549 -18374464.98647  20886238.838    20886250.586
       240.000         206.000
  20923220.046   -25057134.48549 -19512324.87947  20923219.257    20923230.540
       239.000         206.000
  21487956.268   -18321683.04549 -14264952.48547  21487955.848    21487968.017
       235.000         193.000
  23939854.428    -5515541.19849  -4285462.18745  23939854.484    23939873.225
       218.000         158.000
  20447181.643   -25007631.01949 -19466343.14948  20447181.091    20447190.347
       240.000         215.000
  24340730.812    -4499528.55749  -3483723.39145  24340730.003    24340749.218
       214.000         149.000
 02  3 22  0 33  0.0000000  0 10G 6G23G26G21G15G17G29G22G18G 3
  21641026.919   -19336684.84449 -14792749.47747  21641027.179    21641039.623
       234.000         193.000
  22651829.624    -9794868.78149  -7604320.95846  22651829.495    22651842.342
       227.000         181.000
  22486044.442   -15097676.71349 -10452169.07646  22486044.985    22486057.277
       225.000         175.000
  22135110.447   -18087694.49549 -14078825.06647  22135110.062    22135123.091
       235.000         192.000
  20882090.850   -23617969.03349 -18391454.58947  20882090.340    20882101.626
       241.000         206.000
  20922052.121   -25063271.74649 -19517107.13747  20922051.715    20922062.806
       239.000         206.000
  21474123.567   -18394373.32849 -14321594.09447  21474123.184    21474135.281
       234.000         194.000
  23946190.802    -5482244.36449  -4259516.71745  23946190.867    23946208.357
       215.000         157.000
  20447612.222   -25005368.04149 -19464579.75148  20447611.653    20447621.010
       240.000         215.000
  24321979.863    -4598064.66049  -3560504.45845  24321979.514    24321998.012
       215.000         149.000
 02  3 22  0 33 30.0000000  0 10G 6G23G26G21G15G17G29G22G18G 3
  21656126.130   -19257338.66649 -14730921.40147  21656126.016    21656139.529
       236.000         193.000
  22666160.798    -9719557.43649  -7545636.87646  22666161.463    22666173.012
       231.000         181.000
  22497552.333   -15037202.58249 -10405046.44346  22497552.578    22497566.489
       226.000         176.000
  22126888.777   -18130899.00249 -14112490.77147  22126887.894    22126901.155
       236.000         192.000
  20877969.157   -23639628.60349 -18408332.13247  20877968.223    20877979.520
       242.000         206.000
  20920909.876   -25069274.14949 -19521784.31247  20920909.146    20920920.435
       240.000         206.000
  21460362.048   -18466690.01549 -14377944.59047  21460361.361    21460374.135
       236.000         194.000
  23952597.485    -5448577.66349  -4233283.02445  23952597.612    23952615.732
       217.000         157.000
  20448116.222   -25002719.16849 -19462515.66048  20448115.724    20448124.906
       242.000         214.000
  24303257.168    -4696452.22649  -3637169.79945  24303255.676    24303274.482
       218.000         148.000
 02  3 22  0 34  0.0000000  0 10G 6G23G26G21G15G17G29G22G18G 3
  21671297.948   -19177610.63049 -14668795.78147  21671297.913    21671311.164
       234.000         193.000
  22680505.072    -9644178.57149  -7486900.15046  22680504.434    22680517.336
       228.000         181.000
  22509163.040   -14976188.06449 -10357502.73746  22509163.840    22509176.115
       225.000         175.000
  22118722.745   -18173811.15249 -14145928.66547  22118721.728    22118735.280
       235.000         192.000
  20873874.973   -23661143.30549 -18425096.78647  20873874.258    20873885.552
       241.000         206.000
  20919793.503   -25075140.49349 -19526355.46347  20919792.959    20919804.146
       240.000         206.000
  21446672.229   -18538629.94649 -14434001.51147  21446671.698    21446684.016
       235.000         194.000
  23959074.185    -5414542.90549  -4206762.53945  23959074.778    23959092.097
       217.000         157.000
  20448693.530   -24999685.18549 -19460151.47748  20448693.094    20448702.203
       241.000         214.000
  24284563.281    -4794688.21249  -3713717.03845  24284561.968    24284580.268
       214.000         146.000
 02  3 22  0 34 30.0000000  0 10G 6G23G26G21G15G17G29G22G18G 3
  21686542.070   -19097502.68949 -14606374.13347  21686542.119    21686555.479
       234.000         192.000
  22694861.663    -9568733.96249  -7428112.21246  22694861.674    22694873.971
       226.000         180.000
  22520876.220   -14914635.31649 -10309539.61746  22520877.241    22520889.924
       225.000         176.000
  22110612.275   -18216431.39149 -14179139.10547  22110611.382    22110624.841
       235.000         192.000
  20869808.510   -23682512.45049 -18441748.02047  20869807.993    20869819.167
       241.000         206.000
  20918703.180   -25080870.08349 -19530820.05147  20918702.673    20918713.671
       239.000         206.000
  21433054.491   -18610190.69549 -14489762.96547  21433053.985    21433066.231
       234.000         195.000
  23965620.595    -5380142.16349  -4179956.86645  23965619.937    23965639.330
       216.000         157.000
  20449343.875   -24996267.50249 -19457488.31348  20449343.404    20449352.619
       240.000         214.000
  24265898.578    -4892770.36649  -3790144.38945  24265897.819    24265916.260
       210.000         145.000
 02  3 22  0 35  0.0000000  0 10G 6G23G26G21G15G17G29G22G18G 3
  21701858.076   -19017016.79949 -14543657.96447  21701858.486    21701871.588
       233.000         192.000
  22709230.383    -9493225.50849  -7369274.52646  22709230.097    22709243.404
       227.000         180.000
  22532691.282   -14852546.47949 -10261158.78846  22532692.422    22532704.691
       222.000         174.000
  22102557.156   -18258760.55149 -14212122.72347  22102556.738    22102569.820
       235.000         193.000
  20865769.822   -23703735.74249 -18458285.60147  20865768.979    20865780.410
       240.000         206.000
  20917638.983   -25086462.16649 -19535177.48947  20917638.380    20917649.491
       239.000         206.000
  21419509.416   -18681369.79549 -14545227.02547  21419508.853    21419521.077
       235.000         195.000
  23972236.016    -5345378.06849  -4152868.06845  23972235.547    23972253.616
       216.000         155.000
  20450066.943   -24992467.48349 -19454527.22548  20450066.504    20450075.592
       240.000         214.000
  24247263.595    -4990696.14549  -3866449.87245  24247262.120    24247281.649
       209.000         143.000
 02  3 22  0 35 30.0000000  0 10G 6G23G26G21G15G17G29G22G18G 3
  21717245.696   -18936154.43649 -14480648.46147  21717245.724    21717258.917
       234.000         192.000
  22723611.140    -9417654.79549  -7310388.33746  22723611.141    22723623.339
       229.000         180.000
  22544608.162   -14789923.62749 -10212361.80446  22544608.093    22544621.689
       224.000         174.000
  22094557.519   -18300798.49849 -14244879.43747  22094557.016    22094569.803
       236.000         193.000
  20861759.048   -23724812.05949 -18474708.66147  20861758.325    20861769.644
       242.000         206.000
  20916601.162   -25091915.71049 -19539426.98147  20916600.799    20916611.730
       240.000         206.000
  21406037.511   -18752164.59149 -14600391.63147  21406037.019    21406048.748
       237.000         195.000
  23978920.144    -5310252.52449  -4125497.62045  23978919.839    23978938.483
       215.000         153.000
  20450862.612   -24988286.20049 -19451269.05048  20450861.973    20450871.199
       241.000         215.000
  24228658.865    -5088463.11949  -3942631.59745  24228657.449    24228677.603
       208.000         144.000
 02  3 22  0 36  0.0000000  0 10G 6G23G26G21G15G17G29G22G18G 3
  21732704.563   -18854917.65749 -14417347.19747  21732705.211    21732718.232
       233.000         191.000
  22738003.449    -9342023.63749  -7251455.03546  22738003.608    22738015.794
       227.000         180.000
  22556626.087   -14726768.80249 -10163150.34646  22556626.472    22556640.220
       223.000         175.000
  22086613.247   -18342545.62649 -14277409.53447  22086612.336    22086626.076
       235.000         193.000
  20857776.442   -23745740.78249 -18491016.71147  20857775.792    20857786.761
       241.000         206.000
  20915589.892   -25097229.93149 -19543567.89847  20915589.509    20915600.396
       239.000         206.000
  21392639.177   -18822572.66749 -14655254.89847  21392638.754    21392650.697
       236.000         195.000
  23985672.681    -5274767.88249  -4097847.36345  23985672.454    23985690.664
       214.000         154.000
  20451730.455   -24983725.28449 -19447715.06048  20451730.142    20451739.238
       240.000         214.000
  24210084.894    -5186068.92249  -4018687.75645  24210084.317    24210102.920
       208.000         147.000
 02  3 22  0 36 30.0000000  0 10G 6G23G26G21G15G17G29G22G18G 3
  21748234.182   -18773309.53549 -14353756.57747  21748234.461    21748247.792
       233.000         191.000
  22752406.640    -9266335.06449  -7192476.99646  22752406.057    22752419.098
       228.000         179.000
  22568744.624   -14663085.54549 -10113527.09246  22568745.163    22568757.281
       225.000         174.000
  22078723.915   -18384003.69949 -14309714.39547  22078723.418    22078736.436
       236.000         193.000
  20853821.761   -23766522.60549 -18507210.29447  20853821.140    20853832.202
       241.000         206.000
  20914605.051   -25102405.32249 -19547600.64147  20914604.750    20914615.829
       240.000         206.000
  21379314.629   -18892592.72149 -14709815.80647  21379314.149    21379326.083
       236.000         196.000
  23992492.987    -5238927.78649  -4069920.10645  23992493.033    23992511.407
       215.000         155.000
  20452670.081   -24978787.37349 -19443867.30248  20452669.512    20452679.024
       241.000         215.000
  24191541.772    -5283512.28649  -4094617.33045  24191539.965    24191559.645
       208.000         149.000
 02  3 22  0 37  0.0000000  0 10G 6G23G26G21G15G17G29G22G18G 3
  21763834.487   -18691329.87549 -14289876.45547  21763834.761    21763848.057
       232.000         191.000
  22766820.620    -9190588.68049  -7133453.92346  22766820.318    22766833.900
       228.000         179.000
  22580963.856   -14598873.71149 -10063491.97246  22580964.074    22580978.130
       224.000         174.000
  22070890.038   -18425170.50649 -14341792.30447  22070889.421    22070902.459
       236.000         193.000
  20849895.554   -23787154.56349 -18523287.10147  20849894.818    20849906.053
       241.000         206.000
  20913647.286   -25107438.80149 -19551522.80747  20913646.824    20913657.819
       240.000         206.000
  21366064.890   -18962219.98649 -14764070.65747  21366064.611    21366076.632
       236.000         196.000
  23999380.872    -5202732.24449  -4041715.89345  23999380.195    23999399.026
       213.000         155.000
  20453681.650   -24973471.57249 -19439725.09448  20453681.341    20453690.569
       241.000         214.000
  24173030.392    -5380788.65149  -4170416.77045  24173028.830    24173047.947
       208.000         148.000
 02  3 22  0 37 30.0000000  0 10G 6G23G26G21G15G17G29G22G18G 3
  21779504.921   -18608981.73449 -14225709.20247  21779505.782    21779518.462
       233.000         190.000
  22781245.265    -9114787.25049  -7074387.94746  22781245.222    22781257.564
       229.000         179.000
  22593283.035   -14534136.67649 -10013047.59146  22593283.625    22593296.708
       224.000         175.000
  22063111.200   -18466047.90349 -14373644.69947  22063110.586    22063124.024
       237.000         194.000
  20845997.815   -23807637.04049 -18539247.42747  20845997.216    20846008.235
       242.000         206.000
  20912716.363   -25112330.50749 -19555334.49947  20912716.208    20912726.758
       241.000         206.000
  21352890.104   -19031453.32849 -14818018.54947  21352889.782    21352901.520
       237.000         196.000
  24006335.630    -5166184.68449  -4013237.37345  24006334.720    24006354.746
       216.000         155.000
  20454764.626   -24967780.34549 -19435290.34048  20454764.401    20454773.704
       242.000         214.000
  24154551.081    -5477896.49649  -4246084.87145  24154549.863    24154568.510
       208.000         148.000
 02  3 22  0 38  0.0000000  0 10G 6G23G26G21G15G17G29G22G18G 3
  21795244.997   -18526267.36049 -14161256.57347  21795245.126    21795258.287
       232.000         190.000
  22795679.898    -9038933.01349  -7015280.81546  22795679.929    22795692.675
       229.000         180.000
  22605701.463   -14468876.90949  -9962195.89646  22605702.288    22605714.714
       225.000         174.000
  22055387.191   -18506637.44749 -14405272.79147  22055386.733    22055399.452
       237.000         194.000
  20842128.672   -23827969.46149 -18555090.82747  20842128.125    20842138.917
       242.000         206.000
  20911812.569   -25117080.02349 -19559035.39147  20911812.214    20911823.034
       240.000         206.000
  21339790.713   -19100290.36849 -14871657.62647  21339790.291    21339802.251
       236.000         196.000
  24013356.975    -5129287.78049  -3984486.64945  24013357.239    24013375.663
       215.000         154.000
  20455918.750   -24961715.28049 -19430564.28148  20455918.332    20455927.529
       241.000         215.000
  24136104.270    -5574833.77349  -4321620.09645  24136103.423    24136121.909
       213.000         150.000
 02  3 22  0 38 30.0000000  0 10G 6G23G26G21G15G17G29G22G18G 3
  21811054.528   -18443188.13949 -14096519.65147  21811054.831    21811068.151
       233.000         190.000
  22810124.299    -8963027.23049  -6956133.56146  22810123.450    22810137.969
       227.000         179.000
  22618219.258   -14403096.35049  -9910938.39046  22618219.852    22618232.532
       226.000         175.000
  22047718.008   -18546938.81349 -14436676.32647  22047717.323    22047730.034
       237.000         194.000
  20838288.199   -23848151.06049 -18570816.70447  20838287.604    20838298.668
       243.000         206.000
  20910936.095   -25121686.07449 -19562624.49047  20910935.830    20910946.686
       241.000         206.000
  21326767.264   -19168728.39849 -14924985.79247  21326766.347    21326778.659
       237.000         197.000
  24020444.391    -5092043.45849  -3955465.21245  24020444.632    24020463.189
       215.000         154.000
  20457143.806   -24955277.38149 -19425547.70048  20457143.584    20457152.634
       242.000         215.000
  24117690.558    -5671597.74249  -4397020.30545  24117690.230    24117708.269
       218.000         154.000
 02  3 22  0 39  0.0000000  0 10G 6G23G26G21G15G17G29G22G18G 3
  21826933.064   -18359746.52549 -14031500.35047  21826933.308    21826946.789
       232.000         189.000
  22824578.182    -8887072.18749  -6896947.87346  22824577.464    22824590.506
       228.000         178.000
  22630835.546   -14336797.65149  -9859277.10346  22630835.509    22630849.360
       223.000         173.000
  22040103.451   -18586952.97449 -14467856.07747  22040103.014    22040115.605
       236.000         194.000
  20834476.531   -23868181.56349 -18586424.84747  20834476.042    20834487.003
       242.000         206.000
  20910086.933   -25126148.33549 -19566101.55547  20910086.278    20910097.745
       240.000         207.000
  21313820.064   -19236765.51549 -14978001.56847  21313819.510    21313831.385
       237.000         197.000
  24027597.424    -5054454.52149  -3926175.22945  24027596.601    24027616.153
       214.000         154.000
  20458439.405   -24948468.80549 -19420242.28348  20458439.077    20458448.150
       242.000         215.000
  24099310.192    -5768186.32049  -4472283.84145  24099309.535    24099327.575
       215.000         157.000
 02  3 22  0 39 30.0000000  0 10G 6G23G26G21G15G17G29G22G18G 3
  21842880.300   -18275943.69849 -13966199.58047  21842880.918    21842893.728
       233.000         189.000
  22839041.207    -8811068.59749  -6837724.39546  22839041.431    22839054.717
       231.000         179.000
  22643550.070   -14269982.27049  -9807213.25446  22643551.895    22643564.186
       228.000         175.000
  22032543.719   -18626679.17249 -14498811.43547  22032542.818    22032555.914
       237.000         194.000
  20830693.916   -23888059.23349 -18601913.89847  20830692.931    20830704.208
       243.000         206.000
  20909265.421   -25130465.06549 -19569465.21547  20909264.727    20909275.853
       241.000         206.000
  21300949.825   -19304398.34749 -15030702.30947  21300949.210    21300961.335
       237.000         197.000
  24034815.794    -5016522.52249  -3896617.95245  24034814.644    24034834.694
       216.000         155.000
  20459805.457   -24941289.86449 -19414648.27548  20459805.052    20459814.081
       243.000         215.000
  24080963.783    -5864596.09149  -4547408.02545  24080962.417    24080981.473
       212.000         156.000
 02  3 22  0 40  0.0000000  0 10G 6G23G26G21G15G17G29G22G18G 3
  21858895.883   -18191781.85049 -13900619.06447  21858896.101    21858909.424
       232.000         189.000
  22853513.259    -8735018.45649  -6778464.62046  22853511.903    22853525.774
       226.000         179.000
  22656362.560   -14202652.70249  -9754748.71446  22656363.016    22656376.089
       222.000         173.000
  22025038.550   -18666118.43249 -14529543.20747  22025037.993    22025050.846
       236.000         194.000
  20826940.470   -23907783.61349 -18617283.50047  20826939.770    20826950.982
       242.000         206.000
  20908471.722   -25134635.47149 -19572714.85247  20908471.386    20908482.297
       240.000         206.000
  21288156.929   -19371624.64749 -15083086.27547  21288156.076    21288168.195
       237.000         197.000
  24042098.844    -4978249.97849  -3866795.29745  24042098.282    24042118.583
       215.000         155.000
  20461241.761   -24933742.09349 -19408766.86248  20461241.447    20461250.533
       241.000         215.000
  24062651.812    -5960824.99949  -4622391.24245  24062651.333    24062669.112
       209.000         153.000
 02  3 22  0 40 30.0000000  0 10G 6G23G26G21G15G17G29G22G18G 3
  21874979.276   -18107263.67649 -13834760.88147  21874979.667    21874993.426
       231.000         188.000
  22867993.438    -8658924.04449  -6719170.37346  22867993.647    22868006.029
       228.000         178.000
  22669272.309   -14134811.92549  -9701885.80346  22669271.480    22669285.757
       223.000         173.000
  22017587.773   -18705271.98549 -14560052.34547  22017587.282    22017600.312
       236.000         195.000
  20823216.100   -23927354.69349 -18632533.64447  20823215.418    20823226.473
       242.000         206.000
  20907705.876   -25138659.53149 -19575850.45647  20907705.387    20907716.619
       239.000         206.000
  21275441.671   -19438442.99749 -15135152.35747  21275441.159    21275453.025
       237.000         198.000
  24049446.148    -4939640.11549  -3836709.80845  24049445.445    24049464.986
       212.000         154.000
  20462747.750   -24925827.90249 -19402599.92748  20462747.455    20462756.402
       241.000         215.000
  24044374.552    -6056871.33449  -4697232.22145  24044374.306    24044390.735
       211.000         150.000
 02  3 22  0 41  0.0000000  0 10G 6G23G26G21G15G17G29G22G18G 3
  21891130.368   -18022389.79849 -13768625.52347  21891130.476    21891144.446
       230.000         188.000
  22882482.166    -8582785.73249  -6659841.90046  22882482.257    22882494.235
       227.000         177.000
  22682278.909   -14066460.85449  -9648625.29646  22682279.685    22682293.420
       224.000         172.000
  22010191.558   -18744138.93049 -14590338.15047  22010190.982    22010203.917
       236.000         195.000
  20819521.389   -23946770.26449 -18647662.61647  20819520.776    20819531.982
       241.000         206.000
  20906968.406   -25142534.76049 -19578870.09347  20906968.167    20906979.203
       240.000         207.000
  21262804.799   -19504849.50549 -15186897.52847  21262804.277    21262816.060
       236.000         198.000
  24056857.303    -4900693.79549  -3806362.13245  24056855.895    24056876.823
       213.000         153.000
  20464323.456   -24917547.21949 -19396147.41748  20464322.954    20464332.176
       241.000         215.000
  24026132.808    -6152731.20149  -4771927.96945  24026131.545    24026148.614
       209.000         145.000
 02  3 22  0 41 30.0000000  0 10G 6G23G26G21G15G17G29G22G18G 3
  21907348.502   -17937163.41049 -13702215.48247  21907349.098    21907362.314
       232.000         188.000
  22896978.772    -8506606.53749  -6600481.53946  22896978.242    22896991.540
       228.000         178.000
  22695382.315   -13997603.31749  -9594970.13146  22695382.564    22695395.666
       224.000         174.000
  22002849.507   -18782721.19149 -14620402.12747  22002849.244    22002861.888
       237.000         195.000
  20815856.150   -23966031.13949 -18662671.04447  20815855.573    20815866.723
       242.000         206.000
  20906259.191   -25146261.77049 -19581774.23247  20906258.768    20906269.891
       240.000         206.000
  21250246.558   -19570843.00049 -15238320.86947  21250246.510    21250257.684
       237.000         198.000
  24064331.785    -4861414.79949  -3775755.23745  24064331.310    24064350.830
       214.000         153.000
  20465968.415   -24908902.71949 -19389411.41048  20465968.245    20465977.138
       242.000         215.000
  24007926.688    -6248403.52949  -4846477.56545  24007925.419    24007942.903
       205.000         140.000
 02  3 22  0 42  0.0000000  0 10G 6G23G26G21G15G17G29G22G18G 3
  21923633.578   -17851585.32849 -13635531.40746  21923633.464    21923647.388
       231.000         187.000
  22911482.770    -8430386.87349  -6541089.71446  22911481.811    22911495.905
       224.000         176.000
  22708581.556   -13928240.38249  -9540921.13946  22708581.436    22708596.137
       222.000         171.000
  21995561.853   -18821017.48549 -14650243.28047  21995561.320    21995573.965
       237.000         195.000
  20812220.678   -23985135.44749 -18677557.48047  20812219.840    20812231.383
       242.000         206.000
  20905578.554   -25149838.40249 -19584561.19647  20905578.000    20905589.108
       240.000         206.000
  21237767.495   -19636420.10949 -15289419.76647  21237767.080    21237779.145
       237.000         199.000
  24071869.374    -4821804.43749  -3744890.14645  24071869.322    24071889.134
       213.000         154.000
  20467682.589   -24899894.59849 -19382392.07248  20467682.338    20467691.333
       241.000         215.000
  23989756.826    -6343884.81949  -4920878.21745  23989755.958    23989773.599
       212.000         144.000
 02  3 22  0 42 30.0000000  0 10G 6G23G26G21G15G17G29G22G18G 3
  21939984.953   -17765658.77349 -13568575.79146  21939985.224    21939999.044
       229.000         187.000
  22925994.117    -8354129.57849  -6481668.50446  22925993.895    22926006.681
       226.000         175.000
  22721876.480   -13858375.52949  -9486481.08446  22721877.442    22721890.418
       226.000         172.000
  21988328.131   -18859030.33249 -14679863.55147  21988327.538    21988340.043
       236.000         195.000
  20808614.967   -24004083.35049 -18692322.03947  20808614.536    20808625.538
       241.000         207.000
  20904926.517   -25153264.85449 -19587231.13147  20904926.311    20904937.141
       239.000         206.000
  21225367.991   -19701579.51049 -15340193.17147  21225367.964    21225379.247
       237.000         199.000
  24079469.510    -4781866.13349  -3713769.50845  24079469.060    24079489.291
       213.000         154.000
  20469465.459   -24890525.52049 -19375091.46348  20469465.114    20469474.290
       241.000         215.000
  23971623.878    -6439173.27649  -4995128.66345  23971622.801    23971640.968
       217.000         154.000
 02  3 22  0 43  0.0000000  0 10G 6G23G26G21G15G17G29G22G18G 3
  21956402.303   -17679385.50649 -13501350.01446  21956402.939    21956416.403
       231.000         186.000
  22940512.273    -8277835.86249  -6422218.96946  22940512.903    22940525.861
       226.000         175.000
  22735266.556   -13788010.86049  -9431651.50546  22735267.132    22735280.413
       225.000         171.000
  21981148.430   -18896759.31249 -14709262.62847  21981147.838    21981160.910
       236.000         195.000
  20805039.256   -24022873.75849 -18706963.87047  20805038.462    20805049.901
       242.000         207.000
  20904303.316   -25156539.89449 -19589783.08647  20904302.532    20904313.745
       240.000         206.000
  21213048.414   -19766318.79149 -15390639.20947  21213048.112    21213059.637
       236.000         199.000
  24087131.584    -4741602.08049  -3682395.04545  24087129.477    24087151.568
       211.000         154.000
  20471316.791   -24880796.68049 -19367510.51748  20471316.333    20471325.523
       241.000         214.000
  23953528.209    -6534266.26549  -5069226.81545  23953527.508    23953545.154
       217.000         159.000
 02  3 22  0 43 30.0000000  0 10G 6G23G26G21G15G17G29G22G18G 3
  21972885.429   -17592766.99749 -13433855.21346  21972885.348    21972899.082
       230.000         186.000
  22955037.433    -8201507.07949  -6362742.04946  22955037.158    22955049.081
       227.000         175.000
  22748751.127   -13717148.20749  -9376433.94846  22748750.838    22748765.791
       222.000         171.000
  21974022.686   -18934204.79749 -14738440.80747  21974022.071    21974034.798
       236.000         195.000
  20801493.722   -24041505.45849 -18721482.03847  20801492.846    20801504.142
       242.000         207.000
  20903709.202   -25159662.08849 -19592215.94947  20903708.704    20903719.561
       240.000         206.000
  21200809.363   -19830634.84449 -15440755.46047  21200809.025    21200820.569
       238.000         200.000
  24094855.296    -4701014.19849  -3650768.24245  24094855.069    24094875.641
       215.000         155.000
  20473236.347   -24870709.09649 -19359650.03948  20473235.964    20473245.084
       242.000         214.000
  23935470.164    -6629160.93649  -5143170.44145  23935469.030    23935487.016
       211.000         156.000
 02  3 22  0 44  0.0000000  0 10G 6G23G26G21G15G17G29G22G18G 3
  21989433.693   -17505805.70349 -13366093.31346  21989434.311    21989447.700
       230.000         186.000
  22969568.561    -8125145.04849  -6303239.26546  22969568.758    22969581.573
       225.000         174.000
  22762330.097   -13645790.44549  -9320830.57746  22762331.166    22762343.240
       224.000         171.000
  21966950.741   -18971367.75949 -14767398.83747  21966950.207    21966962.637
       236.000         195.000
  20797978.460   -24059978.00249 -18735876.18847  20797978.259    20797988.921
       242.000         207.000
  20903144.205   -25162630.96049 -19594529.33047  20903143.715    20903154.737
       239.000         206.000
  21188651.199   -19894525.90849 -15490540.55847  21188650.852    21188662.361
       237.000         200.000
  24102640.039    -4660105.37349  -3618891.38545  24102640.199    24102659.574
       214.000         153.000
  20475223.830   -24860264.73449 -19351511.55248  20475223.558    20475232.518
       241.000         214.000
  23917450.089    -6723855.20749  -5216957.86745  23917448.085    23917467.490
       211.000         151.000
 02  3 22  0 44 30.0000000  0 10G 6G23G26G21G15G17G29G22G18G 3
  22006046.838   -17418503.68749 -13298065.91046  22006047.430    22006060.878
       231.000         186.000
  22984105.902    -8048751.56949  -6243711.95946  22984105.125    22984118.748
       225.000         175.000
  22776003.073   -13573939.98549  -9264843.24546  22776003.291    22776017.332
       224.000         170.000
  21959932.327   -19008249.18949 -14796137.48947  21959931.826    21959944.579
       236.000         195.000
  20794493.726   -24078290.46249 -18750145.59947  20794492.842    20794504.070
       241.000         207.000
  20902608.559   -25165445.50449 -19596722.45847  20902608.405    20902619.141
       241.000         206.000
  21176574.343   -19957989.71149 -15539992.72247  21176573.923    21176585.120
       237.000         200.000
  24110485.363    -4618877.88049  -3586766.20445  24110484.899    24110505.946
       211.000         153.000
  20477278.988   -24849464.78449 -19343095.98448  20477278.605    20477287.598
       241.000         215.000
  23899468.728    -6818346.57849  -5290587.22045  23899467.913    23899486.062
       217.000         157.000
 02  3 22  0 45  0.0000000  0 10G 6G23G26G21G15G17G29G22G18G 3
  22022724.316   -17330863.35349 -13229774.88046  22022724.705    22022738.420
       232.000         185.000
  22998648.625    -7972328.42449  -6184161.54946  22998648.567    22998661.727
       229.000         175.000
  22789768.971   -13501599.61949  -9208474.21946  22789768.442    22789784.084
       223.000         170.000
  21952967.392   -19044849.64449 -14824657.20147  21952966.448    21952979.296
       238.000         195.000
  20791039.483   -24096442.50649 -18764290.00047  20791038.603    20791049.849
       243.000         207.000
  20902102.503   -25168105.05349 -19598794.80047  20902101.756    20902113.015
       242.000         206.000
  21164579.159   -20021024.21349 -15589110.36247  21164578.687    21164589.807
       239.000         200.000
  24118390.886    -4577334.59249  -3554394.93145  24118390.006    24118410.880
       212.000         152.000
  20479401.411   -24838311.17849 -19334404.83748  20479400.806    20479409.869
       243.000         215.000
  23881526.560    -6912632.70549  -5364056.66245  23881526.173    23881543.298
       218.000         161.000
 02  3 22  0 45 30.0000000  0 10G 6G23G26G21G15G17G29G22G18G 3
  22039466.015   -17242885.80049 -13161221.09846  22039466.615    22039479.636
       231.000         185.000
  23013197.325    -7895876.38549  -6124588.60046  23013197.075    23013210.636
       226.000         176.000
  22803627.771   -13428770.72049  -9151724.51246  22803629.226    22803641.971
       227.000         170.000
  21946055.987   -19081168.81849 -14852957.74347  21946055.332    21946067.929
       238.000         196.000
  20787616.095   -24114432.31249 -18778307.99147  20787615.243    20787626.489
       243.000         207.000
  20901626.296   -25170607.73749 -19600744.92247  20901625.866    20901636.952
       241.000         206.000
  21152666.282   -20083626.20149 -15637890.98747  21152665.714    21152677.199
       238.000         200.000
  24126356.184    -4535477.05849  -3521778.80145  24126356.751    24126375.985
       211.000         152.000
  20481591.046   -24826804.54649 -19325438.61648  20481590.790    20481599.614
       243.000         215.000
  23863623.927    -7006710.39049  -5437363.66845  23863622.958    23863639.702
       209.000         156.000
 02  3 22  0 46  0.0000000  0 10G 6G23G26G21G15G17G29G22G18G 3
  22056271.377   -17154573.69149 -13092406.61146  22056271.631    22056284.943
       229.000         185.000
  23027750.689    -7819397.36249  -6064994.64046  23027750.650    23027762.954
       224.000         173.000
  22817579.261   -13355456.40949  -9094596.55446  22817578.599    22817592.396
       218.000         168.000
  21939198.003   -19117207.46949 -14881039.70147  21939197.580    21939210.046
       236.000         196.000
  20784223.633   -24132259.62049 -18792199.36047  20784223.152    20784233.914
       242.000         207.000
  20901180.010   -25172953.09249 -19602572.45147  20901179.385    20901190.445
       239.000         206.000
  21140835.998   -20145793.99249 -15686333.28147  21140835.304    21140846.935
       236.000         201.000
  24134380.613    -4493308.21649  -3488920.09145  24134380.006    24134400.924
       213.000         151.000
  20483847.489   -24814946.74049 -19316198.75348  20483847.148    20483856.206
       241.000         215.000
  23845761.252    -7100577.34849  -5510506.48145  23845760.334    23845777.282
       211.000         148.000
 02  3 22  0 46 30.0000000  0 10G 6G23G26G21G15G17G29G22G18G 3
  22073139.945   -17065929.20449 -13023333.12746  22073140.233    22073153.840
       230.000         184.000
  23042309.071    -7742893.18749  -6005381.06946  23042308.722    23042321.083
       225.000         174.000
  22831622.295   -13281659.11649  -9037092.22746  22831623.246    22831636.405
       224.000         167.000
  21932393.182   -19152966.71849 -14908903.94247  21932392.411    21932404.798
       238.000         196.000
  20780862.283   -24149923.81749 -18805963.62747  20780861.609    20780872.235
       243.000         207.000
  20900763.744   -25175140.19749 -19604276.66347  20900763.123    20900774.096
       240.000         206.000
  21129088.755   -20207525.42349 -15734435.54547  21129088.357    21129099.601
       238.000         201.000
  24142463.964    -4450830.75649  -3455820.89745  24142462.561    24142483.141
       212.000         150.000
  20486170.467   -24802739.33149 -19306686.47048  20486169.880    20486178.886
       242.000         215.000
  23827939.307    -7194231.32949  -5583483.41845  23827938.481    23827955.261
       216.000         150.000
 02  3 22  0 47  0.0000000  0 10G 6G23G26G21G15G17G29G22G18G 3
  22090071.328   -16976954.88549 -12954002.63546  22090071.342    22090084.814
       229.000         184.000
  23056871.805    -7666365.60849  -5945749.28246  23056872.190    23056885.302
       225.000         173.000
  22845756.903   -13207381.76649  -8979213.89946  22845758.520    22845770.706
       225.000         170.000
  21925641.347   -19188447.36749 -14936551.08947  21925640.515    21925653.297
       237.000         196.000
  20777532.053   -24167424.20549 -18819600.24947  20777531.394    20777542.369
       243.000         207.000
  20900377.723   -25177168.45749 -19605857.09947  20900377.380    20900388.001
       241.000         206.000
  21117424.950   -20268818.60449 -15782196.31647  21117424.661    21117436.201
       238.000         201.000
  24150605.394    -4408047.35649  -3422483.30645  24150604.864    24150625.902
       209.000         150.000
  20488559.600   -24790184.21849 -19296903.24648  20488559.405    20488568.321
       243.000         215.000
  23810158.389    -7287670.19349  -5656292.67745  23810157.281    23810175.177
       213.000         156.000
 02  3 22  0 47 30.0000000  0 10G 6G23G26G21G15G17G29G22G18G 3
  22107064.976   -16887653.14749 -12884417.01146  22107065.287    22107078.956
       228.000         183.000
  23071438.802    -7589816.56249  -5886100.74346  23071437.906    23071451.396
       224.000         174.000
  22859982.433   -13132627.32949  -8920963.71946  22859981.454    22859994.960
       220.000         167.000
  21918942.309   -19223650.66949 -14963982.12847  21918941.443    21918953.821
       236.000         196.000
  20774233.016   -24184760.38449 -18833108.91447  20774232.088    20774243.156
       241.000         207.000
  20900022.167   -25179037.24849 -19607313.27647  20900021.766    20900032.570
       240.000         206.000
  21105844.851   -20329671.84949 -15829614.28347  21105844.548    21105855.525
       237.000         201.000
  24158804.384    -4364961.11249  -3388909.75245  24158804.338    24158824.585
       211.000         150.000
  20491014.591   -24777283.16749 -19286850.45948  20491014.316    20491023.247
       241.000         215.000
  23792418.627    -7380891.67549  -5728932.48845  23792416.942    23792434.877
       210.000         155.000
 02  3 22  0 48  0.0000000  0 11G 6G23G26G21G15G17G29G14G22G18G 3
  22124121.003   -16798023.37049 -12814575.76946  22124121.589    22124135.370
       229.000         183.000
  23086009.949    -7513244.84049  -5826434.56646  23086009.918    23086023.526
       225.000         174.000
  22874298.490   -13057395.43649  -8862341.57346  22874299.392    22874313.281
       223.000         168.000
  21912296.466   -19258574.23149 -14991195.19347  21912296.153    21912308.213
       237.000         196.000
  20770965.968   -24201928.73449 -18846486.80647  20770965.100    20770976.180
       242.000         207.000
  20899697.609   -25180742.80549 -19608642.26247  20899696.761    20899708.094
       240.000         206.000
  21094349.471   -20390080.02449 -15876685.44447  21094349.426    21094360.317
       239.000         202.000
                   -524012.64649   -396891.56443
       204.000          74.000
  24167061.182    -4321571.67349  -3355099.92745  24167060.142    24167082.530
       210.000         150.000
  20493535.597   -24764035.06049 -19276527.25048  20493535.331    20493544.411
       242.000         215.000
  23774721.292    -7473890.36749  -5801398.73345  23774720.464    23774737.041
       216.000         154.000
 02  3 22  0 48 30.0000000  0 11G 6G23G26G21G15G17G29G14G22G18G 3
  22141238.472   -16708070.70149 -12744482.93746  22141239.139    22141252.659
       228.000         183.000
  23100584.636    -7436655.01349  -5766754.27346  23100584.388    23100597.947
       225.000         174.000
  22888704.426   -12981691.62649  -8803351.65846  22888705.109    22888717.326
       222.000         166.000
  21905703.220   -19293221.40449 -15018192.88747  21905702.698    21905715.256
       236.000         196.000
  20767730.383   -24218931.41249 -18859735.60447  20767729.890    20767740.648
       242.000         207.000
  20899403.620   -25182287.10749 -19609845.59347  20899403.114    20899414.082
       240.000         206.000
  21082938.589   -20450044.07449 -15923410.53747  21082937.946    21082949.247
       238.000         202.000
                   -636058.78249   -484158.52743
       204.000          74.000
  24175374.657    -4277884.49249  -3321058.12045  24175375.156    24175396.026
       211.000         151.000
  20496121.823   -24750444.40449 -19265937.12148  20496121.610    20496130.506
       242.000         215.000
  23757066.381    -7566666.96649  -5873692.01845  23757065.776    23757082.029
       218.000         155.000
 02  3 22  0 49  0.0000000  0 11G 6G23G26G21G15G17G29G14G22G18G 3
  22158417.172   -16617796.72849 -12674139.72546  22158417.457    22158431.248
       230.000         182.000
  23115162.640    -7360047.77649  -5707060.39446  23115162.786    23115175.944
       225.000         173.000
  22903199.947   -12905517.92449  -8743995.60346  22903200.284    22903214.732
       223.000         169.000
  21899162.422   -19327592.51849 -15044975.47247  21899161.796    21899174.436
       237.000         196.000
  20764526.724   -24235766.81049 -18872854.05347  20764526.038    20764536.861
       243.000         207.000
  20899140.658   -25183668.67249 -19610922.11247  20899140.166    20899151.099
       241.000         206.000
  21071612.721   -20509561.22349 -15969787.39947  21071612.386    21071623.459
       239.000         202.000
                   -748116.18549   -571410.14243
       206.000          74.000
  24183744.352    -4233901.53949  -3286785.83745  24183744.282    24183766.067
       211.000         151.000
  20498773.016   -24736512.11749 -19255080.78148  20498772.645    20498781.669
       242.000         215.000
  23739454.342    -7659218.46949  -5945809.84045  23739453.508    23739470.561
       214.000         156.000
 02  3 22  0 49 30.0000000  0 11G 6G23G26G21G15G17G29G14G22G18G 3
  22175656.717   -16527202.91349 -12603547.28746  22175657.142    22175671.123
       227.000         182.000
  23129743.670    -7283424.14349  -5647353.77046  23129743.372    23129756.858
       222.000         173.000
  22917784.385   -12828876.14349  -8684274.83846  22917784.438    22917799.078
       220.000         167.000
  21892674.227   -19361687.72449 -15071543.05847  21892673.777    21892686.416
       237.000         197.000
  20761355.043   -24252433.60549 -18885841.11947  20761354.144    20761365.148
       242.000         207.000
  20898909.098   -25184885.79149 -19611870.49647  20898908.547    20898919.218
       241.000         206.000
  21060372.469   -20568628.64849 -16015813.82447  21060372.268    21060382.977
       239.000         202.000
                   -537778.80649   -403266.70343
       207.000          74.000
  24192170.103    -4189624.69849  -3252284.54145  24192169.619    24192190.457
       211.000         151.000
  20501489.036   -24722239.11449 -19243958.94648  20501488.675    20501497.661
       242.000         215.000
  23721885.588    -7751541.69249  -6017749.72145  23721884.651    23721901.386
       214.000         157.000
 02  3 22  0 50  0.0000000  0 11G 6G23G26G21G15G17G29G14G22G18G 3
  22192956.549   -16436292.20349 -12532707.92246  22192956.816    22192971.152
       228.000         181.000
  23144327.397    -7206786.48449  -5587636.20546  23144327.136    23144339.845
       223.000         172.000
  22932457.320   -12751769.80549  -8624192.06246  22932458.679    22932469.798
       226.000         166.000
  21886238.310   -19395508.32549 -15097896.67747  21886238.013    21886250.534
       237.000         197.000
  20758215.493   -24268931.68249 -18898696.71547  20758214.867    20758225.926
       243.000         207.000
  20898708.865   -25185938.27349 -19612690.59447  20898708.645    20898719.356
       240.000         206.000
  21049218.028   -20627245.06749 -16061488.82247  21049217.770    21049228.675
       239.000         202.000
                   -649850.64349   -490593.36843
       205.000          74.000
  24200651.109    -4145057.29549  -3217556.85745  24200650.838    24200672.690
       213.000         152.000
  20504269.514   -24707627.75649 -19232573.45948  20504269.280    20504278.191
       243.000         215.000
  23704360.644    -7843634.81149  -6089510.35245  23704359.983    23704376.452
       218.000         159.000
 02  3 22  0 50 30.0000000  0 11G 6G23G26G21G15G17G29G14G22G18G 3
  22210316.531   -16345065.50149 -12461622.33646  22210316.868    22210331.446
       227.000         181.000
  23158913.769    -7130134.94349  -5527907.81146  23158913.658    23158926.670
       224.000         172.000
  22947218.686   -12674200.10949  -8563748.17046  22947217.522    22947233.221
       218.000         167.000
  21879854.781   -19429053.79849 -15124035.90047  21879854.112    21879866.535
       237.000         197.000
  20755108.514   -24285258.92549 -18911419.19147  20755107.848    20755118.489
       242.000         207.000
  20898540.331   -25186823.81649 -19613380.60547  20898539.562    20898550.756
       241.000         206.000
  21038150.077   -20685407.13149 -16106809.77747  21038149.552    21038160.887
       239.000         203.000
                   -761925.26149   -577919.52943
       204.000          74.000
  24209187.329    -4100200.75849  -3182603.86345  24209187.278    24209208.930
       213.000         152.000
  20507114.307   -24692678.24349 -19220924.47348  20507113.831    20507122.962
       242.000         215.000
  23686880.346    -7935493.98549  -6161088.71645  23686879.684    23686896.130
       216.000         158.000
 02  3 22  0 51  0.0000000  0 10G 6G23G26G21G15G17G29G22G18G 3
  22227735.863   -16253526.91449 -12390293.71446  22227735.769    22227750.602
       228.000         181.000
  23173502.167    -7053473.05349  -5468171.35946  23173501.289    23173514.381
       222.000         172.000
  22962066.742   -12596171.67549  -8502946.93246  22962067.142    22962081.402
       223.000         167.000
  21873523.088   -19462326.70449 -15149962.73747  21873522.046    21873534.579
       237.000         197.000
  20752033.830   -24301416.41049 -18924009.39047  20752032.997    20752043.544
       242.000         207.000
  20898403.394   -25187543.19549 -19613941.13147  20898402.497    20898413.577
       240.000         206.000
  21027168.577   -20743114.69449 -16151776.57447  21027167.915    21027178.979
       238.000         203.000
  24217777.609    -4055059.43249  -3147428.93645  24217777.142    24217798.738
       214.000         152.000
  20510022.747   -24677394.24549 -19209014.84448  20510022.357    20510031.180
       242.000         215.000
  23669444.581    -8027118.64649  -6232484.30545  23669443.995    23669460.169
       216.000         158.000
 02  3 22  0 51 30.0000000  0 11G 6G23G26G21G15G17G29G14G22G18G 3
  22245214.474   -16161676.94249 -12318722.46046  22245215.318    22245228.800
       226.000         180.000
  23188092.343    -6976800.66949  -5408426.74246  23188092.608    23188105.165
       223.000         171.000
  22977002.315   -12517685.67649  -8441789.09546  22977002.742    22977015.091
       219.000         165.000
  21867243.308   -19495326.59749 -15175676.83947  21867242.743    21867255.049
       236.000         197.000
  20748991.949   -24317401.49849 -18936465.26647  20748991.392    20749002.180
       242.000         207.000
  20898298.570   -25188094.03149 -19614370.33747  20898298.379    20898309.062
       240.000         206.000
  21016274.255   -20800364.27249 -16196386.51247  21016273.876    21016285.092
       238.000         203.000
                   -986075.68749   -506189.18043
       205.000          74.000
  24226421.892    -4009634.40949  -3112032.99145  24226421.987    24226441.848
       213.000         152.000
  20512994.886   -24661775.37449 -19196844.28548  20512994.649    20513003.632
       242.000         215.000
  23652054.172    -8118504.74349  -6303693.98645  23652053.664    23652070.395
       216.000         160.000
 02  3 22  0 52  0.0000000  0 11G 6G23G26G21G15G17G29G14G22G18G 3
  22262751.091   -16069521.85449 -12246913.45546  22262751.558    22262766.486
       227.000         180.000
  23202683.699    -6900123.22149  -5348678.15746  23202683.686    23202696.440
       221.000         172.000
  22992023.680   -12438748.55249  -8380279.67446  22992023.783    22992037.768
       220.000         164.000
  21861014.647   -19528058.01949 -15201181.74347  21861014.195    21861026.759
       237.000         198.000
  20745982.290   -24333217.31049 -18948789.23447  20745981.686    20745992.658
       241.000         207.000
  20898225.253   -25188479.13249 -19614670.39747  20898224.840    20898235.513
       239.000         206.000
  21005466.760   -20857157.40849 -16240640.77847  21005466.538    21005477.348
       238.000         204.000
                  -1098148.82449   -593518.20044                  24467031.468
       205.000         115.000
  24235118.987    -3963932.16749  -3076421.01245  24235118.726    24235139.369
       214.000         153.000
  20516029.697   -24645827.42249 -19184417.29548  20516029.568    20516038.183
       242.000         215.000
  23634708.916    -8209653.62949  -6374718.84445  23634708.512    23634724.496
       214.000         159.000
 02  3 22  0 52 30.0000000  0 11G 6G23G26G21G15G17G29G14G22G18G 3
  22280345.859   -15977061.35949 -12174866.45546  22280346.017    22280360.734
       225.000         180.000
  23217275.966    -6823439.46449  -5288924.70246  23217275.904    23217289.146
       219.000         171.000
  23007130.594   -12359360.25449  -8318418.79846  23007131.254    23007144.834
       218.000         164.000
  21854837.467   -19560518.84049 -15226475.78847  21854837.031    21854849.023
       237.000         198.000
  20743005.427   -24348860.44249 -18960978.64247  20743004.777    20743015.656
       242.000         207.000
  20898184.167   -25188695.00449 -19614838.58747  20898183.619    20898194.105
       239.000         206.000
  20994746.953   -20913489.74749 -16284535.98147  20994746.589    20994757.654
       238.000         204.000
  24445681.854    -1210215.80749   -680842.43144  24445681.437    24445705.246
       209.000         130.000
  24243868.846    -3917952.73349  -3040593.05145  24243868.889    24243889.004
       212.000         153.000
  20519127.341   -24629549.22749 -19171732.96648  20519127.054    20519135.930
       241.000         215.000
  23617409.776    -8300560.46849  -6445555.10845  23617408.748    23617424.762
       216.000         157.000
 02  3 22  0 53  0.0000000  0 11G 6G23G26G21G15G17G29G14G22G18G 3
  22297998.559   -15884296.37149 -12102582.20946  22297998.757    22298013.684
       227.000         179.000
  23231869.681    -6746749.54449  -5229166.41246  23231869.381    23231882.638
       222.000         172.000
  23022323.413   -12279522.32349  -8256207.48846  23022323.807    23022337.574
       220.000         165.000
  21848711.957   -19592708.47849 -15251558.51947  21848711.282    21848723.451
       238.000         198.000
  20740061.863   -24364328.69749 -18973031.78147  20740061.234    20740071.789
       243.000         207.000
  20898175.745   -25188739.13849 -19614872.95647  20898175.254    20898186.032
       240.000         206.000
  20984115.518   -20969357.91049 -16328069.48647  20984115.229    20984126.048
       239.000         204.000
  24424357.831    -1322272.80849   -768158.86945  24424356.690    24424379.486
       208.000         135.000
  24252671.049    -3871697.50649  -3004550.17945  24252670.406    24252691.838
       215.000         152.000
  20522287.712   -24612941.14149 -19158791.57848  20522287.256    20522296.254
       242.000         215.000
  23600157.445    -8391221.27149  -6516199.64245  23600157.011    23600172.751
       217.000         159.000
 02  3 22  0 53 30.0000000  0 11G 6G23G26G21G15G17G29G14G22G18G 3
  22315709.038   -15791228.04549 -12030061.59046  22315708.966    22315722.957
       229.000         179.000
  23246464.494    -6670053.74049  -5169403.53746  23246463.878    23246477.401
       222.000         171.000
  23037601.505   -12199236.17449  -8193646.92646  23037601.620    23037615.656
       221.000         165.000
  21842638.206   -19624626.22249 -15276429.38347  21842637.427    21842649.455
       239.000         198.000
  20737152.007   -24379620.10449 -18984947.11047  20737150.969    20737161.854
       243.000         207.000
  20898200.385   -25188609.45749 -19614771.88847  20898199.328    20898210.444
       241.000         206.000
  20973573.016   -21024758.77849 -16371238.86847  20973572.308    20973583.291
       241.000         204.000
  24403036.333    -1434315.87249   -855464.48345  24403034.671    24403058.071
       210.000         136.000
  24261525.510    -3825167.74649  -2968293.39145  24261524.356    24261545.686
       213.000         152.000
  20525510.776   -24596003.78849 -19145593.61648  20525509.995    20525518.817
       244.000         215.000
  23582952.484    -8481632.44349  -6586649.63745  23582951.742    23582967.694
       218.000         160.000
 02  3 22  0 54  0.0000000  0 11G 6G23G26G21G15G17G29G14G22G18G 3
  22333476.857   -15697858.10149 -11957305.94546  22333476.946    22333491.505
       226.000         179.000
  23261060.170    -6593352.98349  -5109636.81046  23261059.783    23261072.630
       221.000         169.000
  23052964.159   -12118504.10649  -8130738.91245  23052964.005    23052978.551
       216.000         160.000
  21836616.024   -19656272.50349 -15301088.73747  21836615.226    21836627.504
       236.000         198.000
  20734276.072   -24394733.01149 -18996723.36847  20734275.510    20734286.260
       241.000         207.000
  20898258.419   -25188304.39549 -19614534.16647  20898257.787    20898268.987
       239.000         206.000
  20963119.897   -21079689.74649 -16414042.10347  20963119.744    20963130.482
       239.000         204.000
  24381718.105    -1546341.98849   -942756.89745  24381715.110    24381739.518
       207.000         137.000
  24270431.689    -3778365.73249  -2931824.47045  24270432.389    24270451.411
       213.000         152.000
  20528796.384   -24578737.82649 -19132139.60648  20528796.080    20528805.024
       242.000         215.000
  23565795.716    -8571790.76549  -6656902.62845  23565794.800    23565811.022
       216.000         161.000
 02  3 22  0 54 30.0000000  0 11G 6G23G26G21G15G17G29G14G22G18G 3
  22351301.540   -15604189.58549 -11884317.65246  22351302.545    22351315.565
       227.000         179.000
  23275656.396    -6516649.36449  -5049867.85246  23275656.588    23275670.664
       222.000         170.000
  23068411.442   -12037329.23449  -8067485.82946  23068412.370    23068426.523
       220.000         166.000
  21830645.183   -19687649.01549 -15325537.87247  21830644.709    21830656.721
       237.000         198.000
  20731434.178   -24409667.08649 -19008360.26847  20731433.807    20731444.305
       242.000         207.000
  20898349.863   -25187823.56549 -19614159.47847  20898349.404    20898360.069
       239.000         206.000
  20952756.455   -21134149.54249 -16456478.18547  20952756.189    20952767.070
       238.000         204.000
  24360403.462    -1658349.13349  -1030034.50245  24360401.155    24360425.518
       207.000         138.000
  24279389.089    -3731294.60849  -2895145.83645  24279389.259    24279409.722
       214.000         151.000
  20532144.000   -24561145.96849 -19118431.64448  20532143.982    20532152.644
       242.000         215.000
  23548687.409    -8661694.56449  -6726957.28545  23548686.603    23548703.260
       214.000         161.000
 02  3 22  0 55  0.0000000  0 11G 6G23G26G21G15G17G29G14G22G18G 3
  22369182.141   -15510227.00249 -11811100.20646  22369182.107    22369197.264
       227.000         179.000
  23290252.583    -6439946.69149  -4990099.61946  23290252.913    23290266.271
       222.000         172.000
  23083941.862   -11955716.65849  -8003891.72646  23083941.200    23083956.159
       215.000         164.000
  21824725.184   -19718758.47249 -15349778.90647  21824724.528    21824736.496
       238.000         198.000
  20728625.976   -24424424.08949 -19019859.17847  20728625.231    20728635.715
       243.000         207.000
  20898474.606   -25187168.21749 -19613648.79647  20898474.087    20898484.738
       241.000         206.000
  20942482.536   -21188138.62549 -16498547.46547  20942482.151    20942492.769
       240.000         204.000
  24339092.351    -1770336.98449  -1117297.14945  24339089.689    24339113.074
       208.000         138.000
  24288396.738    -3683959.35549  -2858261.40345  24288396.403    24288416.746
       211.000         151.000
  20535552.929   -24543231.85249 -19104472.56848  20535552.563    20535561.346
       243.000         215.000
  23531627.579    -8751343.69849  -6796813.48445  23531626.374    23531642.391
       218.000         162.000
 02  3 22  0 55 30.0000000  0 11G 6G23G26G21G15G17G29G14G22G18G 3
  22387118.702   -15415970.34749 -11737653.62546  22387118.630    22387133.368
       227.000         179.000
  23304848.607    -6363244.20949  -4930331.55646  23304848.699    23304862.276
       222.000         171.000
  23099555.346   -11873667.13149  -7939957.10546  23099556.250    23099568.675
       219.000         163.000
  21818856.213   -19749599.87849 -15373811.08847  21818855.940    21818867.308
       238.000         198.000
  20725852.128   -24439000.87849 -19031217.68447  20725851.731    20725862.097
       243.000         208.000
  20898633.184   -25186335.08649 -19612999.59947  20898633.007    20898643.503
       241.000         206.000
  20932299.027   -21241653.04549 -16540246.89147  20932298.771    20932309.320
       240.000         204.000
  24317785.905    -1882300.90149  -1204541.07045  24317783.229    24317808.080
       207.000         140.000
  24297454.724    -3636360.36749  -2821171.46945  24297454.422    24297474.408
       214.000         150.000
  20539023.343   -24524994.88349 -19090261.93048  20539023.020    20539031.871
       243.000         215.000
  23514617.096    -8840733.36349  -6866467.54545  23514616.000    23514632.345
       216.000         161.000
 02  3 22  0 56  0.0000000  0 11G 6G23G26G21G15G17G29G14G22G18G 3
  22405110.594   -15321423.08849 -11663980.60646  22405110.735    22405125.800
       227.000         178.000
  23319444.081    -6286544.48249  -4870565.62046  23319444.335    23319456.947
       221.000         169.000
  23115251.290   -11791184.45749  -7875684.95245  23115252.154    23115264.423
       219.000         161.000
  21813037.901   -19780174.92449 -15397635.69947  21813037.418    21813049.271
       238.000         198.000
  20723112.511   -24453397.58949 -19042435.85647  20723111.718    20723122.554
       242.000         208.000
  20898825.552   -25185324.36749 -19612212.00947  20898825.264    20898835.902
       241.000         206.000
  20922205.953   -21294691.98249 -16581575.80447  20922205.658    20922216.303
       240.000         205.000
  24296484.229    -1994239.31849  -1291765.18345  24296482.345    24296505.071
       208.000         139.000
  24306562.012    -3588501.77649  -2783879.22045  24306561.188    24306581.539
       211.000         150.000
  20542554.566   -24506437.95849 -19075801.96348  20542554.156    20542563.093
       243.000         215.000
  23497656.020    -8929862.47149  -6935918.53745  23497655.062    23497670.953
       215.000         158.000
 02  3 22  0 56 30.0000000  0 11G 6G23G26G21G15G17G29G14G22G18G 3
  22423157.308   -15226587.40849 -11590082.83246  22423157.971    22423172.095
       227.000         178.000
  23334038.856    -6209848.93949  -4810802.94746  23334039.281    23334052.737
       223.000         168.000
  23131029.329   -11708271.47749  -7811077.52246  23131029.362    23131044.517
       219.000         166.000
  21807270.103   -19810484.63649 -15421253.56947  21807269.412    21807281.603
       239.000         198.000
  20720407.325   -24467613.25349 -19053512.95647  20720406.751    20720417.094
       243.000         208.000
  20899051.828   -25184135.08049 -19611285.28047  20899051.578    20899061.946
       241.000         205.000
  20912203.750   -21347253.50949 -16622532.71447  20912203.353    20912213.985
       240.000         205.000
  24275188.031    -2106149.62149  -1378967.37045  24275185.359    24275209.987
       208.000         141.000
  24315718.190    -3540385.98749  -2746386.57645  24315718.049    24315737.671
       214.000         149.000
  20546146.406   -24487562.72349 -19061093.96748  20546146.059    20546154.703
       244.000         215.000
  23480745.281    -9018728.31849  -7005164.41346  23480745.178    23480759.987
       222.000         163.000
 02  3 22  0 57  0.0000000  0 11G 6G23G26G21G15G17G29G14G22G18G 3
  22441258.598   -15131464.81849 -11515961.50946  22441258.750    22441273.783
       225.000         177.000
  23348632.846    -6133158.03749  -4751043.89146  23348633.477    23348646.801
       223.000         171.000
  23146888.680   -11624929.85649  -7746136.10746  23146888.533    23146902.088
       218.000         163.000
  21801552.872   -19840528.73449 -15444664.46647  21801552.309    21801564.210
       237.000         198.000
  20717736.936   -24481646.08549 -19064447.59547  20717736.230    20717746.873
       242.000         208.000
  20899312.478   -25182765.08949 -19610217.74647  20899312.007    20899322.729
       239.000         205.000
  20902292.861   -21399334.92149 -16663115.52047  20902292.694    20902303.058
       239.000         205.000
  24253897.692    -2218028.41249  -1466145.02145  24253895.268    24253917.540
       209.000         141.000
  24324922.960    -3492014.80549  -2708694.94145  24324922.606    24324942.718
       213.000         149.000
  20549798.666   -24468369.97349 -19046138.56248  20549798.281    20549807.124
       242.000         215.000
  23463885.383    -9107327.52449  -7074202.54346  23463884.970    23463900.326
       217.000         164.000
 02  3 22  0 57 30.0000000  0 11G 6G23G26G21G15G17G29G14G22G18G 3
  22459413.814   -15036059.18949 -11441619.62346  22459414.301    22459428.769
       225.000         177.000
  23363225.322    -6056474.54449  -4691290.60146  23363224.466    23363239.703
       219.000         169.000
  23162828.827   -11541163.92049  -7680864.01945  23162829.697    23162843.136
       217.000         162.000
  21795885.654   -19870309.68149 -15467870.30847  21795884.793    21795897.089
       238.000         199.000
  20715101.195   -24495496.72549 -19075240.26047  20715100.394    20715111.387
       242.000         208.000
  20899607.447   -25181215.00349 -19609009.87547  20899606.853    20899617.732
       240.000         205.000
  20892473.415   -21450935.88649 -16703323.94247  20892473.112    20892483.540
       239.000         205.000
  24232613.790    -2329874.27649  -1553297.02245  24232611.532    24232634.739
       207.000         142.000
  24334175.594    -3443392.49749  -2670807.61245  24334174.621    24334196.238
       212.000         149.000
  20553510.751   -24448862.58849 -19030937.98448  20553510.491    20553519.419
       242.000         215.000
  23447076.065    -9195659.00449  -7143032.01445  23447075.098    23447090.942
       217.000         159.000
 02  3 22  0 58  0.0000000  0 11G 6G23G26G21G15G17G29G14G22G18G 3
  22477622.729   -14940371.53649 -11367057.98546  22477622.616    22477638.158
       226.000         176.000
  23377816.098    -5979798.40849  -4631543.06346  23377815.845    23377829.169
       220.000         167.000
  23178849.669   -11456975.09349  -7615262.40646  23178850.246    23178862.887
       218.000         163.000
  21790268.556   -19899827.25649 -15490870.92447  21790267.792    21790279.853
       237.000         199.000
  20712500.655   -24509162.75049 -19085889.06747  20712499.815    20712510.384
       242.000         208.000
  20899937.124   -25179482.24449 -19607659.65647  20899936.325    20899947.214
       239.000         205.000
  20882746.000   -21502053.05149 -16743155.38847  20882745.746    20882756.106
       239.000         205.000
  24211336.732    -2441683.39949  -1640420.38945  24211334.602    24211356.554
       207.000         142.000
  24343475.733    -3394520.29249  -2632725.55645  24343474.843    24343496.551
       210.000         149.000
  20557282.682   -24429040.92149 -19015492.51048  20557282.300    20557291.072
       242.000         215.000
  23430318.745    -9283718.87149  -7211649.89046  23430318.018    23430333.977
       220.000         165.000
 02  3 22  0 58 30.0000000  0 11G 6G23G26G21G15G17G29G14G22G18G 3
  22495884.561   -14844405.57449 -11292279.48446  22495884.443    22495899.097
       225.000         176.000
  23392405.242    -5903132.52149  -4571803.51146  23392405.095    23392418.970
       222.000         168.000
  23194949.953   -11372367.69249  -7549334.65745  23194949.850    23194964.561
       217.000         161.000
  21784701.341   -19929082.73949 -15513667.32447  21784700.646    21784712.818
       237.000         199.000
  20709935.133   -24522644.55449 -19096394.33447  20709934.491    20709944.956
       242.000         208.000
  20900301.466   -25177567.16449 -19606167.38647  20900300.933    20900311.868
       240.000         205.000
  20873110.739   -21552686.34849 -16782609.79747  20873110.326    20873121.051
       240.000         205.000
  24190066.816    -2553454.59449  -1727514.19845  24190063.787    24190087.569
       210.000         142.000
  24352822.629    -3345402.19749  -2594451.90145  24352823.121    24352844.702
       213.000         149.000
  20561113.804   -24408908.20649 -18999804.66848  20561113.647    20561122.222
       243.000         215.000
  23413613.167    -9371506.31849  -7280055.44046  23413611.154    23413627.749
       214.000         163.000
 02  3 22  0 59  0.0000000  0 11G 6G23G26G21G15G17G29G14G22G18G 3
  22514199.242   -14748162.10649 -11217284.73246  22514198.944    22514214.296
       226.000         175.000
  23406992.562    -5826476.98849  -4512072.00246  23406993.506    23407006.262
       225.000         169.000
  23211129.694   -11287343.20449  -7483081.87546  23211130.998    23211144.501
       222.000         164.000
  21779184.001   -19958076.09849 -15536259.45347  21779183.595    21779195.827
       239.000         199.000
  20707405.028   -24535939.90249 -19106754.29447  20707404.452    20707415.121
       244.000         208.000
  20900700.993   -25175467.57649 -19604531.33047  20900701.246    20900711.312
       242.000         205.000
  20863568.167   -21602832.55549 -16821684.64647  20863568.142    20863578.267
       241.000         205.000
  24168805.075    -2665183.93649  -1814575.40845  24168802.716    24168825.155
       209.000         141.000
  24362216.257    -3296039.77849  -2555987.87545  24362216.608    24362237.617
       215.000         150.000
  20565004.119   -24388464.47149 -18983874.46248  20565003.874    20565012.659
       244.000         215.000
  23396960.018    -9459017.44549  -7348245.69345  23396959.782    23396974.890
       222.000         161.000
 02  3 22  0 59 30.0000000  0 11G 6G23G26G21G15G17G29G14G22G18G 3
  22532566.024   -14651644.80149 -11142076.63546  22532566.059    22532581.003
       224.000         175.000
  23421577.434    -5749834.01449  -4452350.25746  23421576.400    23421589.583
       219.000         167.000
  23227387.973   -11201905.46249  -7416507.11645  23227388.324    23227402.716
       215.000         162.000
  21773716.137   -19986809.76849 -15558649.23347  21773715.650    21773727.180
       238.000         199.000
  20704910.417   -24549049.05349 -19116969.17447  20704909.669    20704920.434
       243.000         208.000
  20901135.670   -25173183.49249 -19602751.51247  20901134.955    20901146.155
       239.000         205.000
  20854118.406   -21652491.01249 -16860379.43847  20854117.905    20854128.316
       240.000         206.000
  24147551.339    -2776869.94149  -1901602.86345  24147549.050    24147571.773
       208.000         142.000
  24371655.663    -3246436.75349  -2517336.33645  24371655.784    24371677.185
       213.000         151.000
  20568953.028   -24367712.81649 -18967704.32448  20568952.530    20568961.256
       242.000         215.000
  23380360.150    -9546250.74849  -7416219.52946  23380359.524    23380374.508
       221.000         167.000
 02  3 22  1  0  0.0000000  0 11G 6G23G26G21G15G17G29G14G22G18G 3
  22550984.649   -14554855.01149 -11066656.18646  22550985.907    22551000.036
       226.000         174.000
  23436159.502    -5673203.85349  -4392638.56646  23436158.095    23436173.984
       219.000         165.000
  23243724.638   -11116056.27649  -7349611.70845  23243724.854    23243739.050
       218.000         161.000
  21768297.744   -20015283.12049 -15580836.17247  21768296.992    21768308.806
       238.000         199.000
  20702451.625   -24561970.03949 -19127037.42747  20702450.832    20702461.558
       243.000         208.000
  20901605.886   -25170712.66549 -19600826.18247  20901605.570    20901616.230
       241.000         205.000
  20844761.958   -21701658.94149 -16898691.99847  20844761.802    20844772.031
       240.000         206.000
  24126306.724    -2888508.77449  -1988593.55345  24126304.827    24126326.202
       208.000         140.000
  24381140.279    -3196594.80749  -2478498.64645  24381141.217    24381161.858
       213.000         150.000
  20572960.456   -24346653.57649 -18951294.51048  20572960.096    20572968.857
       243.000         215.000
  23363813.475    -9633202.99549  -7483974.24946  23363811.790    23363828.014
       215.000         165.000
 02  3 22  1  0 30.0000000  0 11G 6G23G26G21G15G17G29G14G22G18G 3
  22569454.614   -14457795.40149 -10991025.50046  22569454.412    22569469.491
       226.000         174.000
  23450738.839    -5596588.50749  -4332938.40446  23450739.731    23450752.365
       220.000         166.000
  23260138.888   -11029798.93549  -7282398.28945  23260139.660    23260153.410
       218.000         161.000
  21762928.747   -20043497.20849 -15602821.08847  21762928.008    21762940.082
       238.000         199.000
  20700028.653   -24574702.43249 -19136958.72847  20700027.819    20700038.690
       243.000         208.000
  20902111.770   -25168054.47349 -19598754.85047  20902111.349    20902122.040
       241.000         205.000
  20835499.072   -21750335.09349 -16936621.36447  20835498.574    20835509.081
       239.000         206.000
  24105071.530    -3000098.25349  -2075545.80945  24105069.777    24105092.268
       206.000         141.000
  24390669.962    -3146517.10249  -2439477.23045  24390669.581    24390690.333
       214.000         150.000
  20577026.041   -24325288.76649 -18934646.59248  20577025.492    20577034.296
       243.000         215.000
  23347320.642    -9719871.87249  -7551508.24146  23347320.326    23347335.143
       222.000         164.000
 02  3 22  1  1  0.0000000  0 11G 6G23G26G21G15G17G29G14G22G18G 3
  22587975.497   -14360468.01049 -10915186.13546  22587975.140    22587990.439
       223.000         173.000
  23465315.451    -5519988.74149  -4273250.35646  23465315.490    23465329.362
       218.000         166.000
  23276630.466   -10943135.86849  -7214868.71046  23276631.004    23276645.106
       217.000         164.000
  21757608.834   -20071452.90949 -15624604.66847  21757608.311    21757620.319
       238.000         199.000
  20697641.898   -24587244.74649 -19146731.92347  20697641.261    20697652.021
       242.000         208.000
  20902653.577   -25165207.50149 -19596536.41447  20902652.984    20902664.032
       239.000         205.000
  20826330.182   -21798517.34949 -16974165.88147  20826329.872    20826340.265
       239.000         206.000
  24083846.254    -3111635.25149  -2162457.15045  24083843.092    24083864.981
       208.000         140.000
  24400244.068    -3096205.87149  -2400273.85845  24400244.382    24400265.297
       212.000         149.000
  20581149.454   -24303619.79849 -18917761.67648  20581149.167    20581158.050
       242.000         214.000
  23330882.499    -9806254.45449  -7618819.13746  23330881.477    23330897.688
       215.000         165.000
 02  3 22  1  1 30.0000000  0 11G 6G23G26G21G15G17G29G14G22G18G 3
  22606546.769   -14262876.15149 -10839140.72046  22606547.403    22606561.423
       224.000         173.000
  23479888.644    -5443406.74649  -4213576.15346  23479888.192    23479902.994
       220.000         165.000
  23293198.416   -10856070.63449  -7147025.78745  23293199.544    23293212.839
       218.000         162.000
  21752337.926   -20099151.63349 -15646187.98747  21752337.330    21752349.088
       238.000         199.000
  20695291.324   -24599596.87249 -19156356.90647  20695290.618    20695301.253
       242.000         208.000
  20903231.298   -25162171.41049 -19594170.60947  20903230.864    20903241.660
       240.000         205.000
  20817255.408   -21846204.98649 -17011324.96647  20817255.184    20817265.750
       240.000         206.000
  24062631.367    -3223118.00949  -2249326.24445  24062629.838    24062650.986
       207.000         142.000
  24409861.905    -3045664.83449  -2360891.42545  24409861.634    24409883.805
       212.000         150.000
  20585330.277   -24281649.27649 -18900641.77048  20585329.803    20585338.751
       243.000         214.000
  23314498.896    -9892349.29349  -7685905.75146  23314498.868    23314513.515
       221.000         166.000
 02  3 22  1  2  0.0000000  0 11G 6G23G26G21G15G17G29G14G22G18G 3
  22625168.117   -14165021.15349 -10762890.24646  22625168.172    22625183.205
       222.000         173.000
  23494458.389    -5366842.81249  -4153916.03346  23494458.645    23494471.933
       217.000         164.000
  23309842.657   -10768605.14149  -7078870.90945  23309842.762    23309856.287
       216.000         160.000
  21747115.887   -20126593.36549 -15667571.06547  21747115.185    21747127.097
       238.000         199.000
  20692977.324   -24611756.88549 -19165832.20147  20692976.490    20692986.977
       242.000         208.000
  20903845.387   -25158944.12049 -19591655.82547  20903844.749    20903855.480
       239.000         205.000
  20808275.392   -21893395.10849 -17048096.38647  20808275.201    20808285.366
       239.000         206.000
  24041427.526    -3334542.65149  -2336150.06145  24041425.697    24041446.688
       209.000         142.000
  24419523.113    -2994895.49349  -2321331.06845  24419522.626    24419544.763
       212.000         150.000
  20589568.407   -24259377.72849 -18883287.30748  20589567.849    20589576.902
       242.000         214.000
  23298171.029    -9978152.72749  -7752765.38346  23298169.803    23298184.018
       217.000         165.000
 02  3 22  1  2 30.0000000  0 11G 6G23G26G21G15G17G29G14G22G18G 3
  22643838.958   -14066905.88149 -10686436.96546  22643839.216    22643855.131
       223.000         172.000
  23509024.200    -5290298.71849  -4094271.38345  23509024.421    23509039.120
       219.000         162.000
  23326562.276   -10680742.80949  -7010406.84346  23326563.296    23326577.507
       218.000         163.000
  21741942.537   -20153779.17149 -15688754.72147  21741941.847    21741953.754
       238.000         199.000
  20690699.945   -24623724.29449 -19175157.40947  20690699.387    20690709.784
       243.000         208.000
  20904495.989   -25155525.10749 -19588991.64847  20904495.449    20904506.217
       239.000         205.000
  20799390.199   -21940086.62149 -17084479.28447  20799390.042    20799400.247
       239.000         206.000
  24020235.104    -3445907.43949  -2422927.23645  24020232.559    24020254.199
       210.000         143.000
  24429227.147    -2943901.17149  -2281595.43245  24429226.099    24429248.205
       213.000         149.000
  20593863.325   -24236807.38949 -18865700.02248  20593862.945    20593871.919
       242.000         214.000
  23281898.708   -10063662.80349  -7819396.37746  23281897.728    23281912.565
       219.000         163.000
 02  3 22  1  3  0.0000000  0 11G 6G23G26G21G15G17G29G14G22G18G 3
  22662558.864   -13968532.76349 -10609782.76046  22662558.797    22662575.318
       223.000         172.000
  23523586.204    -5213775.74549  -4034643.15546  23523587.829    23523600.322
       222.000         165.000
  23343357.060   -10592486.39849  -6941635.75546  23343357.580    23343371.589
       216.000         164.000
  21736817.529   -20180710.55749 -15709740.12447  21736816.835    21736828.639
       237.000         199.000
  20688459.470   -24635498.04949 -19184331.71947  20688459.038    20688469.176
       242.000         208.000
  20905183.241   -25151913.28449 -19586177.22847  20905182.663    20905193.231
       239.000         204.000
  20790600.124   -21986278.26749 -17120472.66847  20790599.797    20790610.056
       239.000         206.000
  23999054.621    -3557209.49549  -2509655.52745  23999052.941    23999073.043
       210.000         144.000
  24438973.576    -2892684.61649  -2241686.58245  24438972.651    24438994.163
       213.000         149.000
  20598214.858   -24213939.86049 -18847881.15748  20598214.733    20598223.277
       242.000         214.000
  23265682.899   -10148877.07649  -7885796.87646  23265682.313    23265697.773
       221.000         168.000
 02  3 22  1  3 30.0000000  0 11G 6G23G26G21G15G17G29G14G22G18G 3
  22681327.393   -13869904.30649 -10532929.59946  22681328.323    22681342.690
       222.000         171.000
  23538144.027    -5137275.36449  -3975032.55646  23538143.682    23538158.206
       218.000         166.000
  23360226.005   -10503839.04749  -6872559.96245  23360227.201    23360238.928
       220.000         157.000
  21731740.919   -20207387.95249 -15730527.61447  21731740.389    21731751.899
       238.000         199.000
  20686256.027   -24647077.20749 -19193354.39847  20686255.174    20686265.765
       243.000         208.000
  20905907.423   -25148107.65149 -19583211.78247  20905907.022    20905917.544
       239.000         204.000
  20781905.555   -22031968.28749 -17156075.17947  20781905.456    20781915.345
       240.000         206.000
  23977886.436    -3668446.56349  -2596333.17645  23977884.716    23977905.157
       209.000         145.000
  24448761.453    -2841248.72749  -2201606.88545  24448761.744    24448782.303
       211.000         148.000
  20602622.602   -24190777.06049 -18829832.21148  20602622.341    20602631.219
       243.000         214.000
  23249523.669   -10233793.47449  -7951965.25446  23249522.930    23249537.646
       220.000         164.000
 02  3 22  1  4  0.0000000  0 11G 6G23G26G21G15G17G29G14G22G18G 3
  22700144.106   -13771022.46849 -10455878.99446  22700143.448    22700159.974
       221.000         171.000
  23552697.017    -5060798.13549  -3915440.01246  23552696.657    23552710.312
       218.000         164.000
  23377169.309   -10414803.31749  -6803181.50946  23377170.602    23377184.804
       218.000         163.000
  21726712.451   -20233812.32849 -15751117.94847  21726711.970    21726723.516
       237.000         199.000
  20684089.847   -24658460.35049 -19202224.33547  20684089.503    20684099.902
       242.000         208.000
  20906668.743   -25144106.61849 -19580094.08147  20906668.585    20906679.178
       239.000         205.000
  20773306.786   -22077154.65449 -17191285.22947  20773306.389    20773316.809
       240.000         207.000
  23956731.163    -3779615.20549  -2682957.50345  23956729.291    23956749.976
       211.000         146.000
  24458590.754    -2789595.71049  -2161357.93745  24458590.410    24458612.515
       210.000         147.000
  20607086.336   -24167319.86149 -18811553.86348  20607086.191    20607095.030
       242.000         214.000
  23233421.816   -10318408.78249  -8017899.07746  23233421.887    23233436.022
       224.000         167.000
 02  3 22  1  4 30.0000000  0 11G 6G23G26G21G15G17G29G14G22G18G 3
  22719008.619   -13671889.29049 -10378632.55446  22719009.147    22719024.194
       223.000         171.000
  23567245.803    -4984344.94749  -3855866.14746  23567245.795    23567259.508
       221.000         164.000
  23394185.679   -10325381.39649  -6733502.22345  23394185.023    23394199.822
       212.000         161.000
  21721732.056   -20259984.14449 -15771511.48047  21721731.428    21721743.151
       238.000         199.000
  20681961.258   -24669646.07949 -19210940.44147  20681960.617    20681970.981
       243.000         209.000
  20907467.557   -25139908.82549 -19576823.05047  20907467.172    20907477.777
       240.000         205.000
  20764804.233   -22121835.45649 -17226101.32947  20764804.095    20764814.465
       240.000         207.000
  23935589.656    -3890712.62049  -2769526.33445  23935587.448    23935608.357
       211.000         147.000
  24468461.000    -2737728.03749  -2120941.77045  24468460.897    24468484.021
       212.000         149.000
  20611605.873   -24143569.72749 -18793047.25348  20611605.502    20611614.176
       242.000         214.000
  23217377.776   -10402720.18549  -8083596.01446  23217375.735    23217392.516
       215.000         168.000
 02  3 22  1  5  0.0000000  0 11G 6G23G26G21G15G17G29G14G22G18G 3
  22737920.201   -13572508.64749 -10301193.27446  22737920.145    22737936.133
       222.000         170.000
  23581789.215    -4907918.53449  -3796313.19446  23581788.847    23581803.108
       216.000         163.000
  23411274.599   -10235577.89749  -6663525.55045  23411275.471    23411289.167
       217.000         158.000
  21716799.248   -20285905.54849 -15791709.88447  21716798.313    21716810.081
       238.000         199.000
  20679870.052   -24680635.05449 -19219503.22247  20679869.025    20679879.657
       242.000         208.000
  20908303.725   -25135514.49449 -19573398.87147  20908302.993    20908313.894
       239.000         205.000
  20756397.850   -22166010.64349 -17260523.44047  20756397.495    20756407.663
       240.000         207.000
  23914461.956    -4001737.36649  -2856038.55345  23914460.683    23914479.663
       213.000         147.000
  24478371.421    -2685649.86649  -2080361.54345  24478371.346    24478392.844
       212.000         149.000
  20616180.485   -24119529.81949 -18774314.83748  20616179.886    20616188.850
       243.000         214.000
  23201391.502   -10486726.72249  -8149055.42246  23201391.371    23201405.012
       223.000         167.000
 02  3 22  1  5 30.0000000  0 11G 6G23G26G21G15G17G29G14G22G18G 3
  22756878.891   -13472880.70349 -10223561.29746  22756879.230    22756894.963
       222.000         170.000
  23596327.769    -4831517.91049  -3736780.32946  23596327.283    23596340.655
       219.000         163.000
  23428436.265   -10145393.28049  -6593251.87845  23428436.371    23428451.241
       215.000         158.000
  21711914.448   -20311574.85049 -15811711.85547  21711913.915    21711925.390
       237.000         199.000
  20677816.979   -24691423.62649 -19227909.85847  20677816.496    20677826.688
       242.000         208.000
  20909177.866   -25130920.28749 -19569818.95147  20909177.638    20909188.243
       239.000         205.000
  20748088.471   -22209676.42849 -17294548.62947  20748088.387    20748098.617
       240.000         207.000
  23893348.935    -4112684.56149  -2942490.34145  23893346.510    23893366.898
       212.000         148.000
  24488321.649    -2633361.61549  -2039617.64545  24488321.698    24488342.963
       212.000         149.000
  20620810.399   -24095199.33449 -18755356.01048  20620810.000    20620818.882
       242.000         214.000
  23185464.518   -10570423.62449  -8214273.59246  23185463.308    23185478.785
       218.000         167.000
 02  3 22  1  6  0.0000000  0 11G 6G23G26G21G15G17G29G14G22G18G 3
  22775883.844   -13373009.52449 -10145739.78746  22775884.064    22775899.295
       224.000         169.000
  23610861.055    -4755145.64949  -3677269.52245  23610860.262    23610874.251
       219.000         161.000
  23445669.654   -10054832.06849  -6522684.77345  23445670.270    23445684.936
       216.000         159.000
  21707077.069   -20336994.84349 -15831519.55447  21707076.284    21707088.050
       239.000         199.000
  20675802.031   -24702012.41449 -19236160.81647  20675801.441    20675811.681
       244.000         208.000
  20910090.063   -25126126.60149 -19566083.58647  20910089.666    20910100.411
       240.000         204.000
  20739876.018   -22252832.77949 -17328176.84747  20739875.903    20739886.058
       241.000         208.000
  23872250.961    -4223552.92449  -3028880.72145  23872248.676    23872269.628
       213.000         147.000
  24498311.082    -2580867.68049  -1998713.45345  24498309.463    24498331.765
       211.000         148.000
  20625495.002   -24070581.56649 -18736173.31548  20625494.767    20625503.270
       244.000         214.000
  23169596.333   -10653809.97649  -8279249.70646  23169595.863    23169610.870
       223.000         166.000
 02  3 22  1  6 30.0000000  0 11G 6G23G26G21G15G17G29G14G22G18G 3
  22794934.649   -13272897.58549 -10067730.69246  22794935.245    22794950.426
       224.000         169.000
  23625388.514    -4678803.07249  -3617781.86345  23625388.174    23625403.537
       218.000         162.000
  23462973.985    -9963897.20749  -6451826.52945  23462974.231    23462987.551
       213.000         156.000
  21702286.921   -20362166.87449 -15851134.04447  21702286.500    21702298.090
       238.000         200.000
  20673825.145   -24712400.71349 -19244255.54547  20673824.279    20673835.051
       242.000         208.000
  20911040.497   -25121132.34549 -19562191.93847  20911040.038    20911050.856
       240.000         204.000
  20731760.753   -22295478.53249 -17361407.20147  20731760.491    20731770.715
       240.000         208.000
  23851168.399    -4334340.07349  -3115207.78845  23851166.191    23851186.002
       211.000         148.000
  24508338.857    -2528170.75049  -1957651.11945  24508338.570    24508361.582
       208.000         146.000
  20630233.857   -24045678.63549 -18716768.42248  20630233.586    20630242.311
       243.000         214.000
  23153788.032   -10736883.19149  -8343981.91446  23153787.566    23153802.107
       224.000         170.000
 02  3 22  1  7  0.0000000  0 11G 6G23G26G21G15G17G29G14G22G18G 3
  22814031.050   -13172546.47349  -9989535.21146  22814031.065    22814046.313
       223.000         169.000
  23639910.278    -4602490.79849  -3558317.85646  23639910.540    23639925.386
       219.000         165.000
  23480348.929    -9872590.94649  -6380678.89245  23480349.332    23480364.200
       217.000         156.000
  21697544.035   -20387090.66649 -15870555.09547  21697543.303    21697555.276
       240.000         200.000
  20671886.738   -24722586.67149 -19252192.61047  20671885.971    20671896.653
       244.000         208.000
  20912029.362   -25115935.83249 -19558142.68847  20912028.814    20912039.602
       241.000         205.000
  20723743.034   -22337611.51949 -17394238.00047  20723742.452    20723752.731
       241.000         208.000
  23830101.902    -4445042.68749  -3201469.00845  23830100.525    23830120.425
       214.000         149.000
  24518404.861    -2475273.11749  -1916432.36445  24518404.402    24518425.908
       208.000         144.000
  20635026.867   -24020491.23849 -18697141.86348  20635026.189    20635035.025
       244.000         214.000
  23138039.654   -10819640.41049  -8408467.80346  23138038.239    23138053.544
       220.000         168.000
 02  3 22  1  7 30.0000000  0 11G 6G23G26G21G15G17G29G14G22G18G 3
  22833172.312   -13071958.90549  -9911155.48546  22833172.693    22833188.140
       222.000         168.000
  23654426.153    -4526210.07649  -3498878.41446  23654425.802    23654440.562
       216.000         165.000
  23497794.214    -9780916.32549  -6309244.19445  23497794.765    23497809.063
       217.000         159.000
  21692848.097   -20411767.69849 -15889783.87547  21692847.714    21692859.081
       238.000         200.000
  20669987.082   -24732569.35749 -19259971.28047  20669986.516    20669996.898
       242.000         208.000
  20913056.915   -25110536.09649 -19553935.08547  20913056.502    20913067.387
       240.000         205.000
  20715823.169   -22379230.06249 -17426667.94247  20715823.074    20715833.225
       240.000         208.000
  23809052.187    -4555658.02049  -3287662.19745  23809050.567    23809069.771
       214.000         150.000
  24528508.831    -2422177.42949  -1875059.29945  24528509.027    24528530.726
       212.000         146.000
  20639873.612   -23995021.24249 -18677295.10148  20639873.503    20639882.065
       243.000         214.000
  23122351.886   -10902079.20449  -8472705.64246  23122351.899    23122365.302
       224.000         169.000
 02  3 22  1  8  0.0000000  0 11G 6G23G26G21G15G17G29G14G22G18G 3
  22852358.149   -12971137.72949  -9832593.72546  22852358.451    22852374.103
       221.000         168.000
  23668935.493    -4449962.34049  -3439464.68845  23668935.097    23668949.155
       216.000         160.000
  23515308.820    -9688876.72749  -6237525.08245  23515309.360    23515322.142
       212.000         155.000
  21688198.843   -20436199.25049 -15908821.36547  21688198.293    21688210.079
       238.000         200.000
  20668126.184   -24742348.00949 -19267590.95947  20668125.554    20668135.982
       242.000         208.000
  20914123.284   -25104932.14949 -19549568.35947  20914122.834    20914133.691
       239.000         205.000
  20708001.430   -22420333.29349 -17458696.33947  20708001.249    20708011.535
       240.000         208.000
  23788019.482    -4666183.73649  -3373785.57545  23788017.908    23788037.095
       211.000         149.000
  24538649.927    -2368886.90449  -1833534.38245  24538649.267    24538671.133
       209.000         145.000
  20644773.730   -23969270.71249 -18657229.73648  20644773.311    20644782.157
       242.000         214.000
  23106725.187   -10984197.45349  -8536693.68146  23106723.838    23106739.403
       219.000         168.000
 02  3 22  1  8 30.0000000  0 11G 6G23G26G21G15G17G29G14G22G18G 3
  22871587.933   -12870085.30749  -9753851.76946  22871588.129    22871604.918
       220.000         168.000
  23683438.607    -4373748.64449  -3380077.43245  23683439.596    23683451.907
       218.000         159.000
  23532892.102    -9596474.66649  -6165523.57345  23532892.667    23532908.104
       216.000         153.000
  21683596.295   -20460385.60949 -15927667.79647  21683595.939    21683607.186
       237.000         200.000
  20666304.368   -24751921.54649 -19275050.80947  20666303.626    20666314.257
       242.000         208.000
  20915228.699   -25099122.83049 -19545041.60047  20915228.589    20915239.016
       239.000         205.000
  20700277.994   -22460919.83049 -17490322.11747  20700277.906    20700287.794
       240.000         208.000
  23767004.322    -4776616.86649  -3459836.79945  23767002.576    23767020.574
       212.000         148.000
  24548827.606    -2315404.28649  -1791859.79645  24548828.690    24548850.443
       212.000         148.000
  20649726.997   -23943241.08749 -18636946.89448  20649726.961    20649735.487
       242.000         213.000
  23091159.818   -11065992.52849  -8600429.86146  23091159.693    23091173.195
       222.000         170.000
 02  3 22  1  9  0.0000000  0 11G 6G23G26G21G15G17G29G14G22G18G 3
  22890861.270   -12768804.30949  -9674931.71846  22890860.707    22890877.434
       221.000         168.000
  23697935.014    -4297570.61649  -3320717.99645  23697935.880    23697949.794
       220.000         162.000
  23550544.208    -9503713.83249  -6093242.48445  23550545.497    23550559.095
       218.000         161.000
  21679040.122   -20484328.36349 -15946324.40447  21679039.273    21679051.447
       239.000         200.000
  20664521.746   -24761289.20249 -19282350.22547  20664521.060    20664531.517
       242.000         208.000
  20916373.440   -25093107.55449 -19540354.34547  20916372.986    20916383.782
       240.000         204.000
  20692653.065   -22500988.62049 -17521544.44647  20692652.835    20692663.007
       239.000         208.000
  23746007.054    -4886955.49749  -3545814.39745  23746004.933    23746024.334
       212.000         149.000
  24559041.038    -2261732.49449  -1750037.81845  24559040.070    24559063.150
       207.000         146.000
  20654732.967   -23916934.42349 -18616448.17048  20654732.536    20654741.510
       242.000         213.000
  23075656.400   -11147462.62949  -8663912.87446  23075655.176    23075669.938
       220.000         168.000
 02  3 22  1  9 30.0000000  0 11G 6G23G26G21G15G17G29G14G22G18G 3
  22910177.693   -12667296.63049  -9595835.03946  22910177.024    22910192.571
       221.000         167.000
  23712424.430    -4221428.68249  -3261386.71646  23712424.040    23712438.566
       217.000         163.000
  23568264.064    -9410596.52949  -6020683.62745  23568263.141    23568278.731
       213.000         157.000
  21674530.151   -20508028.08549 -15964791.64047  21674529.585    21674540.876
       240.000         200.000
  20662778.594   -24770449.56949 -19289488.12747  20662777.797    20662788.335
       243.000         208.000
  20917557.634   -25086884.50949 -19535505.19147  20917557.316    20917567.557
       241.000         204.000
  20685127.041   -22540537.84149 -17552361.91947  20685126.725    20685136.651
       241.000         208.000
  23725028.546    -4997196.18549  -3631715.68145  23725026.866    23725046.368
       214.000         149.000
  24569290.120    -2207873.96149  -1708070.30445  24569289.765    24569312.826
       209.000         145.000
  20659791.472   -23890351.89049 -18595734.48848  20659791.084    20659799.851
       243.000         213.000
  23060215.366   -11228604.80849  -8727140.33146  23060214.336    23060230.118
       221.000         170.000
 02  3 22  1 10  0.0000000  0 11G 6G23G26G21G15G17G29G14G22G18G 3
  22929536.846   -12565564.24949  -9516563.26346  22929536.812    22929553.879
       220.000         167.000
  23726906.776    -4145323.50549  -3202084.08645  23726906.594    23726921.023
       213.000         161.000
  23586050.759    -9317125.17649  -5947848.90045  23586051.147    23586064.756
       213.000         151.000
  21670066.453   -20531484.87949 -15983069.58147  21670066.065    21670077.028
       237.000         201.000
  20661075.156   -24779401.02649 -19296463.24347  20661074.316    20661084.986
       241.000         208.000
  20918781.689   -25080452.07249 -19530492.88447  20918780.979    20918791.755
       238.000         204.000
  20677700.210   -22579565.61549 -17582773.07347  20677699.846    20677709.837
       239.000         208.000
  23704069.177    -5107335.92949  -3717538.28445  23704067.865    23704086.768
       212.000         150.000
  24579574.232    -2153830.88349  -1665959.01445  24579573.785    24579595.583
       210.000         145.000
  20664902.181   -23863494.72449 -18574806.81248  20664901.856    20664910.489
       242.000         213.000
  23044837.259   -11309415.98649  -8790109.84346  23044837.471    23044850.755
       224.000         172.000
 02  3 22  1 10 30.0000000  0 11G 6G23G26G21G15G17G29G14G22G18G 3
  22948938.140   -12463610.28849  -9437118.82446  22948938.780    22948955.037
       220.000         167.000
  23741381.902    -4069256.87449  -3142811.47045  23741382.883    23741395.723
       221.000         162.000
  23603904.748    -9223303.18549  -5874740.90545  23603904.897    23603919.099
       213.000         154.000
  21665648.592   -20554700.60849 -16001159.67847  21665648.054    21665659.295
       239.000         201.000
  20659411.498   -24788143.21549 -19303275.29647  20659410.917    20659421.264
       242.000         208.000
  20920045.617   -25073809.87649 -19525317.12747  20920045.054    20920055.660
       239.000         204.000
  20670372.788   -22618071.10049 -17612777.24947  20670372.409    20670382.713
       240.000         209.000
  23683129.543    -5217372.24749  -3803280.33445  23683128.202    23683146.824
       214.000         150.000
  24589893.013    -2099606.59049  -1623706.46645  24589893.151    24589915.460
       207.000         144.000
  20670064.790   -23836364.94149 -18553666.70448  20670064.522    20670073.403
       242.000         213.000
  23029522.789   -11389894.41749  -8852820.18446  23029522.573    23029536.120
       222.000         170.000
 02  3 22  1 11  0.0000000  0 11G 6G23G26G21G15G17G29G14G22G18G 3
  22968381.245   -12361437.11049  -9357503.57546  22968381.490    22968396.658
       219.000         166.000
  23755849.734    -3993229.53749  -3083569.41145  23755849.638    23755863.321
       217.000         162.000
  23621824.707    -9129133.48149  -5801362.01145  23621825.021    23621839.957
       213.000         154.000
  21661276.450   -20577676.13849 -16019062.60347  21661275.911    21661287.246
       240.000         201.000
  20657787.958   -24796674.76949 -19309923.21247  20657787.331    20657797.501
       243.000         208.000
  20921349.790   -25066956.19949 -19519976.58047  20921349.421    20921360.047
       240.000         204.000
  20663144.988   -22656053.07749 -17642373.49347  20663144.982    20663154.578
       241.000         209.000
  23662210.017    -5327302.55849  -3888939.77345  23662208.714    23662227.075
       211.000         151.000
  24600245.693    -2045203.69349  -1581314.84845  24600247.023    24600267.520
       212.000         145.000
  20675278.973   -23808964.27249 -18532315.51448  20675278.662    20675287.378
       243.000         213.000
  23014271.757   -11470037.42849  -8915269.00946  23014271.142    23014286.087
       224.000         171.000
 02  3 22  1 11 30.0000000  0 11G 6G23G26G21G15G17G29G14G22G18G 3
  22987865.296   -12259047.75249  -9277719.87146  22987865.842    22987881.698
       220.000         165.000
  23770309.345    -3917243.05149  -3024359.24045  23770308.448    23770323.619
       213.000         158.000
  23639810.068    -9034619.56949  -5727714.89345  23639810.440    23639825.733
       213.000         154.000
  21656949.731   -20600413.13449 -16036779.65547  21656949.276    21656960.499
       240.000         201.000
  20656204.566   -24804995.29349 -19316406.69347  20656203.768    20656213.945
       242.000         208.000
  20922694.324   -25059890.65749 -19514470.95047  20922693.541    20922704.332
       239.000         204.000
  20656016.978   -22693510.66149 -17671561.12347  20656016.817    20656026.555
       241.000         209.000
  23641311.083    -5437124.71549  -3974514.93445  23641309.312    23641327.460
       214.000         151.000
  24610631.798    -1990625.64349  -1538786.65745  24610631.654    24610655.134
       210.000         145.000
  20680544.278   -23781294.83449 -18510754.89148  20680543.797    20680552.787
       243.000         213.000
  22999085.339   -11549842.94349  -8977454.97246  22999085.305    22999096.446
       226.000         173.000
 02  3 22  1 12  0.0000000  0 11G 6G23G26G21G15G17G29G14G22G18G 3
  23007390.324   -12156443.87349  -9197769.01046  23007390.815    23007405.664
       219.000         165.000
  23784761.104    -3841297.81449  -2965181.23345  23784761.292    23784775.995
       215.000         159.000
  23657860.722    -8939763.55049  -5653801.19645  23657860.974    23657876.100
       213.000         153.000
  21652668.380   -20622911.53349 -16054310.79647  21652667.820    21652678.998
       238.000         201.000
  20654661.679   -24813102.83749 -19322724.21547  20654660.856    20654671.486
       241.000         208.000
  20924079.389   -25052611.54449 -19508798.89647  20924078.912    20924089.632
       238.000         204.000
  20648989.127   -22730441.88449 -17700338.60747  20648988.783    20648998.727
       240.000         209.000
  23620433.553    -5546835.09649  -4060003.00045  23620431.615    23620449.909
       214.000         151.000
  24621050.724    -1935874.34849  -1496123.51945  24621050.252    24621072.476
       210.000         146.000
  20685860.545   -23753357.63849 -18488985.63348  20685860.227    20685868.994
       242.000         213.000
  22983963.324   -11629308.09949  -9039375.68646  22983961.584    22983976.992
       219.000         167.000
 02  3 22  1 12 30.0000000  0 11G 6G23G26G21G15G17G29G14G22G18G 3
  23026955.805   -12053627.34049  -9117652.45646  23026956.200    23026972.591
       219.000         165.000
  23799205.221    -3765394.40049  -2906035.77245  23799205.203    23799219.259
       217.000         160.000
  23675975.832    -8844567.76749  -5579622.75845  23675977.012    23675990.762
       217.000         152.000
  21648432.232   -20645172.06549 -16071656.58347  21648431.693    21648442.753
       240.000         201.000
  20653159.684   -24820995.75749 -19328874.49647  20653158.746    20653169.292
       244.000         208.000
  20925505.546   -25045116.82649 -19502958.83147  20925504.934    20925515.869
       240.000         204.000
  20642061.766   -22766845.10249 -17728704.65147  20642061.418    20642071.293
       242.000         209.000
  23599577.861    -5656430.59449  -4145401.55645  23599576.673    23599594.302
       213.000         151.000
  24631502.259    -1880952.09349  -1453327.13745  24631502.755    24631524.820
       213.000         147.000
  20691227.555   -23725153.71649 -18467008.53048  20691226.842    20691235.927
       243.000         213.000
  22968906.853   -11708429.86649  -9101028.78146  22968906.937    22968920.963
       228.000         178.000
 02  3 22  1 13  0.0000000  0 11G 6G23G26G21G15G17G29G14G22G18G 3
  23046560.972   -11950602.08149  -9037373.24646  23046561.667    23046576.532
       218.000         164.000
  23813640.928    -3689535.28549  -2846924.82946  23813640.899    23813654.675
       220.000         163.000
  23694155.032    -8749036.81749  -5505183.07645  23694155.917    23694170.049
       214.000         153.000
  21644241.002   -20667196.86149 -16088818.68547  21644240.264    21644251.634
       239.000         201.000
  20651698.482   -24828674.34649 -19334857.77347  20651697.587    20651708.046
       242.000         208.000
  20926972.749   -25037406.93249 -19496951.10647  20926972.388    20926982.771
       240.000         204.000
  20635234.850   -22802720.48249 -17756659.39647  20635234.574    20635244.073
       240.000         209.000
  23578744.169    -5765909.74749  -4230709.46945  23578742.506    23578760.910
       212.000         151.000
  24641985.683    -1825863.13549  -1410400.87045  24641985.598    24642007.947
       211.000         148.000
  20696644.770   -23696686.05749 -18444825.92348  20696644.361    20696652.755
       243.000         213.000
  22953915.847   -11787207.22749  -9162413.55346  22953913.566    22953926.965
       221.000         170.000
 02  3 22  1 13 30.0000000  0 11G 6G23G26G21G15G17G29G14G22G18G 3
  23066205.609   -11847369.75149  -8956932.68646  23066206.168    23066222.332
       220.000         164.000
  23828067.947    -3613720.71349  -2787848.60845  23828066.703    23828082.505
       215.000         162.000
  23712397.326    -8653172.72849  -5430483.90845  23712397.149    23712412.615
       211.000         151.000
  21640094.542   -20688986.16549 -16105797.28647  21640094.045    21640105.467
       240.000         201.000
  20650278.315   -24836136.98249 -19340672.76947  20650277.710    20650287.997
       243.000         208.000
  20928481.253   -25029479.96449 -19490774.23147  20928480.974    20928491.296
       240.000         204.000
  20628508.744   -22838066.00749 -17784201.26747  20628508.401    20628518.066
       242.000         209.000
  23557933.295    -5875269.11349  -4315924.02145  23557931.903    23557949.743
       214.000         152.000
  24652500.227    -1770609.25849  -1367346.07345  24652500.339    24652521.841
       211.000         146.000
  20702111.921   -23667955.77449 -18422438.67448  20702111.586    20702120.255
       244.000         213.000
  22938991.082   -11865636.82149  -9223527.37246  22938991.637    22939005.536
       229.000         176.000
 02  3 22  1 14  0.0000000  0 11G 6G23G26G21G15G17G29G14G22G18G 3
  23085889.110   -11743933.29049  -8876333.07446  23085890.511    23085905.643
       220.000         164.000
  23842486.131    -3537951.93449  -2728808.09745  23842485.551    23842500.698
       215.000         160.000
  23730702.451    -8556978.89149  -5355527.76745  23730703.256    23730718.137
       216.000         155.000
  21635992.701   -20710541.06549 -16122593.24047  21635992.044    21636003.499
       240.000         201.000
  20648899.533   -24843382.73649 -19346318.77447  20648898.935    20648909.273
       244.000         208.000
  20930031.179   -25021335.01049 -19484427.49547  20930030.571    20930041.194
       240.000         203.000
  20621883.619   -22872880.88149 -17811329.64147  20621883.287    20621893.110
       242.000         209.000
  23537145.715    -5984506.49449  -4401043.53645  23537144.714    23537161.686
       215.000         152.000
  24663045.306    -1715193.78149  -1324165.39145  24663044.729    24663066.509
       209.000         142.000
  20707628.702   -23638964.75949 -18399848.26048  20707628.187    20707637.140
       244.000         213.000
  22924132.891   -11943716.70249  -9284368.55246  22924131.704    22924146.737
       222.000         175.000
 02  3 22  1 14 30.0000000  0 11G 6G23G26G21G15G17G29G14G22G18G 3
  23105611.050   -11640294.87849  -8795576.07646  23105611.608    23105627.240
       218.000         163.000
  23856895.564    -3462229.86849  -2669803.95445  23856895.225    23856908.645
       217.000         158.000
  23749069.993    -8460458.07149  -5280316.81645  23749070.071    23749084.040
       215.000         154.000
  21631935.304   -20731862.37449 -16139207.17547  21631935.103    21631946.127
       239.000         201.000
  20647562.197   -24850410.33549 -19351794.78347  20647561.471    20647571.772
       243.000         208.000
  20931622.752   -25012970.71949 -19477909.84147  20931622.050    20931633.023
       239.000         203.000
  20615359.749   -22907163.66849 -17838043.40847  20615359.564    20615369.261
       241.000         209.000
  23516381.866    -6093618.74549  -4486065.55345  23516380.249    23516397.906
       215.000         152.000
  24673620.821    -1659619.10749  -1280860.65145  24673619.699    24673643.160
       205.000         140.000
  20713194.799   -23609714.43249 -18377055.78748  20713194.614    20713203.322
       242.000         213.000
  22909341.657   -12021444.18749  -9344935.35046  22909342.043    22909353.456
       227.000         172.000
 02  3 22  1 15  0.0000000  0 11G 6G23G26G21G15G17G29G14G22G18G 3
  23125370.914   -11536456.77049  -8714663.50945  23125371.379    23125387.598
       218.000         162.000
  23871296.023    -3386555.21349  -2610836.73245  23871295.396    23871310.805
       217.000         157.000
  23767498.936    -8363612.79849  -5204853.00845  23767499.423    23767513.774
       212.000         148.000
  21627922.278   -20752950.79349 -16155639.64047  21627921.511    21627933.294
       240.000         202.000
  20646266.648   -24857218.19549 -19357099.56747  20646265.977    20646276.138
       243.000         208.000
  20933256.414   -25004385.50449 -19471220.03947  20933256.158    20933266.660
       240.000         203.000
  20608937.411   -22940912.79049 -17864341.33647  20608937.200    20608946.923
       242.000         210.000
  23495642.437    -6202602.82749  -4570987.70245  23495640.517    23495658.802
       216.000         153.000
  24684226.411    -1603887.70249  -1237433.80845  24684227.435    24684248.964
       211.000         143.000
  20718810.092   -23580205.99849 -18354062.19048  20718809.906    20718818.515
       244.000         213.000
  22894617.986   -12098816.64449  -9405225.32046  22894616.087    22894632.504
       222.000         173.000
 02  3 22  1 15 30.0000000  0 11G 6G23G26G21G15G17G29G14G22G18G 3
  23145168.202   -11432422.28349  -8633597.89745  23145168.893    23145185.866
       218.000         161.000
  23885687.066    -3310929.94749  -2551908.02845  23885686.993    23885701.808
       218.000         160.000
  23785988.974    -8266447.02949  -5129139.49245  23785988.763    23786004.695
       209.000         150.000
  21623953.165   -20773808.38049 -16171892.22847  21623952.379    21623963.886
       240.000         202.000
  20645012.960   -24863806.25849 -19362233.07247  20645012.066    20645022.363
       243.000         208.000
  20934932.210   -24995579.31349 -19464358.04147  20934931.548    20934942.188
       239.000         203.000
  20602616.604   -22974128.56749 -17890223.66347  20602616.316    20602625.897
       241.000         210.000
  23474927.819    -6311457.02049  -4655808.65945  23474926.596    23474943.612
       217.000         155.000
  24694861.158    -1548003.41449  -1193887.79845  24694861.703    24694884.538
       210.000         144.000
  20724473.968   -23550442.28849 -18330869.67148  20724473.585    20724482.158
       243.000         213.000
  22879962.198   -12175832.67949  -9465237.64646  22879962.891    22879974.199
       231.000         176.000
 02  3 22  1 16  0.0000000  0 12G 6G23G26G21G15G17G29G14G 9G22G18G 3
  23165002.635   -11328192.89249  -8552380.42545  23165003.372    23165020.324
       218.000         161.000
  23900068.942    -3235353.82449  -2493017.61646  23900069.626    23900083.808
       219.000         164.000
  23804539.712    -8168962.76349  -5053177.87145  23804541.209    23804555.825
       215.000         155.000
  21620028.017   -20794434.85249 -16187964.74547  21620027.706    21620038.838
       239.000         202.000
  20643801.481   -24870172.49749 -19367193.73747  20643800.814    20643811.085
       243.000         208.000
  20936650.417   -24986549.83049 -19457322.06747  20936650.169    20936660.639
       239.000         203.000
  20596397.696   -23006808.65149 -17915688.58047  20596397.361    20596407.286
       240.000         210.000
  23454238.696    -6420177.64549  -4740525.54345  23454237.289    23454255.166
       216.000         156.000
  24469755.499    -3627028.84749  -2818680.86945  24469756.450    24469773.530
       204.000         136.000
  24705524.736    -1491967.93049  -1150223.98345  24705524.092    24705546.896
       209.000         145.000
  20730186.242   -23520423.84749 -18307478.67048  20730185.831    20730194.681
       242.000         213.000
  22865374.886   -12252488.95049  -9524969.64746  22865372.982    22865388.781
       221.000         172.000
 02  3 22  1 16 30.0000000  0 12G 6G23G26G21G15G17G29G14G 9G22G18G 3
  23184873.334   -11223772.57949  -8471014.16745  23184875.025    23184891.163
       218.000         161.000
  23914440.903    -3159829.30549  -2434167.43445  23914440.058    23914455.516
       214.000         161.000
  23823150.281    -8071164.38949  -4976971.42845  23823150.856    23823164.835
       211.000         154.000
  21616146.295   -20814833.10549 -16203859.42047  21616145.814    21616157.224
       239.000         202.000
  20642632.099   -24876317.36449 -19371981.89747  20642631.294    20642641.986
       242.000         208.000
  20938411.090   -24977297.24649 -19450112.23947  20938410.460    20938421.430
       238.000         203.000
  20590280.700   -23038953.22249 -17940736.20447  20590280.455    20590290.227
       241.000         210.000
  23433575.242    -6528763.24749  -4825137.21245  23433573.675    23433590.182
       216.000         156.000
  24458724.248    -3684998.79049  -2863851.99145  24458724.507    24458740.837
       208.000         141.000
  24716215.816    -1435785.23049  -1106445.46045  24716216.519    24716236.436
       211.000         140.000
  20735946.464   -23490153.56449 -18283891.42348  20735946.283    20735954.924
       242.000         213.000
  22850856.137   -12328784.34549  -9584420.40046  22850856.012    22850869.710
       230.000         178.000
 02  3 22  1 17  0.0000000  0 12G 6G23G26G21G15G17G29G14G 9G22G18G 3
  23204780.386   -11119161.45349  -8389499.23945  23204780.944    23204797.870
       219.000         160.000
  23928803.101    -3084354.85649  -2375356.27245  23928803.054    23928816.092
       217.000         157.000
  23841820.357    -7973052.34449  -4900520.53745  23841820.461    23841835.351
       212.000         148.000
  21612308.278   -20835001.65549 -16219575.10347  21612307.811    21612319.068
       241.000         202.000
  20641505.576   -24882237.08749 -19376594.62947  20641504.914    20641515.249
       243.000         209.000
  20940214.894   -24967818.05749 -19442725.83147  20940214.401    20940225.246
       240.000         203.000
  20584266.219   -23070559.22049 -17965364.16647  20584266.259    20584275.686
       242.000         210.000
  23412938.346    -6637208.71549  -4909639.69945  23412937.191    23412954.033
       218.000         157.000
  24447727.919    -3742784.96249  -2908879.95045  24447726.231    24447743.816
       205.000         140.000
  24726935.138    -1379455.99049  -1062552.72645  24726934.130    24726957.879
       207.000         140.000
  20741754.757   -23459630.88349 -18260107.50248  20741754.402    20741763.298
       243.000         213.000
  22836407.108   -12404714.13249  -9643586.30546  22836405.685    22836419.912
       226.000         174.000
 02  3 22  1 17 30.0000000  0 12G 6G23G26G21G15G17G29G14G 9G22G18G 3
  23224722.929   -11014363.89849  -8307839.06145  23224722.929    23224739.961
       217.000         160.000
  23943155.470    -3008933.41049  -2316586.33345  23943155.528    23943168.275
       216.000         157.000
  23860549.248    -7874631.56349  -4823829.10445  23860549.995    23860565.252
       210.000         149.000
  21608513.594   -20854942.53449 -16235113.38747  21608512.918    21608524.422
       239.000         202.000
  20640421.728   -24887932.27449 -19381032.39047  20640420.804    20640431.186
       242.000         208.000
  20942061.639   -24958112.98049 -19435163.41247  20942060.943    20942071.604
       238.000         203.000
  20578354.103   -23101627.23849 -17989572.92247  20578353.932    20578363.437
       240.000         210.000
  23392328.381    -6745513.17949  -4994032.33245  23392326.789    23392344.002
       217.000         157.000
  24436766.392    -3800386.05249  -2953763.67445  24436765.609    24436780.508
       204.000         135.000
  24737681.453    -1322984.69149  -1018549.33345  24737682.739    24737703.142
       211.000         142.000
  20747610.333   -23428859.36849 -18236129.69347  20747609.978    20747618.727
       242.000         212.000
  22822027.689   -12480277.67849  -9702466.82046  22822027.549    22822041.532
       228.000         178.000
 02  3 22  1 18  0.0000000  0 12G 6G23G26G21G15G17G29G14G 9G22G18G 3
  23244700.357   -10909382.80849  -8226035.87445  23244701.638    23244718.525
       219.000         160.000
  23957497.492    -2933566.17949  -2257858.69545  23957497.510    23957513.121
       216.000         158.000
  23879336.191    -7775905.38549  -4746899.73045  23879336.969    23879351.089
       212.000         153.000
  21604761.833   -20874657.53749 -16250475.65747  21604761.405    21604772.402
       239.000         202.000
  20639380.747   -24893402.40849 -19385294.78647  20639380.194    20639390.280
       242.000         208.000
  20943951.565   -24948181.19949 -19427424.33447  20943951.194    20943961.844
       238.000         203.000
  20572544.489   -23132156.46449 -18013361.83547  20572544.224    20572553.819
       241.000         210.000
  23371745.553    -6853674.43149  -5078313.36545  23371743.878    23371760.886
       218.000         158.000
  24425840.890    -3857799.31249  -2998501.06945  24425840.812    24425855.079
       205.000         138.000
  24748454.166    -1266374.43849   -974437.60545  24748451.913    24748477.817
       204.000         140.000
  20753512.923   -23397840.91149 -18211959.45547  20753512.502    20753521.325
       242.000         212.000
  22807718.237   -12555473.18949  -9761060.51946  22807717.316    22807730.682
       225.000         175.000
 02  3 22  1 18 30.0000000  0 12G 6G23G26G21G15G17G29G14G 9G22G18G 3
  23264712.496   -10804219.24149  -8144090.47345  23264713.984    23264730.234
       220.000         159.000
  23971829.297    -2858252.65649  -2199172.91045  23971829.328    23971843.555
       217.000         159.000
  23898181.227    -7676875.25149  -4669733.43845  23898181.683    23898196.728
       213.000         154.000
  21601053.114   -20894146.53949 -16265661.82247  21601052.702    21601063.657
       241.000         202.000
  20638383.125   -24898644.93249 -19389379.82847  20638382.395    20638393.207
       244.000         208.000
  20945885.226   -24938019.97749 -19419506.47847  20945884.826    20945895.553
       240.000         203.000
  20566837.866   -23162144.93549 -18036729.38347  20566837.645    20566847.382
       243.000         210.000
  23351190.966    -6961688.07749  -5162479.38745  23351189.628    23351207.247
       219.000         158.000
  24414951.880    -3915020.29149  -3043088.58845  24414950.521    24414967.469
       205.000         139.000
  24759252.988    -1209626.58849   -930218.75045  24759254.245    24759273.339
       211.000         141.000
  20759462.496   -23366575.74349 -18187596.97547  20759462.273    20759470.875
       244.000         212.000
  22793479.725   -12630296.58649  -9819364.31446  22793479.093    22793492.798
       227.000         176.000
 02  3 22  1 19  0.0000000  0 12G 6G23G26G21G15G17G29G14G 9G22G18G 3
  23284758.643   -10698876.98449  -8062005.85945  23284759.906    23284774.146
       218.000         159.000
  23986150.243    -2782994.94349  -2140530.62345  23986148.855    23986164.659
       213.000         157.000
  23917083.031    -7577545.54049  -4592333.75845  23917081.829    23917098.883
       204.000         149.000
  21597387.035   -20913411.87849 -16280673.70547  21597386.510    21597397.530
       240.000         202.000
  20637428.785   -24903659.94549 -19393287.59347  20637428.306    20637438.605
       243.000         209.000
  20947862.476   -24927629.48949 -19411409.97547  20947861.747    20947872.437
       239.000         203.000
  20561234.046   -23191592.75349 -18059675.65147  20561233.744    20561243.335
       241.000         210.000
  23330664.645    -7069552.77949  -5246529.36145  23330662.149    23330679.639
       217.000         158.000
  24404099.537    -3972047.41749  -3087525.04945  24404098.244    24404115.178
       202.000         138.000
  24770077.292    -1152745.26349   -885895.81545  24770076.333    24770101.870
       209.000         142.000
  20765458.479   -23335066.61349 -18163044.39847  20765457.973    20765466.867
       243.000         212.000
  22779311.924   -12704747.15049  -9877377.52346  22779312.100    22779325.381
       227.000         176.000
 02  3 22  1 19 30.0000000  0 12G 6G23G26G21G15G17G29G14G 9G22G18G 3
  23304838.557   -10593357.09049  -7979782.83045  23304839.555    23304855.596
       217.000         159.000
  24000460.760    -2707792.61649  -2081931.46945  24000460.767    24000475.381
       213.000         157.000
  23936041.502    -7477917.70149  -4514701.79145  23936042.023    23936056.945
       211.000         149.000
  21593763.556   -20932452.95649 -16295510.83947  21593763.159    21593774.364
       239.000         203.000
  20636518.208   -24908444.85949 -19397016.05247  20636517.746    20636528.041
       242.000         209.000
  20949883.774   -24917007.19249 -19403132.84247  20949883.278    20949894.021
       237.000         203.000
  20555733.565   -23220497.63449 -18082198.85047  20555733.602    20555742.962
       240.000         210.000
  23310167.441    -7177264.43349  -5330460.08245  23310166.148    23310182.382
       217.000         158.000
  24393285.135    -4028876.08749  -3131806.81545  24393285.780    24393303.325
       208.000         142.000
  24780927.028    -1095731.82949   -841469.98745  24780927.951    24780948.765
       210.000         144.000
  20771500.802   -23303313.75849 -18138301.90747  20771500.739    20771509.436
       243.000         212.000
  22765216.198   -12778820.94349  -9935097.24146  22765215.469    22765229.126
       224.000         176.000
 02  3 22  1 20  0.0000000  0 12G 6G23G26G21G15G17G29G14G 9G22G18G 3
  23324951.530   -10487663.10649  -7897424.14145  23324953.381    23324969.324
       219.000         159.000
  24014760.480    -2632647.58649  -2023376.99545  24014760.088    24014775.567
       214.000         156.000
  23955056.251    -7377995.95349  -4436840.74245  23955057.409    23955071.673
       216.000         153.000
  21590182.372   -20951271.95249 -16310174.92447  21590181.778    21590192.712
       240.000         203.000
  20635651.445   -24912999.51949 -19400565.09747  20635650.416    20635660.828
       243.000         208.000
  20951949.220   -24906152.90149 -19394674.92747  20951948.728    20951959.351
       240.000         203.000
  20550336.347   -23248859.70349 -18104299.08247  20550336.258    20550345.543
       241.000         210.000
  23289699.725    -7284821.38549  -5414270.26945  23289698.417    23289714.207
       217.000         159.000
  24382509.498    -4085503.97149  -3175932.17445  24382510.369    24382526.580
       213.000         146.000
  24791800.772    -1038590.02149   -796944.08645  24791799.774    24791822.985
       207.000         141.000
  20777589.005   -23271320.16149 -18113371.82047  20777588.535    20777597.597
       243.000         212.000
  22751192.011   -12852516.94749  -9992522.48946  22751192.347    22751205.385
       229.000         177.000
 02  3 22  1 20 30.0000000  0 12G 6G23G26G21G15G17G29G14G 9G22G18G 3
  23345097.293   -10381797.55649  -7814931.75945  23345098.684    23345114.171
       216.000         158.000
  24029049.166    -2557560.62149  -1964867.74045  24029048.856    24029062.469
       215.000         156.000
  23974126.253    -7277783.08549  -4358752.85745  23974125.348    23974141.835
       209.000         151.000
  21586643.208   -20969870.10549 -16324666.91547  21586642.848    21586654.063
       240.000         203.000
  20634828.711   -24917322.69049 -19403933.75647  20634828.236    20634838.575
       243.000         208.000
  20954059.158   -24895065.41549 -19386035.30847  20954059.027    20954069.384
       239.000         203.000
  20545042.622   -23276678.15449 -18125975.70947  20545042.463    20545051.887
       241.000         210.000
  23269262.046    -7392220.84149  -5497957.72745  23269260.156    23269276.688
       219.000         159.000
  24371772.361    -4141928.10348  -3219898.97045  24371770.454    24371782.511
       191.000         133.000
  24802698.560     -981322.64549   -752320.37145  24802697.770    24802721.454
       205.000         142.000
  20783722.665   -23239087.26449 -18088255.27247  20783722.618    20783731.035
       243.000         212.000
  22737240.538   -12925832.44749 -10049651.30746  22737239.377    22737253.377
       224.000         176.000
 02  3 22  1 21  0.0000000  0 12G 6G23G26G21G15G17G29G14G 9G22G18G 3
  23365275.300   -10275762.66149  -7732307.43545  23365275.706    23365292.290
       216.000         158.000
  24043326.831    -2482532.42949  -1906404.23445  24043327.341    24043341.801
       220.000         157.000
  23993250.852    -7177281.69849  -4280440.19845  23993251.628    23993266.811
       210.000         147.000
  21583145.969   -20988247.82649 -16338987.14447  21583145.559    21583156.947
       240.000         202.000
  20634050.269   -24921413.31449 -19407121.21147  20634049.615    20634060.112
       243.000         208.000
  20956213.668   -24883743.29749 -19377212.84847  20956213.156    20956223.845
       239.000         203.000
  20539852.498   -23303951.89549 -18147227.89147  20539852.366    20539861.773
       242.000         210.000
  23248854.881    -7499459.73949  -5581520.09445  23248853.943    23248869.589
       219.000         160.000
  24361073.378    -4198145.32249  -3263704.19445  24361073.650    24361091.310
       211.000         137.000
  24813619.350     -923932.32749   -707600.88945  24813619.988    24813642.298
       209.000         140.000
  20789901.690   -23206616.46949 -18062953.34147  20789901.431    20789910.044
       243.000         212.000
  22723361.656   -12998765.00949 -10106481.67046  22723362.374    22723375.355
       231.000         179.000
 02  3 22  1 21 30.0000000  0 12G 6G23G26G21G15G17G29G14G 9G22G18G 3
  23385484.898   -10169561.42049  -7649553.48845  23385484.446    23385502.533
       215.000         158.000
  24057592.811    -2407564.25449  -1847987.52845  24057591.136    24057607.561
       210.000         155.000
  24012430.027    -7076495.41049  -4201905.49145  24012430.310    24012445.967
       217.000         153.000
  21579690.415   -21006406.60149 -16353136.76447  21579689.822    21579701.105
       240.000         203.000
  20633316.229   -24925270.55249 -19410126.81247  20633315.273    20633325.656
       243.000         208.000
  20958412.929   -24872185.78649 -19368206.96647  20958412.403    20958422.944
       240.000         203.000
  20534766.177   -23330680.42449 -18168055.23047  20534765.787    20534775.233
       242.000         211.000
  23228478.637    -7606535.70349  -5664955.48745  23228477.380    23228493.527
       220.000         160.000
  24350416.063    -4254152.81049  -3307346.15145  24350417.587    24350432.357
       212.000         148.000
  24824563.724     -866422.06549   -662787.86545  24824564.152    24824585.309
       209.000         141.000
  20796125.596   -23173909.60649 -18037467.46747  20796125.242    20796133.691
       243.000         212.000
  22709556.260   -13071312.67549 -10163012.14846  22709555.102    22709567.833
       223.000         177.000
 02  3 22  1 22  0.0000000  0 12G 6G23G26G21G15G17G29G14G 9G22G18G 3
  23405725.768   -10063196.06049  -7566671.66445  23405726.073    23405743.782
       214.000         157.000
  24071847.072    -2332656.68549  -1789618.10945  24071847.407    24071861.617
       213.000         154.000
  24031662.871    -6975426.79149  -4123150.83345  24031663.106    24031677.915
       214.000         153.000
  21576276.387   -21024347.10049 -16367116.29747  21576275.725    21576286.670
       240.000         203.000
  20632626.894   -24928892.67749 -19412949.20147  20632626.020    20632636.560
       242.000         208.000
  20960657.309   -24860391.30049 -19359016.43047  20960656.529    20960667.062
       239.000         203.000
  20529783.791   -23356862.59649 -18188456.83747  20529783.357    20529792.955
       241.000         211.000
  23208133.983    -7713445.86849  -5748261.70745  23208132.594    23208148.165
       218.000         160.000
  24339798.793    -4309947.37449  -3350822.23245  24339798.158    24339812.640
       211.000         144.000
  24835530.116     -808794.28549   -617883.33745  24835529.870    24835551.571
       207.000         140.000
  20802394.184   -23140968.04049 -18011798.70147  20802393.543    20802402.315
       242.000         212.000
  22695824.403   -13143472.81849 -10219240.67246  22695824.458    22695837.497
       229.000         177.000
 02  3 22  1 22 30.0000000  0 12G 6G23G26G21G15G17G29G14G 9G22G18G 3
  23425997.413    -9956668.76049  -7483663.64645  23425996.570    23426015.119
       213.000         157.000
  24086090.032    -2257810.27349  -1731296.29445  24086090.726    24086104.520
       217.000         158.000
  24050948.781    -6874078.57749  -4044178.30045  24050949.624    24050961.604
       210.000         147.000
  21572903.827   -21042070.00049 -16380926.28047  21572903.600    21572914.628
       240.000         203.000
  20631982.563   -24932278.59449 -19415587.55147  20631982.186    20631992.123
       242.000         208.000
  20962947.040   -24848358.47049 -19349640.18547  20962946.764    20962957.322
       238.000         203.000
  20524905.587   -23382497.40849 -18208431.93947  20524905.524    20524914.759
       241.000         211.000
  23187821.351    -7820187.31649  -5831436.46945  23187819.766    23187836.055
       218.000         161.000
  24329222.220    -4365525.48049  -3394129.58145  24329219.981    24329236.603
       203.000         138.000
  24846518.468     -751051.63149   -572889.24645  24846518.973    24846540.309
       206.000         141.000
  20808707.078   -23107793.33349 -17985948.28047  20808706.632    20808715.503
       242.000         212.000
  22682166.940   -13215242.91049 -10275165.20946  22682166.723    22682179.902
       225.000         178.000
 02  3 22  1 23  0.0000000  0 12G 6G23G26G21G15G17G29G14G 9G22G18G 3
  23446299.333    -9849982.43049  -7400531.71345  23446297.976    23446317.728
       212.000         157.000
  24100321.259    -2183026.15749  -1673023.02645  24100321.545    24100335.742
       220.000         159.000
  24070287.354    -6772454.16749  -3964990.42445  24070287.886    24070302.616
       209.000         141.000
  21569572.354   -21059576.74749 -16394567.82647  21569572.066    21569583.150
       239.000         203.000
  20631383.320   -24935427.53549 -19418041.22747  20631383.051    20631392.818
       242.000         208.000
  20965282.262   -24836086.63249 -19340077.68047  20965281.817    20965291.914
       237.000         202.000
  20520131.607   -23407584.55849 -18227980.27547  20520131.569    20520140.817
       241.000         211.000
  23167541.343    -7926757.52449  -5914477.80445  23167540.036    23167556.192
       219.000         162.000
  24318687.191    -4420884.58949  -3437266.28245  24318685.125    24318703.714
       208.000         139.000
  24857527.757     -693197.20349   -527808.09945  24857527.322    24857552.487
       206.000         140.000
  20815064.010   -23074387.46649 -17959917.72347  20815063.911    20815072.272
       243.000         211.000
  22668583.946   -13286621.13849 -10330784.47046  22668583.696    22668597.028
       228.000         177.000
 02  3 22  1 23 30.0000000  0 12G 6G23G26G21G15G17G29G14G 9G22G18G 3
  23466631.058    -9743139.46749  -7317277.73545  23466632.089    23466649.402
       214.000         157.000
  24114540.394    -2108305.01549  -1614798.79945  24114539.712    24114554.079
       220.000         155.000
  24089677.916    -6670556.38649  -3885589.67445  24089678.373    24089694.165
       214.000         149.000
  21566281.870   -21076868.14049 -16408041.56247  21566281.364    21566292.353
       239.000         203.000
  20630829.455   -24938338.19249 -19420309.23547  20630828.794    20630839.039
       242.000         208.000
  20967663.216   -24823574.26049 -19330327.75647  20967663.249    20967672.935
       238.000         202.000
  20515462.051   -23432123.11549 -18247101.14847  20515461.941    20515471.296
       241.000         211.000
  23147294.559    -8033153.58549  -5997383.43745  23147293.672    23147308.881
       219.000         162.000
  24308194.937    -4476021.35449  -3480229.70145  24308194.757    24308212.084
       208.000         147.000
  24868558.111     -635233.73349   -482642.01145  24868558.095    24868581.411
       206.000         142.000
  20821464.676   -23040751.86249 -17933708.15247  20821464.480    20821472.895
       242.000         211.000
  22655076.007   -13357605.23649 -10386096.55146  22655075.707    22655089.067
       228.000         180.000
 02  3 22  1 24  0.0000000  0 12G 6G23G26G21G15G17G29G14G 9G22G18G 3
  23486991.760    -9636143.83749  -7233904.78845  23486992.284    23487011.022
       214.000         156.000
  24128746.945    -2033649.16949  -1556625.41945  24128744.778    24128761.662
       210.000         150.000
  24109119.699    -6568389.64449  -3805979.34945  24109119.464    24109136.355
       211.000         153.000
  21563031.789   -21093947.05049 -16421349.72447  21563031.134    21563042.420
       239.000         203.000
  20630320.779   -24941010.88749 -19422391.81047  20630320.137    20630330.108
       242.000         208.000
  20970089.931   -24810821.81449 -19320390.75847  20970089.349    20970100.002
       238.000         202.000
  20510896.668   -23456113.98549 -18265795.25447  20510896.672    20510905.601
       241.000         211.000
  23127081.142    -8139374.46349  -6080152.56746  23127079.476    23127095.577
       219.000         163.000
  24297745.369    -4530934.29549  -3523018.77045  24297745.491    24297759.603
       213.000         144.000
  24879608.112     -577165.28749   -437394.11545  24879605.957    24879631.315
       203.000         139.000
  20827908.428   -23006889.41949 -17907321.82047  20827907.919    20827916.759
       242.000         211.000
  22641643.342   -13428194.00749 -10441100.62646  22641642.337    22641655.809
       225.000         179.000
 02  3 22  1 24 30.0000000  0 12G 6G23G26G21G15G17G29G14G 9G22G18G 3
  23507381.863    -9528993.89249  -7150411.64445  23507382.158    23507399.880
       215.000         156.000
  24142941.391    -1959055.07549  -1498500.22545  24142940.550    24142954.710
       208.000         148.000
  24128612.681    -6465952.68549  -3726158.47145  24128612.839    24128628.037
       211.000         147.000
  21559822.714   -21110810.26949 -16434489.82247  21559822.396    21559833.422
       240.000         203.000
  20629858.462   -24943440.21649 -19424284.75347  20629857.797    20629868.002
       244.000         208.000
  20972563.307   -24797823.70049 -19310262.33947  20972563.147    20972573.167
       239.000         202.000
  20506436.493   -23479552.11249 -18284058.65947  20506436.419    20506445.590
       242.000         211.000
  23106902.409    -8245413.03849  -6162779.67046  23106901.045    23106915.896
       220.000         163.000
  24287339.546    -4585616.21449  -3565627.91245  24287335.887    24287355.027
       200.000         140.000
  24890678.538     -518990.53949   -392063.37545  24890679.181    24890702.984
       210.000         143.000
  20834395.898   -22972797.51149 -17880756.69347  20834395.758    20834404.135
       244.000         211.000
  22628286.927   -13498381.15649 -10495791.73146  22628287.123    22628299.740
       231.000         180.000
 02  3 22  1 25  0.0000000  0 12G 6G23G26G21G15G17G29G14G 9G22G18G 3
  23527800.195    -9421696.40149  -7066803.50245  23527800.453    23527819.452
       214.000         156.000
  24157123.513    -1884527.82249  -1440427.09945  24157123.491    24157138.626
       216.000         152.000
  24148156.003    -6363252.62449  -3646132.39745  24148156.099    24148170.253
       213.000         140.000
  21556653.777   -21127462.78549 -16447465.73747  21556653.439    21556664.509
       239.000         203.000
  20629441.973   -24945629.02949 -19425990.28247  20629441.355    20629451.139
       243.000         208.000
  20975082.895   -24784583.12549 -19299944.98947  20975082.393    20975092.888
       238.000         202.000
  20502080.800   -23502441.10249 -18301894.16347  20502080.765    20502089.879
       241.000         211.000
  23086758.089    -8351270.79249  -6245265.85946  23086756.941    23086771.876
       219.000         163.000
  24276977.035    -4640068.25149  -3608057.68645  24276978.118    24276992.047
       212.000         139.000
  24901768.022     -460716.18949   -346655.02445  24901767.275    24901792.708
       210.000         142.000
  20840925.924   -22938482.06849 -17854017.38047  20840925.687    20840934.240
       243.000         211.000
  22615006.868   -13568168.54249 -10550171.37746  22615005.208    22615019.680
       225.000         178.000
 02  3 22  1 25 30.0000000  0 12G 6G23G26G21G15G17G29G14G 9G22G18G 3
  23548246.238    -9314252.95549  -6983081.63045  23548246.508    23548265.400
       213.000         155.000
  24171293.014    -1810067.38649  -1382406.02245  24171293.692    24171308.576
       216.000         153.000
  24167748.977    -6260291.71049  -3565903.13845  24167749.545    24167765.017
       205.000         144.000
  21553524.915   -21143904.78949 -16460277.60947  21553524.296    21553535.671
       239.000         203.000
  20629071.584   -24947575.47149 -19427506.95247  20629070.931    20629080.769
       242.000         208.000
  20977649.059   -24771097.90549 -19289437.00047  20977649.096    20977659.193
       238.000         202.000
  20497829.883   -23524779.51449 -18319300.64547  20497829.768    20497839.049
       241.000         211.000
  23066648.729    -8456944.25349  -6327608.43446  23066647.522    23066662.730
       219.000         163.000
  24266659.918    -4694286.46049  -3650305.62745  24266660.131    24266674.585
       204.000         137.000
  24912876.144     -402344.42449   -301170.74845  24912876.415    24912900.609
       207.000         144.000
  20847498.360   -22903943.89249 -17827104.50247  20847497.858    20847506.832
       242.000         211.000
  22601803.160   -13637553.15749 -10604237.12746  22601803.367    22601816.104
       230.000         181.000
 02  3 22  1 26  0.0000000  0 12G 6G23G26G21G15G17G29G14G 9G22G18G 3
  23568719.779    -9206665.14949  -6899247.28645  23568718.975    23568737.303
       211.000         155.000
  24185449.690    -1735673.66449  -1324436.93745  24185449.472    24185462.765
       214.000         153.000
  24187390.893    -6157071.89249  -3485472.30445  24187390.118    24187407.116
       205.000         145.000
  21550436.113   -21160136.45349 -16472925.59047  21550435.624    21550446.421
       240.000         203.000
  20628747.723   -24949277.40749 -19428833.10347  20628746.886    20628757.194
       242.000         209.000
  20980262.215   -24757366.06149 -19278736.83947  20980261.907    20980272.565
       239.000         203.000
  20493684.045   -23546565.74449 -18336276.85947  20493683.848    20493693.363
       241.000         212.000
  23046575.178    -8562429.73449  -6409804.55746  23046573.539    23046589.119
       220.000         163.000
  24256387.331    -4748266.90149  -3692367.95745  24256387.263    24256406.075
       210.000         147.000
  24924002.008     -343877.01349   -255612.01145  24924000.663    24924027.329
       203.000         142.000
  20854112.931   -22869183.83949 -17800018.74547  20854112.598    20854121.316
       242.000         211.000
  22588676.836   -13706531.98749 -10657986.69446  22588675.216    22588689.271
       226.000         180.000
 02  3 22  1 26 30.0000000  0 12G 6G23G26G21G15G17G29G14G 9G22G18G 3
  23589220.232    -9098936.36549  -6815303.09245  23589220.433    23589239.618
       213.000         155.000
  24199593.334    -1661348.33449  -1266521.15545  24199593.680    24199607.617
       217.000         153.000
  24207081.607    -6053597.25249  -3404842.81345  24207082.615    24207097.324
       214.000         151.000
  21547386.872   -21176159.98849 -16485411.38847  21547386.135    21547397.356
       240.000         203.000
  20628470.285   -24950734.81449 -19429968.70247  20628469.578    20628479.670
       243.000         208.000
  20982922.332   -24743387.24049 -19267844.22847  20982922.145    20982932.590
       239.000         202.000
  20489643.224   -23567800.10649 -18352823.04747  20489643.155    20489652.322
       242.000         212.000
  23026537.763    -8667725.25549  -6491852.65746  23026536.670    23026551.968
       219.000         164.000
  24246160.961    -4802007.23049  -3734243.23445  24246160.322    24246178.555
       207.000         151.000
  24935145.912     -285317.65049   -209981.57545  24935146.827    24935168.203
       214.000         142.000
  20860769.299   -22834204.30449 -17772761.95247  20860769.160    20860777.610
       243.000         211.000
  22575627.913   -13775103.65249 -10711419.01346  22575627.708    22575640.962
       230.000         181.000
 02  3 22  1 27  0.0000000  0 12G 6G23G26G21G15G17G29G14G 9G22G18G 3
  23609747.018    -8991068.53149  -6731250.52145  23609747.072    23609766.686
       212.000         154.000
  24213723.937    -1587091.33949  -1208658.61245  24213723.438    24213738.363
       211.000         149.000
  24226820.518    -5949869.92349  -3324016.32345  24226820.951    24226835.588
       212.000         145.000
  21544377.314   -21191975.01849 -16497734.70747  21544376.908    21544387.745
       240.000         203.000
  20628239.880   -24951945.71149 -19430912.21147  20628239.247    20628249.047
       242.000         208.000
  20985629.733   -24729159.70349 -19256757.81047  20985629.391    20985639.514
       239.000         202.000
  20485707.694   -23588481.26449 -18368938.15947  20485707.540    20485716.516
       242.000         212.000
  23006537.203    -8772827.55349  -6573750.19546  23006535.687    23006550.853
       219.000         164.000
  24235980.382    -4855504.11449  -3775928.87345  24235978.441    24235991.725
       207.000         140.000
  24946306.932     -226668.47449   -164281.06845  24946306.751    24946328.968
       205.000         139.000
  20867467.263   -22799006.11349 -17745334.78147  20867466.943    20867475.766
       243.000         211.000
  22562657.092   -13843265.24249 -10764531.76846  22562656.318    22562668.784
       230.000         181.000
 02  3 22  1 27 30.0000000  0 12G 6G23G26G21G15G17G29G14G 9G22G18G 3
  23630299.674    -8883064.18049  -6647091.61845  23630300.274    23630316.893
       212.000         154.000
  24227841.345    -1512903.23549  -1150849.73045  24227840.905    24227853.812
       212.000         146.000
  24246606.571    -5845892.75449  -3242995.14745  24246605.724    24246623.015
       197.000         133.000
  21541407.174   -21207583.18049 -16509896.84147  21541406.714    21541417.768
       241.000         203.000
  20628056.483   -24952909.10549 -19431662.87347  20628055.834    20628065.811
       243.000         208.000
  20988384.721   -24714681.98149 -19245476.45147  20988384.064    20988394.937
       238.000         202.000
  20481877.441   -23608608.94049 -18384621.99647  20481877.271    20481886.448
       242.000         212.000
  22986573.900    -8877733.90349  -6655495.04246  22986572.657    22986587.946
       221.000         164.000
  24225847.319    -4908754.05449  -3817422.29145  24225848.724    24225862.992
       216.000         143.000
  24957484.209     -167932.00049   -118512.64545  24957483.793    24957505.618
       207.000         138.000
  20874206.560   -22763590.77649 -17717738.40747  20874206.098    20874214.614
       243.000         211.000
  22549764.734   -13911014.44949 -10817323.24046  22549763.504    22549777.565
       227.000         179.000
 02  3 22  1 28  0.0000000  0 12G 6G23G26G21G15G17G29G14G 9G22G18G 3
  23650877.667    -8774927.81649  -6562829.84745  23650878.987    23650897.118
       217.000         154.000
  24241945.341    -1438786.92649  -1093096.76245  24241945.001    24241960.167
       217.000         150.000
  24266439.162    -5741670.89449  -3161783.45245  24266440.713    24266454.996
       213.000         139.000
  21538475.746   -21222987.68449 -16521900.27547  21538475.074    21538486.057
       240.000         203.000
  20627920.122   -24953625.58049 -19432221.12547  20627919.339    20627929.473
       243.000         208.000
  20991187.091   -24699955.22349 -19234001.03947  20991186.764    20991197.027
       238.000         202.000
  20478152.274   -23628184.44249 -18399875.56647  20478152.110    20478161.222
       242.000         212.000
  22966647.970    -8982443.65749  -6737086.71146  22966646.861    22966661.652
       222.000         165.000
  24215761.672    -4961756.42049  -3858722.60245  24215759.568    24215776.331
       199.000         147.000
  24968676.897     -109113.08349    -72679.93045  24968675.346    24968702.095
       203.000         136.000
  20880986.464   -22727961.90849 -17689975.64647  20880986.204    20880994.807
       243.000         210.000
  22536950.836   -13978351.01649 -10869793.14246  22536950.794    22536962.775
       229.000         181.000
 02  3 22  1 28 30.0000000  0 12G 6G23G26G21G15G17G29G14G 9G22G18G 3
  23671480.785    -8666659.10849  -6478464.94145  23671482.524    23671499.160
       214.000         152.000
  24256036.072    -1364740.29049  -1035398.12945  24256035.456    24256050.609
       216.000         152.000
  24286318.805    -5637204.36349  -3080381.00145  24286320.250    24286335.000
       213.000         149.000
  21535583.460   -21238186.61549 -16533743.52547  21535583.006    21535593.958
       240.000         203.000
  20627831.478   -24954091.08149 -19432583.80947  20627831.020    20627840.836
       242.000         208.000
  20994037.732   -24684975.14449 -19222328.22747  20994037.340    20994047.569
       239.000         202.000
  20474532.869   -23647204.31649 -18414696.18047  20474532.746    20474541.768
       241.000         212.000
  22946760.670    -9086951.20249  -6818520.81146  22946759.349    22946774.290
       221.000         166.000
  24205722.991    -5014505.21149  -3899825.25345  24205722.097    24205735.932
       210.000         139.000
  24979885.697      -50211.66049    -26782.99545  24979887.134    24979910.236
       208.000         141.000
  20887807.326   -22692118.33249 -17662045.57847  20887807.022    20887815.448
       242.000         210.000
  22524216.438   -14045269.87149 -10921937.55746  22524215.550    22524228.185
       227.000         178.000
 02  3 22  1 29  0.0000000  0 12G 6G23G26G21G15G17G29G14G 9G22G18G 3
  23692108.218    -8558262.57249  -6394000.46145  23692108.634    23692124.544
       214.000         152.000
  24270112.658    -1290766.03349   -977755.96345  24270111.971    24270127.530
       211.000         150.000
  24306243.929    -5532498.31749  -2998791.92845  24306244.277    24306259.116
       208.000         146.000
  21532729.646   -21253183.18149 -16545429.08947  21532729.042    21532740.186
       241.000         203.000
  20627790.412   -24954306.77749 -19432751.84647  20627789.798    20627799.870
       244.000         208.000
  20996936.276   -24669742.82149 -19210458.85947  20996935.614    20996946.457
       239.000         202.000
  20471018.799   -23665670.53449 -18429085.37347  20471018.639    20471027.826
       243.000         212.000
  22926911.849    -9191256.02549  -6899796.94846  22926909.821    22926925.440
       222.000         166.000
  24195733.840    -5066999.49249  -3940729.78845  24195733.312    24195749.018
       210.000         143.000
  24991109.239        8767.34649     19174.48945  24991106.297    24991131.320
       202.000         136.000
  20894668.301   -22656063.62349 -17633950.99147  20894667.862    20894676.837
       244.000         210.000
  22511561.641   -14111771.14949 -10973756.60746  22511561.250    22511573.843
       231.000         182.000
 02  3 22  1 29 30.0000000  0 12G 6G23G26G21G15G17G29G14G 9G22G18G 3
  23712759.911    -8449738.20249  -6309436.35745  23712760.048    23712780.142
       213.000         152.000
  24284176.118    -1216862.42949   -920168.81245  24284178.293    24284192.006
       221.000         152.000
  24326214.262    -5427552.95949  -2917016.37345  24326214.412    24326228.109
       200.000         134.000
  21529914.708   -21267975.53249 -16556955.51747  21529913.991    21529924.797
       241.000         203.000
  20627797.599   -24954268.73649 -19432722.15847  20627796.813    20627806.559
       244.000         208.000
  20999883.562   -24654254.45549 -19198389.97347  20999883.083    20999893.467
       239.000         201.000
  20467610.770   -23683579.75549 -18443040.53647  20467610.538    20467619.801
       243.000         212.000
  22907102.637    -9295352.72149  -6980910.91746  22907101.184    22907116.686
       223.000         167.000
  24185793.621    -5119233.55249  -3981431.37945  24185792.434    24185810.540
       211.000         147.000
  25002347.250       67823.96649     65192.42045  25002348.814    25002371.928
       212.000         138.000
  20901569.667   -22619796.72149 -17605691.05147  20901569.325    20901577.952
       244.000         210.000
  22498987.162   -14177849.99449 -11025246.49146  22498986.636    22498999.302
       230.000         181.000
 02  3 22  1 30  0.0000000  0 12G 6G23G26G21G15G17G29G14G 9G22G18G 3
  23733434.917    -8341091.34349  -6224776.76945  23733435.624    23733455.214
       213.000         150.000
  24298225.815    -1143032.75449   -862639.17545  24298225.399    24298238.632
       219.000         152.000
  24346229.011    -5322374.09049  -2835058.87645  24346229.816    24346244.498
       211.000         136.000
  21527137.804   -21282567.78749 -16568326.04047  21527137.043    21527147.718
       241.000         203.000
  20627852.794   -24953978.43749 -19432495.91947  20627851.825    20627861.832
       244.000         208.000
  21002879.281   -24638511.61049 -19186122.80147  21002878.400    21002888.979
       238.000         201.000
  20464308.223   -23700934.47149 -18456563.62947  20464307.934    20464316.909
       243.000         212.000
  22887333.061    -9399241.32349  -7061862.74046  22887332.240    22887346.482
       223.000         167.000
  24175903.348    -5171207.21249  -4021930.09745  24175904.020    24175920.491
       214.000         150.000
  25013599.613      126952.56049    111266.42945  25013599.785    25013625.474
       209.000         143.000
  20908510.508   -22583322.19849 -17577269.34047  20908509.850    20908518.898
       244.000         210.000
  22486492.891   -14243507.40849 -11076407.97746  22486491.676    22486505.029
       230.000         182.000
 02  3 22  1 30 30.0000000  0 11G 6G23G26G21G15G17G29G14G 9G18G 3
  23754133.382    -8232321.50549  -6140021.41245  23754133.146    23754151.952
       211.000         150.000
  24312261.622    -1069274.52549   -805165.21945  24312260.452    24312276.467
       214.000         149.000
  24366288.576    -5216961.60749  -2752919.32645  24366288.569    24366304.854
       214.000         145.000
  21524399.508   -21296957.73349 -16579538.90847  21524399.189    21524409.544
       241.000         203.000
  20627956.703   -24953432.08849 -19432070.14947  20627956.213    20627966.266
       243.000         208.000
  21005924.265   -24622509.99249 -19173653.99047  21005924.081    21005934.692
       239.000         201.000
  20461111.845   -23717731.12849 -18469651.86547  20461111.727    20461120.801
       243.000         212.000
  22867604.169    -9502916.02949  -7142647.89346  22867603.587    22867617.672
       224.000         167.000
  24166063.926    -5222914.47549  -4062221.33545  24166062.283    24166075.409
       202.000         143.000
  20915491.165   -22546638.37349 -17548684.52847  20915491.117    20915499.555
       245.000         210.000
  22474079.889   -14308737.67349 -11127236.64146  22474079.309    22474092.224
       231.000         182.000
 02  3 22  1 31  0.0000000  0 11G 6G23G26G21G15G17G29G14G 9G18G 3
  23774855.492    -8123427.15849  -6055169.02345  23774856.150    23774876.251
       210.000         150.000
  24326284.133     -995584.41249   -747744.42545  24326283.424    24326300.040
       206.000         148.000
  24386392.635    -5111314.32749  -2670596.81045  24386394.031    24386407.504
       204.000         142.000
  21521700.224   -21311142.13549 -16590591.61647  21521699.827    21521710.353
       240.000         203.000
  20628110.318   -24952624.43049 -19431440.76147  20628109.647    20628119.845
       242.000         208.000
  21009019.495   -24606244.58149 -19160979.62647  21009019.169    21009029.675
       238.000         201.000
  20458022.520   -23733965.27349 -18482301.77847  20458022.336    20458031.517
       242.000         212.000
  22847917.213    -9606370.16849  -7223261.18046  22847916.127    22847931.036
       223.000         168.000
  24156275.252    -5274348.16149  -4102299.29545  24156273.100    24156288.697
       206.000         135.000
  20922512.182   -22509742.79349 -17519934.71147  20922511.747    20922520.532
       243.000         210.000
  22461749.244   -14373534.85249 -11177727.80446  22461749.384    22461762.281
       230.000         183.000
 02  3 22  1 31 30.0000000  0 11G 6G23G26G21G15G17G29G14G 9G18G 3
  23795599.065    -8014420.44149  -5970229.08745  23795601.458    23795617.298
       212.000         149.000
  24340291.922     -921972.73449   -690384.75645  24340292.786    24340307.541
       216.000         152.000
  24406538.818    -5005444.78449  -2588101.10545  24406534.897    24406553.714
       200.000         132.000
  21519038.006   -21325131.75749 -16601492.55347  21519037.430    21519048.063
       240.000         203.000
  20628312.110   -24951563.88149 -19430614.31947  20628311.377    20628321.335
       243.000         208.000
  21012163.276   -24589723.65049 -19148106.14947  21012162.822    21012173.358
       239.000         201.000
  20455038.466   -23749646.29949 -18494520.69447  20455038.352    20455047.192
       242.000         212.000
  22828270.998    -9709610.59549  -7303707.94346  22828269.438    22828283.474
       224.000         168.000
  24146538.748    -5325514.94749  -4142169.31245  24146540.848    24146555.076
       216.000         148.000
  20929571.318   -22472646.57549 -17491028.55547  20929571.019    20929579.412
       244.000         210.000
  22449499.737   -14437906.42949 -11227887.37446  22449499.025    22449511.624
       228.000         183.000
 02  3 22  1 32  0.0000000  0 11G 6G23G26G21G15G17G29G14G 9G18G 3
  23816363.617    -7905302.76349  -5885202.71945  23816363.435    23816382.202
       209.000         148.000
  24354285.130     -848439.11949   -633085.85345  24354285.509    24354300.135
       219.000         156.000
  24426727.025    -4899355.10149  -2505433.84445  24426727.239    24426741.764
       211.000         137.000
  21516412.792   -21338927.07949 -16612242.08547  21516412.568    21516422.915
       241.000         204.000
  20628562.458   -24950248.00149 -19429588.92247  20628561.734    20628571.778
       242.000         208.000
  21015356.075   -24572945.15249 -19135031.97647  21015355.432    21015366.423
       236.000         201.000
  20452159.955   -23764772.81749 -18506307.52447  20452159.744    20452168.950
       241.000         212.000
  22808666.092    -9812633.70949  -7383985.35846  22808664.900    22808679.692
       224.000         169.000
  24136853.825    -5376410.80649  -4181828.21445  24136851.885    24136866.363
       207.000         147.000
  20936668.544   -22435350.38849 -17461966.57647  20936668.036    20936676.925
       242.000         210.000
  22437331.618   -14501849.31549 -11277712.87046  22437331.439    22437343.400
       230.000         182.000
 02  3 22  1 32 30.0000000  0 11G 6G23G26G21G15G17G29G14G 9G18G 3
  23837149.263    -7796075.26549  -5800090.73945  23837149.635    23837170.690
       211.000         148.000
  24368263.554     -774982.66149   -575847.07445  24368262.553    24368278.469
       212.000         153.000
  24446956.959    -4793046.72549  -2422596.18545  24446957.204    24446972.797
       208.000         144.000
  21513824.628   -21352527.58149 -16622839.81247  21513824.099    21513834.706
       240.000         204.000
  20628861.961   -24948674.02349 -19428362.41247  20628861.586    20628871.426
       243.000         208.000
  21018598.342   -24555906.35349 -19121754.97447  21018597.987    21018608.257
       237.000         201.000
  20449387.219   -23779343.14849 -18517660.96147  20449387.114    20449396.118
       242.000         212.000
  22789103.315    -9915435.16349  -7464090.06346  22789101.913    22789117.162
       223.000         169.000
  24127220.473    -5427031.48649  -4221272.68645  24127220.213    24127235.460
       212.000         142.000
  20943803.827   -22397854.25649 -17432748.79947  20943803.367    20943812.006
       244.000         210.000
  22425245.931   -14565359.78149 -11327201.43246  22425244.886    22425257.149
       228.000         182.000
 02  3 22  1 33  0.0000000  0 11G 6G23G26G21G15G17G29G14G 9G18G 3
  23857955.234    -7686740.47449  -5714895.16745  23857954.991    23857975.094
       208.000         146.000
  24382226.888     -701603.95149   -518668.85745  24382226.886    24382238.612
       208.000         144.000
  24467227.872    -4686522.37349  -2339590.30545  24467228.420    24467242.204
       200.000         140.000
  21511273.374   -21365934.21949 -16633286.46447  21511272.776    21511283.838
       240.000         204.000
  20629210.734   -24946841.05049 -19426934.07947  20629210.065    20629220.261
       243.000         208.000
  21021890.420   -24538606.13249 -19108274.25747  21021890.008    21021900.706
       238.000         201.000
  20446720.429   -23793356.86749 -18528580.66447  20446720.100    20446729.230
       242.000         212.000
  22769583.241   -10018012.44449  -7544020.09046  22769581.976    22769597.495
       226.000         170.000
  24117640.934    -5477373.80149  -4260500.26745  24117641.244    24117656.210
       212.000         149.000
  20950976.911   -22360159.40249 -17403376.16447  20950976.501    20950985.430
       243.000         210.000
  22413242.846   -14628435.50249 -11376351.21746  22413242.755    22413255.588
       232.000         184.000
 02  3 22  1 33 30.0000000  0 11G 6G23G26G21G15G17G29G14G 9G18G 3
  23878781.632    -7577298.90149  -5629616.41045  23878782.143    23878802.097
       210.000         147.000
  24396175.461     -628301.48649   -461550.08045  24396175.269    24396188.569
       208.000         141.000
  24487539.707    -4579783.00149  -2256416.81345  24487540.229    24487553.373
       209.000         136.000
  21508759.258   -21379145.60249 -16643580.98147  21508759.016    21508769.466
       242.000         204.000
  20629609.447   -24944745.54249 -19425301.17847  20629608.939    20629618.708
       244.000         208.000
  21025232.923   -24521041.21849 -19094587.30247  21025232.694    21025243.175
       238.000         201.000
  20444159.965   -23806811.86049 -18539065.00847  20444159.963    20444168.862
       243.000         212.000
  22750106.781   -10120360.76449  -7623771.71646  22750105.240    22750120.038
       225.000         170.000
  24108114.444    -5527432.84749  -4299507.06745  24108112.071    24108127.731
       211.000         143.000
  20958187.841   -22322265.54149 -17373848.47347  20958187.679    20958196.010
       244.000         210.000
  22401323.325   -14691072.56949 -11425159.19946  22401323.127    22401335.573
       230.000         184.000
 02  3 22  1 34  0.0000000  0 11G 6G23G26G21G15G17G29G14G 9G18G 3
  23899627.195    -7467755.29849  -5544258.13745  23899627.612    23899647.500
       210.000         147.000
  24410109.524     -555078.36349   -404493.12545  24410110.072    24410124.506
       211.000         149.000
  24507891.548    -4472834.08049  -2173079.89745  24507892.119    24507905.834
       213.000         138.000
  21506281.668   -21392165.16349 -16653726.02747  21506281.201    21506291.967
       240.000         204.000
  20630057.898   -24942389.02949 -19423464.90047  20630057.458    20630067.239
       242.000         208.000
  21028625.557   -24503212.86649 -19080695.06247  21028625.505    21028635.725
       237.000         200.000
  20441705.477   -23819710.07349 -18549115.49747  20441705.322    20441714.440
       241.000         212.000
  22730673.922   -10222479.58049  -7703344.49346  22730672.573    22730687.414
       226.000         170.000
  24098642.800    -5577207.81649  -4338292.59245  24098644.715    24098658.576
       216.000         149.000
  20965435.958   -22284176.47149 -17344168.65947  20965435.911    20965444.210
       243.000         209.000
  22389487.214   -14753271.21449 -11473625.55146  22389487.141    22389498.764
       231.000         185.000
 02  3 22  1 34 30.0000000  0 11G 6G23G26G21G15G17G29G14G 9G18G 3
  23920491.923    -7358111.67849  -5458821.97445  23920493.257    23920510.780
       212.000         146.000
  24424028.725     -481934.31449   -347497.76645  24424029.077    24424042.788
       213.000         156.000
  24528282.846    -4365677.67349  -2089581.41145  24528283.703    24528298.986
       205.000         142.000
  21503840.477   -21404993.54949 -16663722.10447  21503840.021    21503850.579
       240.000         204.000
  20630556.395   -24939769.43049 -19421423.61647  20630555.594    20630565.439
       242.000         208.000
  21032068.748   -24485119.25349 -19066596.12347  21032068.292    21032078.778
       238.000         201.000
  20439357.043   -23832050.71049 -18558731.50847  20439356.808    20439365.829
       242.000         212.000
  22711285.396   -10324365.75649  -7782736.01546  22711284.425    22711298.363
       223.000         171.000
  24089225.656    -5626695.28449  -4376854.02645  24089223.737    24089238.572
       208.000         146.000
  20972721.024   -22245893.06649 -17314337.42147  20972720.538    20972729.232
       242.000         209.000
  22377735.049   -14815028.90749 -11521748.31046  22377733.867    22377746.909
       229.000         184.000
 02  3 22  1 35  0.0000000  0 11G 6G23G26G21G15G17G29G14G 9G18G 3
  23941375.420    -7248370.59849  -5373309.85245  23941377.429    23941394.769
       212.000         147.000
  24437932.551     -408870.03549   -290564.57045  24437931.502    24437946.353
       211.000         155.000
  24548712.906    -4258316.68549  -2005923.61245  24548711.980    24548729.444
       198.000         139.000
  21501435.376   -21417632.07349 -16673570.23847  21501434.487    21501445.308
       242.000         204.000
  20631105.093   -24936885.79549 -19419176.59047  20631104.154    20631114.394
       243.000         208.000
  21035562.557   -24466759.24649 -19052289.60347  21035561.983    21035572.507
       239.000         200.000
  20437114.777   -23843833.69749 -18567912.98847  20437114.480    20437123.499
       243.000         212.000
  22691941.586   -10426016.80249  -7861944.30546  22691940.796    22691954.428
       226.000         171.000
  24079863.436    -5675892.26249  -4415189.19645  24079864.367    24079873.412
       216.000         140.000
  20980042.746   -22207416.96849 -17284356.03147  20980042.339    20980050.985
       244.000         209.000
  22366067.035   -14876343.76249 -11569525.98546  22366066.065    22366078.953
       231.000         185.000
 02  3 22  1 35 30.0000000  0 11G 6G23G26G21G15G17G29G14G 9G18G 3
  23962277.079    -7138533.35749  -5287722.79245  23962277.790    23962298.052
       210.000         146.000
  24451820.948     -335884.89349   -233693.06445  24451818.788    24451834.787
       202.000         147.000
  24569181.563    -4150753.07649  -1922107.88345  24569182.079    24569196.506
       211.000         142.000
  21499066.542   -21430080.15649 -16683269.97947  21499066.096    21499076.739
       241.000         204.000
  20631704.443   -24933735.78349 -19416721.99747  20631703.859    20631713.735
       243.000         208.000
  21039107.438   -24448130.67749 -19037773.82747  21039106.729    21039117.307
       238.000         200.000
  20434978.918   -23855057.49249 -18576658.73547  20434978.639    20434987.706
       243.000         212.000
  22672643.415   -10527428.59049  -7940966.16546  22672641.987    22672655.951
       226.000         172.000
  24070557.473    -5724794.71849  -4453294.88045  24070554.372    24070573.461
       205.000         142.000
  20987401.121   -22168748.60549 -17254224.82647  20987400.865    20987409.317
       243.000         209.000
  22354483.957   -14937212.77949 -11616956.27546  22354483.193    22354495.756
       229.000         184.000
 02  3 22  1 36  0.0000000  0 11G 6G23G26G21G15G17G29G14G 9G18G 3
  23983196.417    -7028602.82449  -5202063.06945  23983196.948    23983215.363
       210.000         146.000
  24465694.052     -262979.80349   -176883.90645  24465694.382    24465707.166
       209.000         142.000
  24589688.310    -4042989.94049  -1838136.54845  24589689.112    24589703.871
       213.000         144.000
  21496733.608   -21442339.52349 -16692822.66647  21496732.872    21496743.646
       240.000         204.000
  20632354.762   -24930318.45549 -19414059.10947  20632353.989    20632363.791
       243.000         208.000
  21042703.593   -24429232.47849 -19023047.94547  21042702.950    21042713.542
       238.000         200.000
  20432949.404   -23865722.48049 -18584969.04848  20432949.373    20432958.013
       242.000         213.000
  22653391.066   -10628598.84149  -8019799.83046  22653389.974    22653403.503
       225.000         172.000
  24061307.856    -5773399.83049  -4491168.73745  24061309.552    24061324.909
       213.000         149.000
  20994795.703   -22129889.69449 -17223945.14047  20994795.456    20994803.880
       243.000         209.000
  22342986.063   -14997633.81249 -11664037.44746  22342985.643    22342998.778
       231.000         186.000
 02  3 22  1 36 30.0000000  0 11G 6G23G26G21G15G17G29G14G 9G18G 3
  24004132.952    -6918581.68049  -5116332.74345  24004132.895    24004153.520
       212.000         146.000
  24479552.238     -190155.59449   -120137.73045  24479553.638    24479564.447
       213.000         145.000
  24610232.355    -3935030.47549  -1754012.25145  24610233.050    24610249.122
       205.000         141.000
  21494436.206   -21454412.09749 -16702229.80547  21494435.922    21494446.394
       242.000         204.000
  20633056.027   -24926632.90249 -19411187.21247  20633055.473    20633065.243
       242.000         208.000
  21046351.244   -24410063.75949 -19008111.27047  21046350.645    21046361.274
       238.000         200.000
  20431026.243   -23875828.63949 -18592843.91148  20431026.205    20431034.957
       243.000         213.000
  22634185.148   -10729525.19149  -8098443.43546  22634184.070    22634197.178
       228.000         172.000
  24052115.570    -5821705.02649  -4528808.96445  24052111.680    24052129.982
       205.000         148.000
  21002226.197   -22090841.88949 -17193518.26747  21002225.662    21002234.438
       242.000         209.000
  22331573.952   -15057605.12949 -11710768.23946  22331573.533    22331585.376
       230.000         186.000
 02  3 22  1 37  0.0000000  0 10G 6G23G21G15G17G29G14G 9G18G 3
  24025086.704    -6808470.86349  -5030532.55545  24025087.728    24025106.257
       210.000         146.000
  24493395.329     -117411.01049    -63453.60945  24493396.105    24493407.844
       213.000         150.000
  21492174.655   -21466296.23549 -16711490.11347  21492173.928    21492184.810
       240.000         204.000
  20633808.856   -24922676.33449 -19408104.13847  20633808.492    20633818.331
       242.000         208.000
  21050050.841   -24390621.81849 -18992961.69747  21050050.533    21050061.067
       237.000         200.000
  20429209.685   -23885374.44949 -18600282.14348  20429209.702    20429218.498
       242.000         213.000
  22615026.530   -10830203.38049  -8176893.66846  22615025.204    22615039.304
       227.000         173.000
  24042980.944    -5869705.64049  -4566211.89145  24042981.410    24042995.806
       211.000         146.000
  21009692.608   -22051605.34749 -17162944.33447  21009692.413    21009701.057
       242.000         209.000
  22320247.819   -15117123.17949 -11757145.80846  22320247.824    22320260.562
       232.000         186.000
 02  3 22  1 37 30.0000000  0 10G 6G23G21G15G17G29G14G 9G18G 3
  24046056.251    -6698276.54349  -4944667.30245  24046058.510    24046075.718
       212.000         146.000
  24507222.334      -44750.21349     -6834.80545  24507221.993    24507237.903
       213.000         153.000
  21489947.976   -21477997.11249 -16720607.60647  21489947.639    21489957.897
       240.000         204.000
  20634612.874   -24918451.19249 -19404811.77347  20634612.355    20634622.091
       242.000         208.000
  21053802.039   -24370909.12849 -18977601.13647  21053801.477    21053811.875
       237.000         199.000
  20427499.102   -23894363.36049 -18607286.41648  20427498.787    20427507.766
       241.000         213.000
  22595914.896   -10930634.31849  -8255151.22746  22595913.465    22595927.356
       226.000         174.000
  24033904.504    -5917402.42449  -4603378.00645  24033903.994    24033921.207
       211.000         150.000
  21017194.032   -22012185.03449 -17132227.18747  21017193.790    21017202.120
       242.000         209.000
  22309007.866   -15176189.62849 -11803171.48046  22309007.076    22309019.242
       229.000         187.000
 02  3 22  1 38  0.0000000  0 10G 6G23G21G15G17G29G14G 9G18G 3
  24067041.606    -6587999.58949  -4858737.64645  24067040.714    24067062.364
       209.000         145.000
  24521033.432       27827.76849     49719.43145  24521032.772    24521048.058
       211.000         151.000
  21487756.247   -21489514.61249 -16729582.22547  21487756.066    21487766.522
       240.000         204.000
  20635468.476   -24913954.89849 -19401308.13647  20635467.843    20635477.874
       242.000         208.000
  21057605.259   -24350923.25949 -18962027.72847  21057604.943    21057615.220
       238.000         199.000
  20425894.757   -23902793.82849 -18613855.55848  20425894.777    20425903.598
       241.000         213.000
  22576851.149   -11030813.84949  -8333212.91246  22576850.232    22576863.463
       228.000         175.000
  24024886.924    -5964790.89449  -4640303.87045  24024887.916    24024903.618
       213.000         153.000
  21024730.495   -21972580.79349 -17101366.73347  21024730.272    21024739.263
       242.000         209.000
  22297854.317   -15234800.82949 -11848842.41146  22297854.287    22297866.876
       230.000         187.000
 02  3 22  1 38 30.0000000  0 10G 6G23G21G15G17G29G14G 9G18G 3
  24088042.260    -6477642.45949  -4772745.56345  24088041.296    24088061.113
       212.000         145.000
  24534828.552      100322.56449    106208.85145  24534827.183    24534841.233
       205.000         146.000
  21485599.300   -21500849.23449 -16738414.32847  21485598.819    21485609.295
       242.000         204.000
  20636375.937   -24909186.05049 -19397592.10247  20636375.255    20636385.012
       244.000         208.000
  21061460.788   -24330662.60049 -18946240.17747  21061460.214    21061470.100
       240.000         199.000
  20424396.773   -23910665.57149 -18619989.31448  20424396.684    20424405.443
       243.000         213.000
  22557835.847   -11130739.01449  -8411076.37046  22557834.096    22557848.098
       229.000         175.000
  24015928.074    -6011868.18749  -4676987.35545  24015926.010    24015938.756
       211.000         143.000
  21032301.648   -21932793.86849 -17070363.92147  21032301.441    21032310.163
       244.000         208.000
  22286788.007   -15292954.57349 -11894156.89146  22286787.718    22286799.679
       232.000         187.000
 02  3 22  1 39  0.0000000  0 10G 6G23G21G15G17G29G14G 9G18G 3
  24109057.571    -6367208.50849  -4686693.59045  24109058.426    24109081.475
       211.000         147.000
  24548607.742      172732.87049    162632.48745  24548607.413    24548621.169
       212.000         145.000
  21483476.792   -21512002.38049 -16747105.03247  21483476.379    21483487.164
       240.000         204.000
  20637335.306   -24904144.30549 -19393663.43147  20637334.740    20637344.783
       243.000         208.000
  21065368.553   -24310126.91349 -18930238.32647  21065368.279    21065378.403
       237.000         199.000
  20423004.951   -23917979.45249 -18625688.38548  20423004.958    20423013.709
       242.000         213.000
  22538869.208   -11230408.00949  -8488740.24346  22538868.566    22538881.749
       226.000         175.000
  24007029.345    -6058631.79949  -4713426.39445  24007030.629    24007044.517
       213.000         148.000
  21039907.184   -21892826.59749 -17039220.57447  21039906.936    21039915.524
       243.000         208.000
  22275808.797   -15350650.06449 -11939114.29246  22275808.269    22275821.014
       231.000         187.000
 02  3 22  1 39 30.0000000  0 10G 6G23G21G15G17G29G14G 9G18G 3
  24130087.193    -6256698.76449  -4600582.55845  24130088.807    24130109.586
       213.000         145.000
  24562371.288      245059.41649    218990.95745  24562371.424    24562384.476
       215.000         145.000
  21481388.920   -21522973.98949 -16755654.27747  21481388.354    21481398.978
       242.000         204.000
  20638347.112   -24898827.28449 -19389520.26047  20638346.480    20638356.168
       243.000         208.000
  21069329.161   -24289313.68649 -18914020.21747  21069328.927    21069338.928
       239.000         199.000
  20421719.504   -23924734.26849 -18630951.81948  20421719.508    20421728.041
       243.000         213.000
  22519951.989   -11329817.08949  -8566201.57046  22519950.523    22519963.891
       229.000         175.000
  23998191.002    -6105077.73949  -4749617.79145  23998189.509    23998206.999
       209.000         151.000
  21047546.939   -21852679.36349 -17007937.00147  21047546.787    21047555.302
       245.000         208.000
  22264917.477   -15407883.96649 -11983712.00346  22264916.779    22264928.859
       232.000         187.000
 02  3 22  1 40  0.0000000  0 10G 6G23G21G15G17G29G14G 9G18G 3
  24151130.569    -6146116.73649  -4514415.26545  24151131.450    24151151.883
       211.000         144.000
  24576118.483      317300.86849    275283.07645  24576117.928    24576133.276
       206.000         146.000
  21479335.140   -21533766.40249 -16764063.89447  21479334.566    21479345.480
       240.000         205.000
  20639411.243   -24893234.90549 -19385162.52047  20639410.473    20639420.620
       242.000         208.000
  21073342.567   -24268223.03849 -18897585.93947  21073342.099    21073352.618
       237.000         199.000
  20420540.162   -23930931.25949 -18635780.59048  20420540.004    20420548.957
       241.000         213.000
  22501084.602   -11428964.53249  -8643459.04646  22501083.414    22501096.748
       226.000         175.000
  23989413.034    -6151204.25149  -4785560.30145  23989415.034    23989424.670
       215.000         146.000
  21055220.574   -21812354.35749 -16976514.91347  21055220.454    21055228.866
       243.000         208.000
  22254114.063   -15464655.57349 -12027949.50846  22254113.518    22254125.922
       230.000         186.000
 02  3 22  1 40 30.0000000  0 10G 6G23G21G15G17G29G14G 9G18G 3
  24172187.265    -6035465.33449  -4428193.87645  24172188.902    24172210.233
       212.000         146.000
  24589849.205      389456.52948    331508.24545  24589846.743    24589863.905
       194.000         144.000
  21477315.181   -21544380.97449 -16772334.91447  21477314.624    21477325.126
       240.000         205.000
  20640528.014   -24887366.08149 -19380589.35847  20640527.350    20640536.819
       242.000         208.000
  21077408.938   -24246853.94249 -18880934.66847  21077408.484    21077418.525
       237.000         199.000
  20419466.977   -23936570.53249 -18640174.76048  20419466.747    20419475.481
       241.000         213.000
  22482267.490   -11527847.91849  -8720510.73846  22482266.551    22482279.193
       226.000         176.000
  23980697.163    -6197008.52349  -4821251.88645  23980697.129    23980710.435
       210.000         145.000
  21062927.598   -21771853.48049 -16944955.76347  21062926.949    21062935.616
       243.000         208.000
  22243399.014   -15520963.10649 -12071825.38347  22243398.546    22243410.989
       231.000         188.000
 02  3 22  1 41  0.0000000  0 10G 6G23G21G15G17G29G14G 9G18G 3
  24193256.849    -5924745.88549  -4341919.46945  24193260.774    24193278.730
       213.000         145.000
  24603563.394      461527.11349    387667.07145  24603563.567    24603577.947
       211.000         145.000
  21475329.204   -21554817.42849 -16780467.16147  21475328.799    21475339.589
       241.000         205.000
  20641697.897   -24881218.57649 -19375799.06547  20641697.230    20641706.806
       243.000         208.000
  21081528.779   -24225204.15049 -18864064.69747  21081528.591    21081538.730
       238.000         199.000
  20418500.141   -23941651.08549 -18644133.58448  20418500.007    20418508.985
       242.000         213.000
  22463501.390   -11626463.30249  -8797353.62746  22463500.442    22463514.033
       228.000         176.000
  23972042.323    -6242486.94049  -4856689.30345  23972038.853    23972057.306
       207.000         145.000
  21070668.053   -21731176.92249 -16913259.73547  21070667.500    21070676.306
       243.000         208.000
  22232772.772   -15576803.31649 -12115337.10746  22232772.762    22232784.677
       232.000         187.000
 02  3 22  1 41 30.0000000  0 10G 6G23G21G15G17G29G14G 9G18G 3
  24214338.778    -5813961.18149  -4255594.24245  24214341.070    24214359.790
       211.000         142.000
  24617261.774      533511.48049    443758.82645  24617262.824    24617278.219
       215.000         149.000
  21473376.778   -21565077.13949 -16788461.67247  21473376.041    21473386.593
       240.000         205.000
  20642920.838   -24874791.66749 -19370791.03247  20642919.844    20642929.887
       242.000         208.000
  21085702.129   -24203272.92649 -18846975.40247  21085701.523    21085712.166
       237.000         199.000
  20417639.538   -23946173.42949 -18647657.42548  20417639.302    20417648.331
       242.000         213.000
  22444786.709   -11724808.71749  -8873986.12446  22444785.418    22444797.990
       227.000         176.000
  23963450.309    -6287636.60749  -4891870.68045  23963451.268    23963463.240
       210.000         144.000
  21078441.618   -21690326.67149 -16881428.34947  21078441.179    21078450.076
       243.000         208.000
  22222235.862   -15632175.04649 -12158483.78946  22222235.057    22222247.686
       230.000         187.000
 02  3 22  1 42  0.0000000  0 10G 6G23G21G15G17G29G14G 9G18G 3
  24235432.704    -5703113.74649  -4169220.17545  24235432.309    24235450.446
       206.000         140.000
  24630943.591      605409.42049    499783.28645  24630943.643    24630956.813
       213.000         146.000
  21471457.759   -21575161.25549 -16796319.37447  21471457.130    21471467.650
       242.000         205.000
  20644197.154   -24868084.19349 -19365564.40247  20644196.510    20644206.294
       243.000         208.000
  21089929.146   -24181059.37949 -18829666.13747  21089928.626    21089939.353
       237.000         199.000
  20416885.072   -23950137.83249 -18650746.52548  20416884.935    20416893.815
       242.000         213.000
  22426123.766   -11822881.54649  -8950406.23746  22426122.289    22426136.249
       229.000         177.000
  23954921.613    -6332454.78949  -4926793.80345  23954920.434    23954934.698
       210.000         144.000
  21086247.919   -21649304.11949 -16849462.72547  21086247.595    21086256.200
       244.000         208.000
  22211788.366   -15687076.33949 -12201263.90446  22211788.159    22211800.057
       233.000         187.000
 02  3 22  1 42 30.0000000  0 10G 6G23G21G15G17G29G14G 9G18G 3
  24256537.905    -5592206.58649  -4082799.48845  24256536.979    24256564.458
       205.000         142.000
  24644608.504      677220.09649    555739.71945  24644609.892    24644620.604
       208.000         139.000
  21469571.946   -21585071.32849 -16804041.43547  21469571.645    21469581.951
       242.000         205.000
  20645527.055   -24861095.38549 -19360118.52947  20645526.479    20645536.382
       244.000         208.000
  21094210.119   -24158562.66149 -18812136.20147  21094209.812    21094220.238
       239.000         199.000
  20416236.735   -23953544.69149 -18653401.15348  20416236.723    20416245.457
       243.000         213.000
  22407513.304   -11920679.35549  -9026612.03846  22407512.342    22407524.882
       229.000         177.000
  23946456.313    -6376939.18749  -4961456.66245  23946456.183    23946472.144
       212.000         150.000
  21094086.737   -21608110.95949 -16817364.13547  21094086.568    21094095.099
       244.000         208.000
  22201430.823   -15741505.54849 -12243676.15346  22201430.509    22201442.492
       233.000         187.000
 02  3 22  1 43  0.0000000  0 10G 6G23G21G15G17G29G14G 9G18G 3
  24277654.014    -5481242.71149  -3996334.67145  24277655.649    24277673.670
       206.000         138.000
  24658256.659      748942.69949    611627.50445  24658254.076    24658271.683
       202.000         139.000
  21467718.989   -21594808.54949 -16811628.82147  21467718.658    21467728.779
       240.000         205.000
  20646910.590   -24853824.59949 -19354452.93747  20646909.872    20646919.942
       242.000         208.000
  21098545.164   -24135782.07949 -18794385.09147  21098544.721    21098555.196
       237.000         199.000
  20415694.334   -23956394.86249 -18655622.01248  20415694.189    20415702.824
       241.000         213.000
  22388955.477   -12018200.23749  -9102602.07246  22388954.409    22388966.996
       227.000         178.000
  23938055.129    -6421087.31149  -4995857.55845  23938054.320    23938069.499
       209.000         151.000
  21101957.553   -21566749.17549 -16785134.16747  21101957.229    21101966.136
       242.000         207.000
  22191163.211   -15795461.54449 -12285719.67247  22191162.918    22191174.752
       231.000         188.000
 02  3 22  1 43 30.0000000  0 10G 6G23G21G15G17G29G14G 9G18G 3
  24298780.807    -5370222.97749  -3909826.38845  24298781.214    24298801.920
       208.000         142.000
  24671888.413      820578.20049    667447.37145  24671888.397    24671901.470
       212.000         145.000
  21465898.917   -21604372.82249 -16819081.43447  21465898.438    21465909.052
       242.000         205.000
  20648348.341   -24846269.01149 -19348565.42147  20648347.706    20648357.531
       243.000         208.000
  21102934.590   -24112715.21049 -18776410.89047  21102934.253    21102944.712
       238.000         198.000
  20415258.098   -23958686.99449 -18657408.02648  20415258.051    20415266.797
       242.000         213.000
  22370451.132   -12115440.18349  -9178373.18446  22370450.469    22370463.460
       231.000         178.000
  23929718.757    -6464895.13549  -5029993.31545  23929718.081    23929732.977
       211.000         151.000
  21109860.514   -21525218.66549 -16752772.71147  21109860.148    21109868.878
       243.000         207.000
  22180986.224   -15848941.15549 -12327391.96047  22180986.373    22180998.174
       234.000         188.000
 02  3 22  1 44  0.0000000  0 10G 6G23G21G15G17G29G14G 9G18G 3
  24319917.379    -5259151.51549  -3823277.68845  24319920.329    24319943.357
       203.000         142.000
  24685503.490      892124.84349    723198.06345  24685503.681    24685519.216
       210.000         149.000
  21464111.279   -21613766.54649 -16826401.15247  21464110.955    21464121.308
       240.000         205.000
  20649840.154   -24838429.15549 -19342456.40247  20649839.534    20649849.578
       242.000         208.000
  21107378.462   -24089362.29149 -18758213.79947  21107378.346    21107388.592
       236.000         198.000
  20414927.727   -23960422.83449 -18658760.57148  20414927.740    20414936.249
       241.000         213.000
  22352000.534   -12212397.91049  -9253924.39046  22351999.892    22352012.495
       228.000         179.000
  23921446.545    -6508361.06049  -5063862.59745  23921445.368    23921460.421
       208.000         146.000
  21117795.028   -21483522.39549 -16720282.09847  21117794.845    21117803.137
       242.000         207.000
  22170900.130   -15901943.74249 -12368692.56547  22170899.795    22170911.298
       231.000         188.000
 02  3 22  1 44 30.0000000  0 10G 6G23G21G15G17G29G14G 9G18G 3
  24341063.458    -5148029.88749  -3736690.00945  24341066.131    24341083.644
       207.000         137.000
  24699101.524      963582.95249    778879.78145  24699098.550    24699114.900
       199.000         143.000
  21462355.978   -21622990.23149 -16833588.36647  21462355.460    21462365.745
       241.000         205.000
  20651386.486   -24830302.96849 -19336124.26947  20651385.773    20651395.686
       243.000         208.000
  21111877.218   -24065721.49349 -18739792.38247  21111877.002    21111887.407
       237.000         198.000
  20414703.305   -23961601.84149 -18659679.21148  20414703.135    20414711.966
       242.000         213.000
  22333604.202   -12309070.29649  -9329253.24446  22333602.918    22333615.463
       230.000         180.000
  23913241.202    -6551481.44849  -5097462.68745  23913241.637    23913255.650
       213.000         149.000
  21125760.982   -21441661.09449 -16687662.88047  21125760.690    21125769.251
       242.000         207.000
  22160905.218   -15954467.05249 -12409619.70047  22160904.595    22160917.118
       232.000         189.000
 02  3 22  1 45  0.0000000  0 10G 6G23G21G15G17G29G14G 9G18G 3
  24362218.448    -5036861.74549  -3650066.10145  24362219.157    24362243.970
       205.000         140.000
  24712682.166     1034950.93449    834491.22245  24712681.666    24712696.648
       212.000         140.000
  21460632.654   -21632045.93849 -16840644.70047  21460631.984    21460642.307
       240.000         205.000
  20652987.251   -24821890.52249 -19329569.08047  20652986.395    20652996.162
       241.000         208.000
  21116430.651   -24041792.99049 -18721146.78447  21116430.040    21116440.692
       236.000         198.000
  20414584.519   -23962225.63949 -18660165.22648  20414584.267    20414593.121
       241.000         213.000
  22315262.518   -12405455.56149  -9404358.38246  22315261.466    22315274.252
       229.000         180.000
  23905101.435    -6594254.97049  -5130792.47745  23905099.694    23905114.064
       211.000         145.000
  21133757.846   -21399637.04049 -16654916.85247  21133757.234    21133766.445
       242.000         207.000
  22151001.550   -16006510.38949 -12450172.82547  22151001.071    22151012.880
       232.000         189.000
 02  3 22  1 45 30.0000000  0 10G 6G23G21G15G17G29G14G 9G18G 3
  24383382.012    -4925648.39749  -3563406.88645  24383381.956    24383407.084
       201.000         136.000
  24726246.090     1106229.72949    890033.20545  24726246.826    24726259.198
       214.000         143.000
  21458941.433   -21640933.11049 -16847569.70247  21458940.734    21458951.620
       240.000         205.000
  20654642.988   -24813189.35049 -19322788.90947  20654642.539    20654652.333
       242.000         207.000
  21121039.245   -24017574.31249 -18702275.07647  21121038.899    21121049.526
       236.000         198.000
  20414571.620   -23962293.07749 -18660217.71347  20414571.466    20414580.385
       241.000         212.000
  22296976.202   -12501549.64149  -9479236.62346  22296975.025    22296987.852
       229.000         180.000
  23897028.843    -6636677.16449  -5163848.53645  23897030.270    23897041.527
       216.000         148.000
  21141785.590   -21357450.59149 -16622044.28347  21141785.227    21141793.951
       242.000         206.000
  22141189.825   -16058070.76049 -12490349.62147  22141188.924    22141201.371
       231.000         189.000
 02  3 22  1 46  0.0000000  0 10G 6G23G21G15G17G29G14G 9G18G 3
  24404553.563    -4814393.22649  -3476715.18345  24404555.248    24404575.056
       203.000         137.000
  24739792.826     1177417.86049    945504.52045  24739788.901    24739805.893
       201.000         142.000
  21457281.767   -21649654.11449 -16854365.23347  21457281.533    21457291.717
       240.000         205.000
  20656353.673   -24804199.49149 -19315783.78847  20656353.334    20656362.800
       241.000         207.000
  21125703.113   -23993065.59149 -18683177.36547  21125702.950    21125713.304
       236.000         198.000
  20414664.341   -23961805.61049 -18659837.81148  20414664.282    20414672.851
       240.000         213.000
  22278745.484   -12597351.74849  -9553887.35646  22278744.826    22278756.998
       229.000         181.000
  23889023.490    -6678746.68249  -5196629.76245  23889022.394    23889038.418
       210.000         150.000
  21149843.911   -21315104.17749 -16589047.05747  21149843.678    21149852.230
       241.000         206.000
  22131470.108   -16109147.44049 -12530149.51947  22131469.772    22131481.554
       233.000         189.000
 02  3 22  1 46 30.0000000  0 10G 6G23G21G15G17G29G14G 9G18G 3
  24425732.788    -4703097.75049  -3389992.06245  24425734.656    24425755.651
       204.000         136.000
  24753322.079     1248516.12049   1000905.76145  24753322.342    24753336.710
       209.000         139.000
  21455653.765   -21658209.12949 -16861031.40447  21455653.390    21455663.808
       240.000         205.000
  20658119.654   -24794919.08649 -19308552.25847  20658118.902    20658128.500
       242.000         207.000
  21130422.586   -23968264.75149 -18663852.01247  21130421.953    21130432.815
       236.000         197.000
  20414862.772   -23960762.72249 -18659025.09648  20414862.535    20414871.166
       241.000         213.000
  22260571.042   -12692857.95149  -9628307.50746  22260569.788    22260582.445
       229.000         181.000
  23881085.246    -6720459.77649  -5229133.19845  23881084.309    23881099.015
       211.000         150.000
  21157932.493   -21272598.02149 -16555925.35647  21157932.138    21157940.971
       242.000         206.000
  22121843.005   -16159737.96849 -12569570.58847  22121842.237    22121854.851
       231.000         189.000
 02  3 22  1 47  0.0000000  0 10G 6G23G21G15G17G29G14G 9G18G 3
  24446919.427    -4591764.37049  -3303239.40445  24446921.438    24446944.305
       205.000         137.000
  24766834.461     1319524.07849   1056236.67545  24766835.517    24766847.050
       215.000         141.000
  21454057.221   -21666599.06449 -16867568.95547  21454056.636    21454067.139
       240.000         205.000
  20659941.227   -24785346.65649 -19301093.18347  20659940.741    20659950.457
       241.000         207.000
  21135197.813   -23943170.50149 -18644298.04047  21135197.467    21135207.798
       235.000         197.000
  20415166.835   -23959164.77949 -18657779.88748  20415166.884    20415175.423
       241.000         213.000
  22242453.407   -12788065.71549  -9702495.11646  22242452.580    22242464.891
       230.000         182.000
  23873216.054    -6761813.69049  -5261356.85445  23873216.436    23873230.205
       212.000         153.000
  21166051.351   -21229933.36249 -16522680.15047  21166050.998    21166059.669
       242.000         206.000
  22112308.769   -16209840.38749 -12608611.32147  22112308.058    22112320.057
       232.000         190.000
 02  3 22  1 47 30.0000000  0 10G 6G23G21G15G17G29G14G 9G18G 3
  24468112.434    -4480397.36649  -3216460.58545  24468116.765    24468131.435
       209.000         137.000
  24780329.409     1390439.85449   1111495.81945  24780330.194    24780340.186
       210.000         143.000
  21452491.566   -21674826.22549 -16873979.66547  21452491.179    21452501.407
       240.000         205.000
  20661818.230   -24775482.73249 -19293406.96947  20661817.441    20661827.172
       241.000         207.000
  21140028.670   -23917783.61649 -18624516.02847  21140028.413    21140038.592
       234.000         197.000
  20415576.161   -23957013.58249 -18656103.56748  20415576.071    20415584.709
       241.000         213.000
  22224392.799   -12882974.00049  -9776449.37146  22224391.944    22224404.187
       229.000         182.000
  23865414.939    -6802807.02149  -5293299.45045  23865412.419    23865428.378
       206.000         149.000
  21174199.663   -21187113.40549 -16489313.94047  21174199.447    21174207.642
       241.000         206.000
  22102867.400   -16259454.58249 -12647271.63247  22102867.173    22102878.772
       233.000         190.000
 02  3 22  1 48  0.0000000  0 10G 6G23G21G15G17G29G14G 9G18G 3
  24489311.397    -4368997.97049  -3129656.59845  24489315.630    24489338.106
       214.000         139.000
  24793806.998     1461264.41149   1166683.89645  24793806.045    24793817.691
       202.000         142.000
  21450956.875   -21682891.04649 -16880263.87547  21450956.452    21450966.649
       241.000         205.000
  20663751.152   -24765324.98749 -19285491.79947  20663750.383    20663760.095
       241.000         207.000
  21144915.664   -23892101.79349 -18604504.19047  21144915.210    21144925.534
       236.000         197.000
  20416090.804   -23954308.66849 -18653995.77948  20416090.635    20416099.358
       241.000         213.000
  22206389.800   -12977579.24149  -9850167.48246  22206388.297    22206400.946
       230.000         182.000
  23857683.240    -6843435.82349  -5324958.04645  23857684.069    23857695.605
       214.000         149.000
  21182377.536   -21144138.33449 -16455826.84847  21182377.365    21182385.769
       242.000         206.000
  22093519.452   -16308577.87049 -12685549.39347  22093518.745    22093530.721
       232.000         190.000
 02  3 22  1 48 30.0000000  0 10G 6G23G21G15G17G29G14G 9G18G 3
  24510516.421    -4257568.16649  -3042828.77045  24510517.492    24510541.195
       204.000         135.000
  24807266.981     1531997.74449   1221800.81445  24807266.307    24807280.097
       204.000         143.000
  21449453.022   -21690793.77149 -16886421.78347  21449452.303    21449462.423
       240.000         205.000
  20665740.250   -24754872.12149 -19277346.66447  20665739.566    20665749.261
       242.000         207.000
  21149859.151   -23866123.71049 -18584261.50947  21149858.967    21149868.914
       236.000         197.000
  20416710.901   -23951049.86449 -18651456.38448  20416710.695    20416719.303
       241.000         213.000
  22188445.071   -13071878.47149  -9923647.14546  22188443.980    22188456.092
       230.000         182.000
  23850022.010    -6883697.20849  -5356330.42345  23850020.295    23850034.333
       204.000         147.000
  21190584.762   -21101009.25249 -16422219.75047  21190584.364    21190592.898
       242.000         206.000
  22084265.387   -16357208.15149 -12723443.02647  22084264.722    22084276.924
       232.000         190.000
 02  3 22  1 49  0.0000000  0  9G23G21G15G17G29G14G 9G18G 3
  24820709.259     1602638.99949   1276845.96545  24820708.071    24820721.659
       210.000         139.000
  21447979.583   -21698536.38949 -16892454.93247  21447978.883    21447989.354
       241.000         205.000
  20667785.637   -24744123.52449 -19268971.09547  20667785.050    20667794.549
       242.000         207.000
  21154859.103   -23839848.91049 -18563787.62647  21154859.026    21154868.973
       237.000         197.000
  20417436.083   -23947238.69149 -18648486.58348  20417436.163    20417444.499
       242.000         213.000
  22170558.910   -13165869.91149  -9996886.97946  22170557.912    22170570.128
       230.000         183.000
  23842429.559    -6923589.33849  -5387414.89745  23842429.939    23842444.079
       212.000         144.000
  21198820.856   -21057728.06949 -16388494.14347  21198820.832    21198829.144
       243.000         206.000
  22075105.164   -16405344.67649 -12760951.90147  22075104.863    22075116.689
       234.000         190.000
 02  3 22  1 49 30.0000000  0  9G23G21G15G17G29G14G 9G18G 3
  24834135.505     1673196.22449   1331825.63445  24834134.546    24834147.273
       198.000         136.000
  21446538.095   -21706111.05849 -16898357.21647  21446537.601    21446547.909
       240.000         205.000
  20669889.121   -24733069.36849 -19260357.43747  20669888.784    20669897.981
       241.000         207.000
  21159917.394   -23813267.73049 -18543075.00247  21159917.304    21159927.221
       236.000         197.000
  20418268.007   -23942866.77749 -18645079.84248  20418268.057    20418276.393
       240.000         213.000
  22152733.415   -13259542.08649 -10069878.03746  22152732.732    22152744.626
       230.000         183.000
  23834911.251    -6963100.61849  -5418202.78345  23834912.374    23834921.940
       214.000         147.000
  21207087.411   -21014287.43749 -16354644.28547  21207086.919    21207095.493
       241.000         205.000
  22066041.043   -16452977.10249 -12798067.97747  22066040.638    22066052.223
       233.000         191.000
 02  3 22  1 50  0.0000000  0  9G23G21G15G17G29G14G 9G18G 3
  24847543.610     1743655.79349   1386729.20645  24847544.893    24847556.326
       214.000         137.000
  21445125.876   -21713532.22949 -16904139.88647  21445125.459    21445135.506
       241.000         205.000
  20672048.399   -24721722.12249 -19251515.38847  20672047.709    20672057.334
       242.000         207.000
  21165031.546   -23786392.64049 -18522133.34347  21165031.494    21165041.389
       236.000         197.000
  20419203.914   -23937948.20049 -18641247.12548  20419203.769    20419212.216
       242.000         213.000
  22134966.579   -13352906.34749 -10142629.15746  22134966.102    22134977.005
       231.000         183.000
  23827462.768    -7002242.01649  -5448702.42345  23827460.133    23827474.782
       206.000         145.000
  21215381.347   -20970702.10349 -16320681.67047  21215381.037    21215389.584
       242.000         205.000
  22057070.455   -16500117.15249 -12834800.38247  22057069.948    22057081.502
       234.000         190.000
 02  3 22  1 50 30.0000000  0  9G23G21G15G17G29G14G 9G18G 3
  24860933.915     1814021.05449   1441559.43245  24860933.504    24860943.257
       213.000         136.000
  21443743.394   -21720797.21449 -16909800.85547  21443743.146    21443753.250
       241.000         205.000
  20674264.290   -24710077.11149 -19242441.31947  20674263.865    20674273.261
       242.000         207.000
  21170202.451   -23759219.24249 -18500959.24647  21170202.254    21170212.287
       235.000         196.000
  20420244.457   -23932479.78349 -18636985.96748  20420244.229    20420252.948
       241.000         213.000
  22117259.544   -13445956.61049 -10215135.61446  22117258.411    22117270.495
       230.000         184.000
  23820085.528    -7041006.94149  -5478908.60345  23820087.187    23820098.885
       217.000         149.000
  21223703.298   -20926969.88449 -16286604.60247  21223703.126    21223711.546
       242.000         205.000
  22048194.600   -16546759.86949 -12871145.26647  22048194.203    22048206.319
       233.000         191.000
 02  3 22  1 51  0.0000000  0  9G23G21G15G17G29G14G 9G18G 3
  24874305.981     1884291.47549   1496315.77645  24874306.886    24874320.758
       208.000         136.000
  21442390.272   -21727907.62249 -16915341.36747  21442389.792    21442399.738
       240.000         205.000
  20676537.059   -24698133.62849 -19233134.64947  20676536.562    20676545.993
       242.000         207.000
  21175430.374   -23731746.56249 -18479551.94347  21175429.945    21175440.116
       235.000         196.000
  20421389.409   -23926462.59649 -18632297.19748  20421389.316    20421397.774
       241.000         213.000
  22099612.668   -13538690.49749 -10287395.53246  22099611.547    22099623.550
       230.000         184.000
  23812781.288    -7079393.38049  -5508819.98745  23812780.915    23812793.396
       212.000         152.000
  21232052.918   -20883092.46949 -16252414.38947  21232052.526    21232061.000
       241.000         205.000
  22039413.516   -16592903.94649 -12907101.58247  22039413.492    22039424.422
       234.000         190.000
 02  3 22  1 51 30.0000000  0  9G23G21G15G17G29G14G 9G18G 3
  24887659.820     1954467.56549   1550998.44645  24887659.372    24887676.292
       200.000         138.000
  21441066.534   -21734863.65949 -16920761.59747  21441066.419    21441076.379
       242.000         205.000
  20678866.987   -24685889.84349 -19223594.01047  20678866.309    20678875.885
       243.000         207.000
  21180715.461   -23703972.96949 -18457910.16147  21180714.836    21180725.269
       236.000         196.000
  20422638.912   -23919896.40949 -18627180.63548  20422638.911    20422647.502
       242.000         213.000
  22082026.568   -13631104.87249 -10359406.49846  22082025.992    22082037.412
       232.000         184.000
  23805548.885    -7117397.93249  -5538433.74045  23805546.293    23805561.405
       203.000         149.000
  21240429.959   -20839070.45349 -16218111.50647  21240429.447    21240437.925
       242.000         205.000
  22030727.886   -16638547.18949 -12942667.64947  22030727.125    22030740.003
       232.000         191.000
 02  3 22  1 52  0.0000000  0  9G23G21G15G17G29G14G 9G18G 3
  24900995.806     2024549.84449   1605608.00245  24900996.599    24901011.819
       211.000         142.000
  21439772.169   -21741665.40849 -16926061.59847  21439771.675    21439781.767
       240.000         205.000
  20681254.413   -24673343.71149 -19213817.75947  20681253.796    20681263.303
       242.000         207.000
  21186058.259   -23675896.63749 -18436032.47247  21186057.797    21186067.824
       235.000         196.000
  20423992.850   -23912781.07149 -18621636.15848  20423992.684    20424001.054
       241.000         213.000
  22064501.961   -13723196.35349 -10431165.84946  22064501.024    22064512.640
       231.000         185.000
  23798389.585    -7155017.16949  -5567747.18545  23798388.718    23798404.630
       211.000         151.000
  21248834.505   -20794904.32849 -16183696.32747  21248833.828    21248842.889
       240.000         204.000
  22022137.897   -16683687.16549 -12977841.56847  22022137.951    22022148.136
       233.000         191.000
 02  3 22  1 52 30.0000000  0  9G23G21G15G17G29G14G 9G18G 3
  24914314.327     2094538.32649   1660144.55145  24914314.939    24914329.059
       215.000         147.000
  21438506.934   -21748313.78749 -16931242.09047  21438506.371    21438516.487
       241.000         205.000
  20683699.612   -24660493.97849 -19203804.95247  20683698.963    20683708.381
       243.000         207.000
  21191458.926   -23647516.32049 -18413917.92247  21191458.079    21191468.846
       236.000         196.000
  20425451.261   -23905117.00749 -18615664.10648  20425451.114    20425459.394
       242.000         213.000
  22047039.266   -13814962.40349 -10502671.62146  22047038.323    22047049.911
       232.000         185.000
  23791304.763    -7192248.24349  -5596758.23345  23791303.693    23791319.637
       207.000         153.000
  21257266.249   -20750594.91049 -16149169.48847  21257266.061    21257274.226
       242.000         204.000
  22013643.946   -16728322.10349 -13012621.92647  22013643.542    22013655.760
       234.000         191.000
 02  3 22  1 53  0.0000000  0  9G23G21G15G17G29G14G 9G18G 3
  24927614.723     2164431.84549   1714607.15945  24927615.171    24927627.149
       212.000         144.000
  21437270.495   -21754810.99949 -16936304.80047  21437270.117    21437280.040
       241.000         205.000
  20686202.624   -24647340.37349 -19193555.36047  20686201.840    20686211.272
       242.000         207.000
  21196917.235   -23618831.87749 -18391566.38647  21196916.460    21196927.015
       236.000         195.000
  20427013.731   -23896905.82849 -18609265.73748  20427013.543    20427022.139
       242.000         213.000
  22029638.807   -13906401.43149 -10573922.57946  22029638.189    22029649.424
       232.000         186.000
  23784293.722    -7229089.55249  -5625465.54645  23784294.366    23784307.837
       214.000         151.000
  21265724.887   -20706144.55549 -16114532.83647  21265724.465    21265732.784
       242.000         205.000
  22005246.484   -16772451.52649 -13047008.41447  22005246.145    22005256.429
       233.000         191.000
 02  3 22  1 53 30.0000000  0  9G23G21G15G17G29G14G 9G18G 3
  24940896.748     2234229.98149   1768995.36945  24940895.917    24940906.517
       208.000         136.000
  21436062.634   -21761158.26549 -16941250.65647  21436062.223    21436072.164
       240.000         205.000
  20688763.549   -24633882.35849 -19183068.55247  20688762.967    20688772.521
       241.000         207.000
  21202433.629   -23589842.77049 -18368977.45347  21202433.091    21202443.178
       235.000         195.000
  20428680.191   -23888148.37849 -18602441.69448  20428680.059    20428688.477
       241.000         213.000
  22012301.023   -13997511.09449 -10644916.88246  22012300.082    22012311.820
       232.000         186.000
  23777358.043    -7265538.64049  -5653867.29645  23777357.348    23777370.753
       210.000         153.000
  21274209.996   -20661554.84949 -16079787.58547  21274209.551    21274218.352
       240.000         204.000
  21996945.174   -16816074.16049 -13080999.97647  21996945.282    21996957.249
       234.000         191.000
 02  3 22  1 54  0.0000000  0  9G23G21G15G17G29G14G 9G18G 3
  24954160.729     2303933.02649   1823309.54145  24954161.224    24954174.494
       207.000         135.000
  21434883.201   -21767356.04049 -16946080.02647  21434882.899    21434892.874
       241.000         205.000
  20691382.745   -24620118.18149 -19172343.18047  20691381.954    20691391.959
       242.000         207.000
  21208008.353   -23560547.27249 -18346149.76447  21208008.002    21208018.221
       235.000         195.000
  20430450.537   -23878844.83449 -18595192.12848  20430450.483    20430459.068
       242.000         213.000
  21995026.491   -14088288.40749 -10715652.22146  21995025.621    21995036.998
       232.000         187.000
  23770497.005    -7301592.28949  -5681960.87545  23770496.748    23770511.119
       212.000         151.000
  21282721.425   -20616826.51349 -16044934.31847  21282720.929    21282729.676
       240.000         204.000
  21988740.911   -16859188.05549 -13114595.12547  21988740.262    21988751.540
       233.000         192.000
 02  3 22  1 54 30.0000000  0  9G23G21G15G17G29G14G 9G18G 3
  24967406.549     2373541.18249   1877549.68845  24967405.965    24967417.994
       204.000         133.000
  21433732.042   -21773405.14849 -16950793.56347  21433731.666    21433741.415
       241.000         205.000
  20694060.459   -24606046.51149 -19161378.21047  20694059.731    20694069.544
       242.000         207.000
  21213641.604   -23530944.42549 -18323082.59347  21213641.372    21213651.498
       235.000         195.000
  20432324.727   -23868995.84049 -18587517.54048  20432324.576    20432333.046
       241.000         213.000
  21977815.730   -14178730.85049 -10786126.62946  21977814.536    21977826.283
       232.000         187.000
  23763711.697    -7337247.94149  -5709744.27545  23763711.305    23763723.873
       211.000         149.000
  21291259.111   -20571960.65149 -16009973.89447  21291258.748    21291267.384
       241.000         204.000
  21980633.637   -16901791.46149 -13147792.51747  21980634.204    21980645.199
       235.000         192.000
 02  3 22  1 55  0.0000000  0  8G21G15G17G29G14G 9G18G 3
  21432609.117   -21779305.98049 -16955391.55447  21432608.584    21432618.579
       240.000         205.000
  20696796.970   -24591665.80149 -19150172.42547  20696796.206    20696806.053
       241.000         207.000
  21219333.547   -23501032.73449 -18299774.75847  21219332.722    21219343.370
       235.000         195.000
  20434302.609   -23858601.69349 -18579418.15148  20434302.517    20434311.082
       241.000         213.000
  21960669.199   -14268835.50249 -10856337.82446  21960668.595    21960679.804
       232.000         187.000
  23757002.703    -7372502.54449  -5737215.28845  23757001.260    23757013.131
       208.000         146.000
  21299822.871   -20526958.00549 -15974906.88047  21299822.410    21299831.315
       241.000         204.000
  21972623.897   -16943882.66549 -13180590.74747  21972623.299    21972635.027
       234.000         193.000
 02  3 22  1 55 30.0000000  0  8G21G15G17G29G14G 9G18G 3
  21431514.549   -21785057.61749 -16959873.29047  21431514.102    21431524.196
       241.000         205.000
  20699592.656   -24576974.10249 -19138724.29947  20699591.891    20699601.474
       241.000         207.000
  21225084.687   -23470810.14749 -18276224.67047  21225084.060    21225094.872
       234.000         195.000
  20436384.288   -23847662.04849 -18570893.70348  20436384.336    20436392.730
       241.000         213.000
  21943587.535   -14358599.23949 -10926283.36247  21943586.511    21943597.897
       232.000         188.000
  23750370.912    -7407352.39849  -5764370.82645  23750371.230    23750386.200
       212.000         151.000
  21308412.584   -20481818.58749 -15939733.28247  21308412.453    21308420.872
       240.000         204.000
  21964712.116   -16985459.42949 -13212988.16547  21964711.687    21964723.422
       233.000         193.000
 02  3 22  1 56  0.0000000  0  8G21G15G17G29G14G 9G18G 3
  21430447.419   -21790665.10949 -16964242.70747  21430447.020    21430457.016
       240.000         205.000
  20702447.093   -24561973.59049 -19127035.55447  20702446.455    20702456.154
       241.000         207.000
  21230894.411   -23440279.35549 -18252434.42547  21230894.188    21230904.539
       235.000         195.000
  20438568.993   -23836181.25249 -18561947.57548  20438569.103    20438577.499
       241.000         213.000
  21926570.599   -14448022.90549 -10995963.91547  21926569.722    21926581.210
       232.000         188.000
  23743815.874    -7441798.49649  -5791211.70745  23743814.379    23743828.632
       211.000         152.000
  21317027.438   -20436547.35849 -15904456.98047  21317027.349    21317035.590
       240.000         204.000
  21956897.641   -17026523.73449 -13244986.22247  21956898.196    21956909.046
       235.000         192.000
 02  3 22  1 56 30.0000000  0  8G21G15G17G29G14G 9G18G 3
  21429407.834   -21796127.87349 -16968499.34547  21429407.310    21429417.373
       241.000         205.000
  20705360.901   -24546661.21449 -19115103.80147  20705360.467    20705369.948
       241.000         207.000
  21236763.560   -23409436.96949 -18228401.38747  21236763.225    21236773.423
       235.000         195.000
  20440856.937   -23824157.89749 -18552578.67748  20440856.849    20440865.316
       241.000         213.000
  21909619.251   -14537101.85249 -11065375.85447  21909618.527    21909629.718
       233.000         188.000
  23737338.811    -7475836.05149  -5817734.34645  23737337.213    23737350.260
       210.000         150.000
  21325667.475   -20391143.36949 -15869077.22347  21325667.068    21325675.363
       241.000         204.000
  21949181.568   -17067072.03949 -13276582.24047  21949180.788    21949192.934
       234.000         192.000
 02  3 22  1 57  0.0000000  0  8G21G15G17G29G14G 9G18G 3
  21428395.387   -21801448.15749 -16972644.95947  21428394.761    21428405.125
       241.000         206.000
  20708333.942   -24531037.54549 -19102929.47447  20708333.299    20708343.082
       241.000         207.000
  21242691.762   -23378283.81049 -18204126.17547  21242691.381    21242701.610
       234.000         195.000
  20443247.616   -23811594.24249 -18542788.76648  20443247.634    20443255.894
       241.000         213.000
  21892733.753   -14625834.95749 -11134518.31847  21892732.896    21892744.050
       233.000         189.000
  23730939.435    -7509464.30749  -5843938.01845  23730939.882    23730952.372
       215.000         150.000
  21334332.250   -20345609.24449 -15833596.07247  21334332.239    21334340.752
       240.000         203.000
  21941563.564   -17107104.29949 -13307776.10947  21941562.882    21941575.101
       233.000         193.000
 02  3 22  1 57 30.0000000  0  9G21G15G17G29G14G 9G31G18G 3
  21427408.537   -21806633.56649 -16976685.47747  21427408.084    21427418.161
       240.000         206.000
  20711365.160   -24515108.38249 -19090517.10247  20711364.920    20711374.075
       241.000         207.000
  21248678.013   -23346825.81549 -18179613.42947  21248677.607    21248687.796
       234.000         195.000
  20445739.664   -23798498.24549 -18532584.04648  20445739.689    20445747.988
       241.000         213.000
  21875913.144   -14714226.89449 -11203394.93647  21875912.171    21875923.281
       233.000         189.000
  23724617.421    -7542687.78449  -5869826.26845  23724616.030    23724631.297
       211.000         154.000
  24449925.149    -1476313.47449  -1136203.97145  24449924.340    24449942.398
       208.000         145.000
  21343020.368   -20299953.15749 -15798019.88247  21343020.404    21343028.854
       241.000         204.000
  21934042.707   -17146626.32149 -13338572.42547  21934042.588    21934053.342
       235.000         192.000
 02  3 22  1 58  0.0000000  0  9G21G15G17G29G14G 9G31G18G 3
  21426447.777   -21811682.21249 -16980619.41547  21426447.219    21426457.450
       241.000         206.000
  20714455.278   -24498869.66149 -19077863.51447  20714454.731    20714464.202
       242.000         207.000
  21254723.062   -23315058.97249 -18154860.02247  21254722.592    21254733.080
       235.000         195.000
  20448333.435   -23784867.76849 -18521962.83548  20448333.223    20448341.650
       242.000         213.000
  21859158.491   -14802272.41549 -11272001.61047  21859157.760    21859168.892
       234.000         189.000
  23718372.830    -7575500.82849  -5895394.67245  23718372.792    23718386.581
       213.000         154.000
  24433336.919    -1563484.31549  -1204129.01545  24433335.684    24433354.103
       210.000         147.000
  21351732.061   -20254173.27849 -15762347.21147  21351731.324    21351740.506
       241.000         204.000
  21926619.737   -17185633.82549 -13368967.79047  21926618.828    21926630.553
       234.000         192.000
 02  3 22  1 58 30.0000000  0  9G21G15G17G29G14G 9G31G18G 3
  21425515.037   -21816583.46549 -16984438.51647  21425514.565    21425524.846
       241.000         206.000
  20717606.685   -24482308.80549 -19064958.91947  20717606.300    20717615.685
       241.000         207.000
  21260829.202   -23282970.87649 -18129856.30247  21260829.154    21260839.392
       234.000         195.000
  20451030.961   -23770691.95749 -18510916.70448  20451030.906    20451039.106
       241.000         213.000
  21842472.362   -14889957.60749 -11340327.52347  21842471.522    21842482.610
       233.000         190.000
  23712209.446    -7607889.56249  -5920632.49345  23712209.569    23712221.297
       214.000         153.000
  24416808.612    -1650340.11549  -1271808.55345  24416807.376    24416825.537
       205.000         146.000
  21360469.140   -20208259.38249 -15726570.12447  21360468.625    21360477.193
       240.000         203.000
  21919297.183   -17224114.05449 -13398952.30547  21919296.936    21919308.409
       234.000         193.000
 02  3 22  1 59  0.0000000  0  9G21G15G17G29G14G 9G31G18G 3
  21424609.303   -21821342.78749 -16988147.01447  21424609.012    21424619.151
       240.000         206.000
  20720818.788   -24465429.23249 -19051805.97547  20720818.366    20720827.703
       241.000         207.000
  21266995.747   -23250565.20849 -18104605.11047  21266995.525    21267005.673
       234.000         195.000
  20453831.205   -23755976.42949 -18499450.01048  20453831.267    20453839.700
       241.000         213.000
  21825854.357   -14977284.72049 -11408374.41047  21825853.546    21825865.149
       234.000         190.000
  23706126.662    -7639855.79949  -5945541.10645  23706127.080    23706138.870
       214.000         154.000
  24400339.838    -1736882.89449  -1339244.18045  24400338.727    24400356.838
       204.000         145.000
  21369230.609   -20162217.16749 -15690693.05747  21369230.480    21369238.597
       240.000         203.000
  21912074.290   -17262069.92849 -13428528.23247  21912074.576    21912084.376
       235.000         193.000
 02  3 22  1 59 30.0000000  0  9G21G15G17G29G14G 9G31G18G 3
  21423730.127   -21825962.78149 -16991746.94047  21423729.900    21423739.622
       241.000         206.000
  20724091.327   -24448231.54149 -19038405.14047  20724090.721    20724099.803
       241.000         207.000
  21273222.657   -23217842.68349 -18079107.02047  21273222.005    21273232.671
       233.000         194.000
  20456733.648   -23740723.79549 -18487564.79448  20456733.468    20456742.082
       241.000         213.000
  21809304.706   -15064252.92049 -11476141.62347  21809303.713    21809314.515
       234.000         191.000
  23700123.792    -7671399.10949  -5970120.16645  23700121.667    23700135.148
       210.000         150.000
  24383930.671    -1823111.76849  -1406435.18545  24383928.747    24383946.963
       201.000         142.000
  21378016.107   -20116049.20549 -15654717.98547  21378015.628    21378024.150
       240.000         203.000
  21904951.125   -17299502.29649 -13457696.22547  21904950.278    21904962.367
       234.000         193.000
 02  3 22  2  0  0.0000000  0  9G21G15G17G29G14G 9G31G18G 3
  21422877.506   -21830442.96749 -16995237.93247  21422877.291    21422887.350
       241.000         206.000
  20727424.860   -24430713.35149 -19024754.56847  20727424.323    20727433.881
       241.000         206.000
  21279510.250   -23184800.88949 -18053360.15647  21279509.852    21279519.931
       234.000         194.000
  20459738.350   -23724933.58949 -18475260.68848  20459738.318    20459746.751
       241.000         213.000
  21792824.057   -15150858.50049 -11543626.28047  21792823.192    21792834.168
       235.000         191.000
  23694202.164    -7702515.51349  -5994366.56245  23694203.704    23694214.918
       214.000         152.000
  24367582.126    -1909022.58549  -1473378.37645  24367581.364    24367598.174
       205.000         139.000
  21386825.425   -20069755.57249 -15618644.99547  21386824.909    21386833.827
       240.000         203.000
  21897928.137   -17336408.26449 -13486454.04847  21897928.420    21897939.259
       235.000         194.000
 02  3 22  2  0 30.0000000  0  9G21G15G17G29G14G 9G31G18G 3
  21422050.884   -21834786.94349 -16998622.78247  21422050.433    21422060.101
       242.000         206.000
  20730819.076   -24412876.27849 -19010855.50247  20730818.363    20730827.950
       241.000         206.000
  21285858.276   -23151441.78849 -18027366.04347  21285857.657    21285867.991
       233.000         194.000
  20462844.696   -23708609.51549 -18462540.58248  20462844.677    20462852.897
       242.000         213.000
  21776412.366   -15237101.68449 -11610828.55647  21776411.684    21776422.342
       234.000         191.000
  23688362.140    -7733205.42849  -6018280.62145  23688362.008    23688374.332
       213.000         153.000
  24351294.069    -1994615.44449  -1540073.81745  24351292.651    24351311.529
       205.000         139.000
  21395657.929   -20023340.10249 -15582477.07147  21395657.724    21395665.647
       241.000         202.000
  21891004.962   -17372789.30449 -13514802.82947  21891003.993    21891015.392
       233.000         193.000
 02  3 22  2  1  0.0000000  0  9G21G15G17G29G14G 9G31G18G 3
  21421250.153   -21838994.41649 -17001901.26647  21421249.268    21421259.595
       241.000         206.000
  20734274.433   -24394717.88549 -18996706.06647  20734273.561    20734283.208
       241.000         206.000
  21292267.034   -23117763.03049 -18001122.84947  21292266.651    21292276.953
       234.000         194.000
  20466052.705   -23691751.05249 -18449404.06748  20466052.397    20466060.900
       241.000         213.000
  21760070.323   -15322978.91649 -11677745.67647  21760069.457    21760080.171
       235.000         192.000
  23682603.786    -7763465.05949  -6041859.42945  23682602.396    23682613.472
       210.000         152.000
  24335067.391    -2079886.27349  -1606518.36645  24335067.104    24335083.848
       210.000         138.000
  21404513.765   -19976802.39249 -15546213.89347  21404513.414    21404521.908
       241.000         202.000
  21884182.141   -17408642.89849 -13542740.61447  21884182.186    21884192.633
       236.000         193.000
 02  3 22  2  1 30.0000000  0  9G21G15G17G29G14G 9G31G18G 3
  21420474.981   -21843067.60449 -17005075.11047  21420474.304    21420484.094
       242.000         206.000
  20737790.882   -24376238.56949 -18982306.55147  20737790.067    20737799.882
       243.000         206.000
  21298736.694   -23083765.02049 -17974630.87947  21298735.932    21298746.388
       234.000         194.000
  20469361.908   -23674360.79149 -18435853.16848  20469361.716    20469370.087
       243.000         213.000
  21743798.119   -15408489.28549 -11744376.92347  21743797.292    21743807.748
       236.000         193.000
  23676927.165    -7793293.63749  -6065102.33045  23676927.264    23676939.911
       215.000         150.000
  24318902.121    -2164834.26949  -1672711.39245  24318900.765    24318918.378
       211.000         136.000
  21413392.296   -19930145.06049 -15509857.51047  21413391.677    21413400.552
       241.000         202.000
  21877459.780   -17443969.30149 -13570267.60747  21877459.280    21877470.998
       236.000         194.000
 02  3 22  2  2  0.0000000  0  9G21G15G17G29G14G 9G31G18G 3
  21419725.087   -21847007.64149 -17008145.20247  21419724.643    21419734.463
       240.000         206.000
  20741368.564   -24357437.78649 -18967656.55147  20741368.030    20741377.461
       241.000         206.000
  21305267.110   -23049447.32449 -17947889.80147  21305266.491    21305276.949
       232.000         193.000
  20472772.116   -23656439.78149 -18421888.69948  20472772.095    20472780.488
       241.000         213.000
  21727596.057   -15493630.85349 -11810720.80647  21727595.519    21727605.745
       235.000         193.000
  23671333.823    -7822688.67549  -6088007.42745  23671333.737    23671346.828
       213.000         154.000
  24302798.850    -2249457.03949  -1738650.98645  24302797.803    24302814.792
       212.000         139.000
  21422293.461   -19883369.33649 -15473408.87047  21422293.265    21422301.444
       240.000         202.000
  21870837.743   -17478767.59649 -13597383.07447  21870837.734    21870848.829
       236.000         194.000
 02  3 22  2  2 30.0000000  0  9G21G15G17G29G14G 9G31G18G 3
  21419000.459   -21850815.49249 -17011112.29847  21419000.045    21419009.960
       241.000         206.000
  20745007.717   -24338314.05049 -18952754.90447  20745007.420    20745016.608
       242.000         206.000
  21311858.529   -23014808.86549 -17920898.78447  21311857.938    21311868.660
       233.000         193.000
  20476283.137   -23637989.17549 -18407511.55948  20476283.324    20476291.520
       242.000         213.000
  21711464.698   -15578400.97049 -11876775.24947  21711464.076    21711474.734
       235.000         193.000
  23665822.944    -7851647.80249  -6110572.83245  23665821.812    23665835.154
       209.000         153.000
  24286757.944    -2333751.95749  -1804335.07245  24286757.558    24286774.898
       211.000         143.000
  21431216.862   -19836476.38749 -15436868.89347  21431216.887    21431225.605
       241.000         202.000
  21864316.601   -17513036.55449 -13624086.08747  21864316.409    21864327.915
       236.000         195.000
 02  3 22  2  3  0.0000000  0  9G21G15G17G29G14G 9G31G18G 3
  21418301.072   -21854490.43849 -17013975.82547  21418300.509    21418310.631
       241.000         206.000
  20748708.768   -24318864.95549 -18937599.73047  20748708.358    20748717.516
       242.000         206.000
  21318511.543   -22979847.01149 -17893655.77647  21318511.412    21318521.493
       234.000         193.000
  20479895.078   -23619008.14649 -18392721.09948  20479895.134    20479903.323
       242.000         213.000
  21695404.752   -15662795.73849 -11942537.20647  21695404.434    21695414.986
       236.000         194.000
  23660395.341    -7880167.14549  -6132795.55945  23660393.980    23660407.456
       213.000         151.000
  24270780.164    -2417715.03449  -1869760.53545  24270778.979    24270796.319
       209.000         146.000
  21440162.671   -19789465.72849 -15400237.18947  21440162.215    21440170.400
       240.000         201.000
  21857896.597   -17546773.54249 -13650374.56547  21857896.383    21857907.613
       236.000         195.000
 02  3 22  2  3 30.0000000  0  9G21G15G17G29G14G 9G31G18G 3
  21417626.301   -21858036.05549 -17016738.57747  21417625.946    21417636.227
       241.000         206.000
  20752471.283   -24299092.43849 -18922192.54047  20752470.664    20752480.261
       242.000         207.000
  21325225.677   -22944563.93549 -17866162.45847  21325225.414    21325235.586
       234.000         193.000
  20483607.161   -23599500.83849 -18377520.54948  20483606.924    20483615.551
       242.000         213.000
  21679416.129   -15746815.78549 -12008007.17747  21679415.183    21679426.004
       236.000         194.000
  23655052.017    -7908247.04649  -6154675.90345  23655053.507    23655064.578
       215.000         154.000
  24254865.415    -2501346.52449  -1934927.62245  24254864.167    24254882.130
       205.000         147.000
  21449130.161   -19742341.06649 -15363516.65347  21449129.966    21449137.925
       241.000         201.000
  21851577.483   -17579980.09549 -13676249.72447  21851577.418    21851588.087
       236.000         195.000
 02  3 22  2  4  0.0000000  0  9G21G15G17G29G14G 9G31G18G 3
  21416976.176   -21861452.12049 -17019400.38347  21416975.906    21416985.697
       241.000         206.000
  20756295.882   -24278994.13249 -18906531.48947  20756294.906    20756304.849
       241.000         206.000
  21332001.405   -22908957.70949 -17838417.32947  21332001.083    21332011.119
       233.000         193.000
  20487419.414   -23579467.00549 -18361909.71648  20487419.475    20487427.568
       242.000         213.000
  21663499.401   -15830457.46849 -12073182.31747  21663498.632    21663509.028
       235.000         194.000
  23649792.808    -7935884.18349  -6176211.21045  23649792.359    23649803.242
       212.000         151.000
  24239014.286    -2584642.78249  -1999833.47545  24239012.551    24239031.041
       203.000         147.000
  21458119.316   -19695102.51449 -15326707.37247  21458119.063    21458127.495
       240.000         201.000
  21845359.846   -17612653.77749 -13701709.65147  21845359.362    21845370.673
       235.000         194.000
 02  3 22  2  4 30.0000000  0  9G21G15G17G29G14G 9G31G18G 3
  21416350.785   -21864738.69849 -17021961.29047  21416350.449    21416360.229
       241.000         207.000
  20760182.698   -24258568.53849 -18890615.39747  20760181.865    20760191.423
       242.000         206.000
  21338838.860   -22873026.60649 -17810419.06447  21338838.719    21338848.336
       233.000         193.000
  20491331.706   -23558907.56949 -18345889.32848  20491331.616    20491339.900
       242.000         213.000
  21647655.249   -15913718.11849 -12138060.55147  21647654.421    21647664.904
       236.000         194.000
  23644618.086    -7963075.87549  -6197399.43645  23644617.162    23644630.486
       209.000         151.000
  24223227.603    -2667600.57749  -2064475.57645  24223226.139    24223244.016
       204.000         146.000
  21467130.117   -19647750.40649 -15289809.60847  21467129.745    21467138.221
       239.000         201.000
  21839243.781   -17644793.33549 -13726753.38247  21839243.806    21839254.963
       237.000         195.000
 02  3 22  2  5  0.0000000  0  9G21G15G17G29G14G 9G31G18G 3
  21415749.666   -21867897.65849 -17024422.76047  21415749.275    21415758.991
       241.000         207.000
  20764131.840   -24237815.29249 -18874444.00447  20764131.091    20764140.544
       242.000         206.000
  21345738.194   -22836770.66049 -17782167.67147  21345738.053    21345748.122
       233.000         193.000
  20495343.783   -23537823.95349 -18329460.49348  20495343.679    20495352.010
       243.000         213.000
  21631883.874   -15996596.27749 -12202640.75447  21631883.089    21631893.712
       237.000         195.000
  23639528.450    -7989820.30349  -6218239.12945  23639528.455    23639541.648
       211.000         153.000
  24207505.729    -2750218.13149  -2128852.56445  24207504.363    24207522.108
       206.000         146.000
  21476162.167   -19600286.55649 -15252824.77247  21476161.713    21476170.550
       240.000         201.000
  21833229.519   -17676398.32749 -13751380.56947  21833229.130    21833240.213
       236.000         195.000
 02  3 22  2  5 30.0000000  0  9G21G15G17G29G14G 9G31G18G 3
  21415172.670   -21870929.08649 -17026784.85047  21415172.145    21415181.793
       240.000         206.000
  20768143.693   -24216732.64449 -18858015.93847  20768143.184    20768152.504
       241.000         206.000
  21352699.540   -22800188.25849 -17753661.88847  21352699.144    21352709.257
       233.000         192.000
  20499455.482   -23516216.59049 -18312623.53548  20499455.452    20499463.468
       241.000         213.000
  21616185.950   -16079088.80649 -12266920.45747  21616185.056    21616195.350
       236.000         195.000
  23634524.699    -8016114.37349  -6238727.88845  23634523.360    23634539.049
       210.000         154.000
  24191849.292    -2832492.15149  -2192961.87545  24191848.212    24191865.383
       209.000         148.000
  21485215.341   -19552711.33049 -15215753.15147  21485215.445    21485223.677
       239.000         200.000
  21827317.252   -17707466.82349 -13775589.70647  21827317.013    21827328.054
       235.000         195.000
